<?xml version="1.0" encoding="UTF-8" standalone="no" ?>
<gpx xmlns="http://www.topografix.com/GPX/1/1" xmlns:xsi="http://www.w3.org/2001/XMLSchema-instance" xsi:schemaLocation="http://www.topografix.com/GPX/1/1 http://www.topografix.com/GPX/1/1/gpx.xsd" version="1.1" creator="VisuGPX - https://www.visugpx.com">
  <metadata>
    <name>B and B </name>
    <desc><![CDATA[B and B avec Jean-charles et Mika]]></desc>
  </metadata>
  <trk>
    <name><![CDATA[B and B]]></name>
    <trkseg>
      <trkpt lat="45.3722" lon="5.94671">
        <ele>367.60000610352</ele>
        <time>2015-09-12T07:45:03.000Z</time>
      </trkpt>
      <trkpt lat="45.37213" lon="5.94655">
        <ele>368.60000610352</ele>
        <time>2015-09-12T07:45:10.000Z</time>
      </trkpt>
      <trkpt lat="45.37204" lon="5.94638">
        <ele>370.20001220703</ele>
        <time>2015-09-12T07:45:18.000Z</time>
      </trkpt>
      <trkpt lat="45.37198" lon="5.94618">
        <ele>372.60000610352</ele>
        <time>2015-09-12T07:45:26.000Z</time>
      </trkpt>
      <trkpt lat="45.37193" lon="5.94605">
        <ele>374.79998779297</ele>
        <time>2015-09-12T07:45:32.000Z</time>
      </trkpt>
      <trkpt lat="45.37185" lon="5.94588">
        <ele>377.60000610352</ele>
        <time>2015-09-12T07:45:40.000Z</time>
      </trkpt>
      <trkpt lat="45.37175" lon="5.94567">
        <ele>381</ele>
        <time>2015-09-12T07:45:50.000Z</time>
      </trkpt>
      <trkpt lat="45.3717" lon="5.94553">
        <ele>383</ele>
        <time>2015-09-12T07:45:57.000Z</time>
      </trkpt>
      <trkpt lat="45.37164" lon="5.94539">
        <ele>384.60000610352</ele>
        <time>2015-09-12T07:46:04.000Z</time>
      </trkpt>
      <trkpt lat="45.37158" lon="5.94522">
        <ele>386.60000610352</ele>
        <time>2015-09-12T07:46:12.000Z</time>
      </trkpt>
      <trkpt lat="45.37151" lon="5.945">
        <ele>389</ele>
        <time>2015-09-12T07:46:21.000Z</time>
      </trkpt>
      <trkpt lat="45.37146" lon="5.94485">
        <ele>391.20001220703</ele>
        <time>2015-09-12T07:46:28.000Z</time>
      </trkpt>
      <trkpt lat="45.37146" lon="5.94466">
        <ele>394.79998779297</ele>
        <time>2015-09-12T07:46:35.000Z</time>
      </trkpt>
      <trkpt lat="45.37149" lon="5.94451">
        <ele>397.20001220703</ele>
        <time>2015-09-12T07:46:42.000Z</time>
      </trkpt>
      <trkpt lat="45.37153" lon="5.94436">
        <ele>399.79998779297</ele>
        <time>2015-09-12T07:46:49.000Z</time>
      </trkpt>
      <trkpt lat="45.37158" lon="5.9442">
        <ele>402.60000610352</ele>
        <time>2015-09-12T07:46:56.000Z</time>
      </trkpt>
      <trkpt lat="45.37163" lon="5.94408">
        <ele>406.79998779297</ele>
        <time>2015-09-12T07:47:02.000Z</time>
      </trkpt>
      <trkpt lat="45.37168" lon="5.94389">
        <ele>413.20001220703</ele>
        <time>2015-09-12T07:47:10.000Z</time>
      </trkpt>
      <trkpt lat="45.37171" lon="5.94374">
        <ele>415.79998779297</ele>
        <time>2015-09-12T07:47:17.000Z</time>
      </trkpt>
      <trkpt lat="45.37174" lon="5.94362">
        <ele>418.20001220703</ele>
        <time>2015-09-12T07:47:23.000Z</time>
      </trkpt>
      <trkpt lat="45.37175" lon="5.9436">
        <ele>418.60000610352</ele>
        <time>2015-09-12T07:47:24.000Z</time>
      </trkpt>
      <trkpt lat="45.37181" lon="5.94354">
        <ele>421.20001220703</ele>
        <time>2015-09-12T07:47:30.000Z</time>
      </trkpt>
      <trkpt lat="45.37183" lon="5.94354">
        <ele>421.60000610352</ele>
        <time>2015-09-12T07:47:31.000Z</time>
      </trkpt>
      <trkpt lat="45.37191" lon="5.94351">
        <ele>425</ele>
        <time>2015-09-12T07:47:39.000Z</time>
      </trkpt>
      <trkpt lat="45.37197" lon="5.9435">
        <ele>427.20001220703</ele>
        <time>2015-09-12T07:47:46.000Z</time>
      </trkpt>
      <trkpt lat="45.37203" lon="5.94352">
        <ele>428.79998779297</ele>
        <time>2015-09-12T07:47:50.000Z</time>
      </trkpt>
      <trkpt lat="45.37206" lon="5.94357">
        <ele>428.60000610352</ele>
        <time>2015-09-12T07:47:54.000Z</time>
      </trkpt>
      <trkpt lat="45.37211" lon="5.94372">
        <ele>427</ele>
        <time>2015-09-12T07:48:02.000Z</time>
      </trkpt>
      <trkpt lat="45.37212" lon="5.94387">
        <ele>424.20001220703</ele>
        <time>2015-09-12T07:48:08.000Z</time>
      </trkpt>
      <trkpt lat="45.37216" lon="5.94404">
        <ele>420.60000610352</ele>
        <time>2015-09-12T07:48:15.000Z</time>
      </trkpt>
      <trkpt lat="45.37228" lon="5.94419">
        <ele>418.39999389648</ele>
        <time>2015-09-12T07:48:23.000Z</time>
      </trkpt>
      <trkpt lat="45.37242" lon="5.94428">
        <ele>418.20001220703</ele>
        <time>2015-09-12T07:48:31.000Z</time>
      </trkpt>
      <trkpt lat="45.37255" lon="5.94435">
        <ele>418.60000610352</ele>
        <time>2015-09-12T07:48:38.000Z</time>
      </trkpt>
      <trkpt lat="45.37267" lon="5.94442">
        <ele>418.79998779297</ele>
        <time>2015-09-12T07:48:43.000Z</time>
      </trkpt>
      <trkpt lat="45.37283" lon="5.94454">
        <ele>418.79998779297</ele>
        <time>2015-09-12T07:48:53.000Z</time>
      </trkpt>
      <trkpt lat="45.37299" lon="5.94461">
        <ele>420.79998779297</ele>
        <time>2015-09-12T07:49:02.000Z</time>
      </trkpt>
      <trkpt lat="45.37311" lon="5.94465">
        <ele>421.79998779297</ele>
        <time>2015-09-12T07:49:09.000Z</time>
      </trkpt>
      <trkpt lat="45.37323" lon="5.94466">
        <ele>424</ele>
        <time>2015-09-12T07:49:17.000Z</time>
      </trkpt>
      <trkpt lat="45.37333" lon="5.94467">
        <ele>425.79998779297</ele>
        <time>2015-09-12T07:49:23.000Z</time>
      </trkpt>
      <trkpt lat="45.37344" lon="5.94471">
        <ele>426.79998779297</ele>
        <time>2015-09-12T07:49:30.000Z</time>
      </trkpt>
      <trkpt lat="45.37354" lon="5.94475">
        <ele>427.60000610352</ele>
        <time>2015-09-12T07:49:36.000Z</time>
      </trkpt>
      <trkpt lat="45.37364" lon="5.94481">
        <ele>427.79998779297</ele>
        <time>2015-09-12T07:49:42.000Z</time>
      </trkpt>
      <trkpt lat="45.37373" lon="5.94485">
        <ele>428.39999389648</ele>
        <time>2015-09-12T07:49:48.000Z</time>
      </trkpt>
      <trkpt lat="45.37387" lon="5.9449">
        <ele>429.39999389648</ele>
        <time>2015-09-12T07:49:56.000Z</time>
      </trkpt>
      <trkpt lat="45.37402" lon="5.94494">
        <ele>430</ele>
        <time>2015-09-12T07:50:04.000Z</time>
      </trkpt>
      <trkpt lat="45.37419" lon="5.94497">
        <ele>430.79998779297</ele>
        <time>2015-09-12T07:50:13.000Z</time>
      </trkpt>
      <trkpt lat="45.37431" lon="5.94499">
        <ele>431.60000610352</ele>
        <time>2015-09-12T07:50:20.000Z</time>
      </trkpt>
      <trkpt lat="45.37441" lon="5.945">
        <ele>432.20001220703</ele>
        <time>2015-09-12T07:50:25.000Z</time>
      </trkpt>
      <trkpt lat="45.37451" lon="5.945">
        <ele>433.39999389648</ele>
        <time>2015-09-12T07:50:30.000Z</time>
      </trkpt>
      <trkpt lat="45.37464" lon="5.94498">
        <ele>435.60000610352</ele>
        <time>2015-09-12T07:50:37.000Z</time>
      </trkpt>
      <trkpt lat="45.37473" lon="5.94494">
        <ele>437.60000610352</ele>
        <time>2015-09-12T07:50:42.000Z</time>
      </trkpt>
      <trkpt lat="45.37487" lon="5.94492">
        <ele>440</ele>
        <time>2015-09-12T07:50:50.000Z</time>
      </trkpt>
      <trkpt lat="45.37493" lon="5.94492">
        <ele>440.60000610352</ele>
        <time>2015-09-12T07:50:54.000Z</time>
      </trkpt>
      <trkpt lat="45.37502" lon="5.94491">
        <ele>441.79998779297</ele>
        <time>2015-09-12T07:51:00.000Z</time>
      </trkpt>
      <trkpt lat="45.37513" lon="5.94493">
        <ele>442.39999389648</ele>
        <time>2015-09-12T07:51:07.000Z</time>
      </trkpt>
      <trkpt lat="45.37528" lon="5.94496">
        <ele>442.60000610352</ele>
        <time>2015-09-12T07:51:15.000Z</time>
      </trkpt>
      <trkpt lat="45.37534" lon="5.94495">
        <ele>443.60000610352</ele>
        <time>2015-09-12T07:51:19.000Z</time>
      </trkpt>
      <trkpt lat="45.37545" lon="5.94499">
        <ele>443.60000610352</ele>
        <time>2015-09-12T07:51:25.000Z</time>
      </trkpt>
      <trkpt lat="45.37549" lon="5.94499">
        <ele>443.60000610352</ele>
        <time>2015-09-12T07:51:28.000Z</time>
      </trkpt>
      <trkpt lat="45.37559" lon="5.94498">
        <ele>444.20001220703</ele>
        <time>2015-09-12T07:51:35.000Z</time>
      </trkpt>
      <trkpt lat="45.37569" lon="5.94496">
        <ele>444.79998779297</ele>
        <time>2015-09-12T07:51:42.000Z</time>
      </trkpt>
      <trkpt lat="45.37576" lon="5.94493">
        <ele>446</ele>
        <time>2015-09-12T07:51:48.000Z</time>
      </trkpt>
      <trkpt lat="45.37577" lon="5.94492">
        <ele>446.39999389648</ele>
        <time>2015-09-12T07:51:49.000Z</time>
      </trkpt>
      <trkpt lat="45.37582" lon="5.94485">
        <ele>449</ele>
        <time>2015-09-12T07:51:55.000Z</time>
      </trkpt>
      <trkpt lat="45.37585" lon="5.94483">
        <ele>449.79998779297</ele>
        <time>2015-09-12T07:51:57.000Z</time>
      </trkpt>
      <trkpt lat="45.37587" lon="5.94482">
        <ele>450.20001220703</ele>
        <time>2015-09-12T07:51:59.000Z</time>
      </trkpt>
      <trkpt lat="45.37594" lon="5.9448">
        <ele>451.20001220703</ele>
        <time>2015-09-12T07:52:03.000Z</time>
      </trkpt>
      <trkpt lat="45.37597" lon="5.94479">
        <ele>451.79998779297</ele>
        <time>2015-09-12T07:52:05.000Z</time>
      </trkpt>
      <trkpt lat="45.37604" lon="5.94474">
        <ele>453.60000610352</ele>
        <time>2015-09-12T07:52:10.000Z</time>
      </trkpt>
      <trkpt lat="45.37616" lon="5.94465">
        <ele>457.39999389648</ele>
        <time>2015-09-12T07:52:17.000Z</time>
      </trkpt>
      <trkpt lat="45.37627" lon="5.94461">
        <ele>459.79998779297</ele>
        <time>2015-09-12T07:52:24.000Z</time>
      </trkpt>
      <trkpt lat="45.37636" lon="5.9446">
        <ele>461.39999389648</ele>
        <time>2015-09-12T07:52:30.000Z</time>
      </trkpt>
      <trkpt lat="45.37638" lon="5.9446">
        <ele>461.60000610352</ele>
        <time>2015-09-12T07:52:31.000Z</time>
      </trkpt>
      <trkpt lat="45.37645" lon="5.94459">
        <ele>462.60000610352</ele>
        <time>2015-09-12T07:52:35.000Z</time>
      </trkpt>
      <trkpt lat="45.37655" lon="5.94461">
        <ele>463.39999389648</ele>
        <time>2015-09-12T07:52:42.000Z</time>
      </trkpt>
      <trkpt lat="45.37656" lon="5.94461">
        <ele>463.60000610352</ele>
        <time>2015-09-12T07:52:43.000Z</time>
      </trkpt>
      <trkpt lat="45.37663" lon="5.9446">
        <ele>464.60000610352</ele>
        <time>2015-09-12T07:52:47.000Z</time>
      </trkpt>
      <trkpt lat="45.37665" lon="5.9446">
        <ele>465</ele>
        <time>2015-09-12T07:52:49.000Z</time>
      </trkpt>
      <trkpt lat="45.37673" lon="5.94458">
        <ele>466.79998779297</ele>
        <time>2015-09-12T07:52:55.000Z</time>
      </trkpt>
      <trkpt lat="45.37685" lon="5.94461">
        <ele>467.39999389648</ele>
        <time>2015-09-12T07:53:03.000Z</time>
      </trkpt>
      <trkpt lat="45.37692" lon="5.94464">
        <ele>467</ele>
        <time>2015-09-12T07:53:08.000Z</time>
      </trkpt>
      <trkpt lat="45.37702" lon="5.94468">
        <ele>466.60000610352</ele>
        <time>2015-09-12T07:53:14.000Z</time>
      </trkpt>
      <trkpt lat="45.37705" lon="5.94469">
        <ele>466.79998779297</ele>
        <time>2015-09-12T07:53:16.000Z</time>
      </trkpt>
      <trkpt lat="45.37718" lon="5.94467">
        <ele>469.39999389648</ele>
        <time>2015-09-12T07:53:23.000Z</time>
      </trkpt>
      <trkpt lat="45.37728" lon="5.94465">
        <ele>471.79998779297</ele>
        <time>2015-09-12T07:53:29.000Z</time>
      </trkpt>
      <trkpt lat="45.37736" lon="5.94465">
        <ele>473.79998779297</ele>
        <time>2015-09-12T07:53:36.000Z</time>
      </trkpt>
      <trkpt lat="45.37746" lon="5.94463">
        <ele>475.79998779297</ele>
        <time>2015-09-12T07:53:42.000Z</time>
      </trkpt>
      <trkpt lat="45.37753" lon="5.94464">
        <ele>477</ele>
        <time>2015-09-12T07:53:47.000Z</time>
      </trkpt>
      <trkpt lat="45.37762" lon="5.94467">
        <ele>477.20001220703</ele>
        <time>2015-09-12T07:53:53.000Z</time>
      </trkpt>
      <trkpt lat="45.3777" lon="5.94471">
        <ele>477.20001220703</ele>
        <time>2015-09-12T07:53:58.000Z</time>
      </trkpt>
      <trkpt lat="45.37779" lon="5.94472">
        <ele>478.39999389648</ele>
        <time>2015-09-12T07:54:04.000Z</time>
      </trkpt>
      <trkpt lat="45.37781" lon="5.94472">
        <ele>478.79998779297</ele>
        <time>2015-09-12T07:54:05.000Z</time>
      </trkpt>
      <trkpt lat="45.37792" lon="5.9447">
        <ele>481.60000610352</ele>
        <time>2015-09-12T07:54:11.000Z</time>
      </trkpt>
      <trkpt lat="45.37801" lon="5.94469">
        <ele>483.60000610352</ele>
        <time>2015-09-12T07:54:17.000Z</time>
      </trkpt>
      <trkpt lat="45.37803" lon="5.94469">
        <ele>483.79998779297</ele>
        <time>2015-09-12T07:54:18.000Z</time>
      </trkpt>
      <trkpt lat="45.37813" lon="5.94471">
        <ele>485.39999389648</ele>
        <time>2015-09-12T07:54:24.000Z</time>
      </trkpt>
      <trkpt lat="45.37816" lon="5.94472">
        <ele>486</ele>
        <time>2015-09-12T07:54:26.000Z</time>
      </trkpt>
      <trkpt lat="45.37825" lon="5.94473">
        <ele>487.39999389648</ele>
        <time>2015-09-12T07:54:32.000Z</time>
      </trkpt>
      <trkpt lat="45.37834" lon="5.94471">
        <ele>490.20001220703</ele>
        <time>2015-09-12T07:54:39.000Z</time>
      </trkpt>
      <trkpt lat="45.37839" lon="5.94468">
        <ele>492.79998779297</ele>
        <time>2015-09-12T07:54:43.000Z</time>
      </trkpt>
      <trkpt lat="45.37848" lon="5.94461">
        <ele>497</ele>
        <time>2015-09-12T07:54:51.000Z</time>
      </trkpt>
      <trkpt lat="45.37848" lon="5.94461">
        <ele>497.20001220703</ele>
        <time>2015-09-12T07:54:52.000Z</time>
      </trkpt>
      <trkpt lat="45.37853" lon="5.9446">
        <ele>498.79998779297</ele>
        <time>2015-09-12T07:54:56.000Z</time>
      </trkpt>
      <trkpt lat="45.37861" lon="5.9446">
        <ele>500.60000610352</ele>
        <time>2015-09-12T07:55:03.000Z</time>
      </trkpt>
      <trkpt lat="45.37869" lon="5.9446">
        <ele>502.79998779297</ele>
        <time>2015-09-12T07:55:09.000Z</time>
      </trkpt>
      <trkpt lat="45.37873" lon="5.9446">
        <ele>503.79998779297</ele>
        <time>2015-09-12T07:55:11.000Z</time>
      </trkpt>
      <trkpt lat="45.37876" lon="5.94461">
        <ele>504.60000610352</ele>
        <time>2015-09-12T07:55:14.000Z</time>
      </trkpt>
      <trkpt lat="45.37887" lon="5.94464">
        <ele>507</ele>
        <time>2015-09-12T07:55:21.000Z</time>
      </trkpt>
      <trkpt lat="45.37889" lon="5.94464">
        <ele>507.79998779297</ele>
        <time>2015-09-12T07:55:23.000Z</time>
      </trkpt>
      <trkpt lat="45.37894" lon="5.94466">
        <ele>508.20001220703</ele>
        <time>2015-09-12T07:55:27.000Z</time>
      </trkpt>
      <trkpt lat="45.37903" lon="5.94472">
        <ele>508.79998779297</ele>
        <time>2015-09-12T07:55:34.000Z</time>
      </trkpt>
      <trkpt lat="45.37903" lon="5.94473">
        <ele>508.60000610352</ele>
        <time>2015-09-12T07:55:35.000Z</time>
      </trkpt>
      <trkpt lat="45.3791" lon="5.94487">
        <ele>504.20001220703</ele>
        <time>2015-09-12T07:55:43.000Z</time>
      </trkpt>
      <trkpt lat="45.37914" lon="5.94498">
        <ele>500.20001220703</ele>
        <time>2015-09-12T07:55:49.000Z</time>
      </trkpt>
      <trkpt lat="45.3792" lon="5.94504">
        <ele>499.79998779297</ele>
        <time>2015-09-12T07:55:55.000Z</time>
      </trkpt>
      <trkpt lat="45.37931" lon="5.94507">
        <ele>502.39999389648</ele>
        <time>2015-09-12T07:56:02.000Z</time>
      </trkpt>
      <trkpt lat="45.37938" lon="5.94511">
        <ele>503.39999389648</ele>
        <time>2015-09-12T07:56:07.000Z</time>
      </trkpt>
      <trkpt lat="45.37949" lon="5.94516">
        <ele>505</ele>
        <time>2015-09-12T07:56:15.000Z</time>
      </trkpt>
      <trkpt lat="45.37957" lon="5.9452">
        <ele>505.79998779297</ele>
        <time>2015-09-12T07:56:21.000Z</time>
      </trkpt>
      <trkpt lat="45.37967" lon="5.94525">
        <ele>506.60000610352</ele>
        <time>2015-09-12T07:56:28.000Z</time>
      </trkpt>
      <trkpt lat="45.37977" lon="5.9453">
        <ele>507.20001220703</ele>
        <time>2015-09-12T07:56:34.000Z</time>
      </trkpt>
      <trkpt lat="45.3799" lon="5.94534">
        <ele>508.79998779297</ele>
        <time>2015-09-12T07:56:42.000Z</time>
      </trkpt>
      <trkpt lat="45.38001" lon="5.94538">
        <ele>510</ele>
        <time>2015-09-12T07:56:49.000Z</time>
      </trkpt>
      <trkpt lat="45.38012" lon="5.94542">
        <ele>511.60000610352</ele>
        <time>2015-09-12T07:56:56.000Z</time>
      </trkpt>
      <trkpt lat="45.38022" lon="5.94545">
        <ele>512.59997558594</ele>
        <time>2015-09-12T07:57:02.000Z</time>
      </trkpt>
      <trkpt lat="45.38033" lon="5.94547">
        <ele>514.59997558594</ele>
        <time>2015-09-12T07:57:09.000Z</time>
      </trkpt>
      <trkpt lat="45.38043" lon="5.94549">
        <ele>517.20001220703</ele>
        <time>2015-09-12T07:57:15.000Z</time>
      </trkpt>
      <trkpt lat="45.38056" lon="5.9455">
        <ele>520.20001220703</ele>
        <time>2015-09-12T07:57:23.000Z</time>
      </trkpt>
      <trkpt lat="45.38067" lon="5.94552">
        <ele>522</ele>
        <time>2015-09-12T07:57:31.000Z</time>
      </trkpt>
      <trkpt lat="45.38075" lon="5.94553">
        <ele>523</ele>
        <time>2015-09-12T07:57:36.000Z</time>
      </trkpt>
      <trkpt lat="45.38084" lon="5.94556">
        <ele>523.79998779297</ele>
        <time>2015-09-12T07:57:42.000Z</time>
      </trkpt>
      <trkpt lat="45.38086" lon="5.94556">
        <ele>524.40002441406</ele>
        <time>2015-09-12T07:57:43.000Z</time>
      </trkpt>
      <trkpt lat="45.3809" lon="5.94555">
        <ele>525.79998779297</ele>
        <time>2015-09-12T07:57:46.000Z</time>
      </trkpt>
      <trkpt lat="45.38095" lon="5.94555">
        <ele>527</ele>
        <time>2015-09-12T07:57:50.000Z</time>
      </trkpt>
      <trkpt lat="45.38106" lon="5.94556">
        <ele>529.40002441406</ele>
        <time>2015-09-12T07:57:57.000Z</time>
      </trkpt>
      <trkpt lat="45.38108" lon="5.94556">
        <ele>529.59997558594</ele>
        <time>2015-09-12T07:57:58.000Z</time>
      </trkpt>
      <trkpt lat="45.3812" lon="5.94558">
        <ele>531.59997558594</ele>
        <time>2015-09-12T07:58:05.000Z</time>
      </trkpt>
      <trkpt lat="45.38131" lon="5.9456">
        <ele>533.40002441406</ele>
        <time>2015-09-12T07:58:12.000Z</time>
      </trkpt>
      <trkpt lat="45.38142" lon="5.9456">
        <ele>536.40002441406</ele>
        <time>2015-09-12T07:58:19.000Z</time>
      </trkpt>
      <trkpt lat="45.38152" lon="5.94561">
        <ele>538.79998779297</ele>
        <time>2015-09-12T07:58:25.000Z</time>
      </trkpt>
      <trkpt lat="45.3816" lon="5.94562">
        <ele>540.40002441406</ele>
        <time>2015-09-12T07:58:31.000Z</time>
      </trkpt>
      <trkpt lat="45.38162" lon="5.94562">
        <ele>541</ele>
        <time>2015-09-12T07:58:32.000Z</time>
      </trkpt>
      <trkpt lat="45.38174" lon="5.94565">
        <ele>542.40002441406</ele>
        <time>2015-09-12T07:58:39.000Z</time>
      </trkpt>
      <trkpt lat="45.38183" lon="5.9457">
        <ele>542.40002441406</ele>
        <time>2015-09-12T07:58:45.000Z</time>
      </trkpt>
      <trkpt lat="45.38193" lon="5.94577">
        <ele>541.79998779297</ele>
        <time>2015-09-12T07:58:51.000Z</time>
      </trkpt>
      <trkpt lat="45.38205" lon="5.94585">
        <ele>540.40002441406</ele>
        <time>2015-09-12T07:58:58.000Z</time>
      </trkpt>
      <trkpt lat="45.38217" lon="5.94592">
        <ele>540.20001220703</ele>
        <time>2015-09-12T07:59:05.000Z</time>
      </trkpt>
      <trkpt lat="45.38224" lon="5.94592">
        <ele>541.59997558594</ele>
        <time>2015-09-12T07:59:09.000Z</time>
      </trkpt>
      <trkpt lat="45.38227" lon="5.94583">
        <ele>547.59997558594</ele>
        <time>2015-09-12T07:59:14.000Z</time>
      </trkpt>
      <trkpt lat="45.38225" lon="5.94581">
        <ele>547.79998779297</ele>
        <time>2015-09-12T07:59:16.000Z</time>
      </trkpt>
      <trkpt lat="45.38213" lon="5.94577">
        <ele>546.59997558594</ele>
        <time>2015-09-12T07:59:25.000Z</time>
      </trkpt>
      <trkpt lat="45.38205" lon="5.94568">
        <ele>549.79998779297</ele>
        <time>2015-09-12T07:59:32.000Z</time>
      </trkpt>
      <trkpt lat="45.38199" lon="5.94558">
        <ele>553.20001220703</ele>
        <time>2015-09-12T07:59:38.000Z</time>
      </trkpt>
      <trkpt lat="45.38196" lon="5.94551">
        <ele>556</ele>
        <time>2015-09-12T07:59:43.000Z</time>
      </trkpt>
      <trkpt lat="45.38195" lon="5.9455">
        <ele>556.59997558594</ele>
        <time>2015-09-12T07:59:44.000Z</time>
      </trkpt>
      <trkpt lat="45.38193" lon="5.94548">
        <ele>557</ele>
        <time>2015-09-12T07:59:45.000Z</time>
      </trkpt>
      <trkpt lat="45.38187" lon="5.94543">
        <ele>558.20001220703</ele>
        <time>2015-09-12T07:59:50.000Z</time>
      </trkpt>
      <trkpt lat="45.38182" lon="5.94539">
        <ele>559</ele>
        <time>2015-09-12T07:59:54.000Z</time>
      </trkpt>
      <trkpt lat="45.38176" lon="5.94533">
        <ele>560.20001220703</ele>
        <time>2015-09-12T07:59:59.000Z</time>
      </trkpt>
      <trkpt lat="45.38174" lon="5.94532">
        <ele>560.20001220703</ele>
        <time>2015-09-12T08:00:00.000Z</time>
      </trkpt>
      <trkpt lat="45.3817" lon="5.9453">
        <ele>560</ele>
        <time>2015-09-12T08:00:03.000Z</time>
      </trkpt>
      <trkpt lat="45.38169" lon="5.94529">
        <ele>560.59997558594</ele>
        <time>2015-09-12T08:00:05.000Z</time>
      </trkpt>
      <trkpt lat="45.38162" lon="5.94525">
        <ele>560.40002441406</ele>
        <time>2015-09-12T08:00:10.000Z</time>
      </trkpt>
      <trkpt lat="45.38149" lon="5.9452">
        <ele>559.40002441406</ele>
        <time>2015-09-12T08:00:18.000Z</time>
      </trkpt>
      <trkpt lat="45.38147" lon="5.9452">
        <ele>559.20001220703</ele>
        <time>2015-09-12T08:00:19.000Z</time>
      </trkpt>
      <trkpt lat="45.38143" lon="5.94517">
        <ele>559.40002441406</ele>
        <time>2015-09-12T08:00:22.000Z</time>
      </trkpt>
      <trkpt lat="45.38137" lon="5.94515">
        <ele>559.20001220703</ele>
        <time>2015-09-12T08:00:26.000Z</time>
      </trkpt>
      <trkpt lat="45.38132" lon="5.94511">
        <ele>559.79998779297</ele>
        <time>2015-09-12T08:00:30.000Z</time>
      </trkpt>
      <trkpt lat="45.38117" lon="5.94504">
        <ele>559.79998779297</ele>
        <time>2015-09-12T08:00:39.000Z</time>
      </trkpt>
      <trkpt lat="45.38105" lon="5.94497">
        <ele>560.79998779297</ele>
        <time>2015-09-12T08:00:47.000Z</time>
      </trkpt>
      <trkpt lat="45.38093" lon="5.94491">
        <ele>561.59997558594</ele>
        <time>2015-09-12T08:00:54.000Z</time>
      </trkpt>
      <trkpt lat="45.3808" lon="5.94484">
        <ele>562.20001220703</ele>
        <time>2015-09-12T08:01:02.000Z</time>
      </trkpt>
      <trkpt lat="45.38067" lon="5.94475">
        <ele>564</ele>
        <time>2015-09-12T08:01:10.000Z</time>
      </trkpt>
      <trkpt lat="45.38056" lon="5.94466">
        <ele>565.59997558594</ele>
        <time>2015-09-12T08:01:17.000Z</time>
      </trkpt>
      <trkpt lat="45.38048" lon="5.94459">
        <ele>566.79998779297</ele>
        <time>2015-09-12T08:01:23.000Z</time>
      </trkpt>
      <trkpt lat="45.38039" lon="5.94451">
        <ele>567.59997558594</ele>
        <time>2015-09-12T08:01:30.000Z</time>
      </trkpt>
      <trkpt lat="45.38036" lon="5.94447">
        <ele>568.20001220703</ele>
        <time>2015-09-12T08:01:33.000Z</time>
      </trkpt>
      <trkpt lat="45.38028" lon="5.94429">
        <ele>573.79998779297</ele>
        <time>2015-09-12T08:01:42.000Z</time>
      </trkpt>
      <trkpt lat="45.38026" lon="5.94415">
        <ele>579.40002441406</ele>
        <time>2015-09-12T08:01:49.000Z</time>
      </trkpt>
      <trkpt lat="45.38025" lon="5.944">
        <ele>586.20001220703</ele>
        <time>2015-09-12T08:01:54.000Z</time>
      </trkpt>
      <trkpt lat="45.38018" lon="5.94383">
        <ele>591.40002441406</ele>
        <time>2015-09-12T08:02:00.000Z</time>
      </trkpt>
      <trkpt lat="45.3801" lon="5.94375">
        <ele>592.20001220703</ele>
        <time>2015-09-12T08:02:06.000Z</time>
      </trkpt>
      <trkpt lat="45.38005" lon="5.94371">
        <ele>592</ele>
        <time>2015-09-12T08:02:10.000Z</time>
      </trkpt>
      <trkpt lat="45.37999" lon="5.94367">
        <ele>591.40002441406</ele>
        <time>2015-09-12T08:02:14.000Z</time>
      </trkpt>
      <trkpt lat="45.37997" lon="5.94366">
        <ele>591.40002441406</ele>
        <time>2015-09-12T08:02:15.000Z</time>
      </trkpt>
      <trkpt lat="45.3799" lon="5.94362">
        <ele>590.40002441406</ele>
        <time>2015-09-12T08:02:19.000Z</time>
      </trkpt>
      <trkpt lat="45.37979" lon="5.94359">
        <ele>587</ele>
        <time>2015-09-12T08:02:25.000Z</time>
      </trkpt>
      <trkpt lat="45.37967" lon="5.94357">
        <ele>582.79998779297</ele>
        <time>2015-09-12T08:02:32.000Z</time>
      </trkpt>
      <trkpt lat="45.37965" lon="5.94357">
        <ele>582.40002441406</ele>
        <time>2015-09-12T08:02:33.000Z</time>
      </trkpt>
      <trkpt lat="45.37953" lon="5.94349">
        <ele>583</ele>
        <time>2015-09-12T08:02:41.000Z</time>
      </trkpt>
      <trkpt lat="45.37943" lon="5.94342">
        <ele>583.40002441406</ele>
        <time>2015-09-12T08:02:48.000Z</time>
      </trkpt>
      <trkpt lat="45.3793" lon="5.94334">
        <ele>584.20001220703</ele>
        <time>2015-09-12T08:02:56.000Z</time>
      </trkpt>
      <trkpt lat="45.37921" lon="5.94327">
        <ele>585</ele>
        <time>2015-09-12T08:03:02.000Z</time>
      </trkpt>
      <trkpt lat="45.37906" lon="5.94322">
        <ele>583.79998779297</ele>
        <time>2015-09-12T08:03:11.000Z</time>
      </trkpt>
      <trkpt lat="45.37897" lon="5.94317">
        <ele>583.40002441406</ele>
        <time>2015-09-12T08:03:17.000Z</time>
      </trkpt>
      <trkpt lat="45.37888" lon="5.9431">
        <ele>584.40002441406</ele>
        <time>2015-09-12T08:03:24.000Z</time>
      </trkpt>
      <trkpt lat="45.37878" lon="5.94302">
        <ele>586.59997558594</ele>
        <time>2015-09-12T08:03:31.000Z</time>
      </trkpt>
      <trkpt lat="45.3787" lon="5.9429">
        <ele>591.59997558594</ele>
        <time>2015-09-12T08:03:38.000Z</time>
      </trkpt>
      <trkpt lat="45.37863" lon="5.94279">
        <ele>597.20001220703</ele>
        <time>2015-09-12T08:03:45.000Z</time>
      </trkpt>
      <trkpt lat="45.37856" lon="5.94271">
        <ele>600</ele>
        <time>2015-09-12T08:03:51.000Z</time>
      </trkpt>
      <trkpt lat="45.37851" lon="5.94266">
        <ele>601.79998779297</ele>
        <time>2015-09-12T08:03:55.000Z</time>
      </trkpt>
      <trkpt lat="45.37842" lon="5.94262">
        <ele>602</ele>
        <time>2015-09-12T08:04:01.000Z</time>
      </trkpt>
      <trkpt lat="45.37841" lon="5.94261">
        <ele>602</ele>
        <time>2015-09-12T08:04:02.000Z</time>
      </trkpt>
      <trkpt lat="45.37832" lon="5.94259">
        <ele>600.79998779297</ele>
        <time>2015-09-12T08:04:08.000Z</time>
      </trkpt>
      <trkpt lat="45.37829" lon="5.94258">
        <ele>600.40002441406</ele>
        <time>2015-09-12T08:04:10.000Z</time>
      </trkpt>
      <trkpt lat="45.37826" lon="5.94256">
        <ele>600.79998779297</ele>
        <time>2015-09-12T08:04:12.000Z</time>
      </trkpt>
      <trkpt lat="45.37814" lon="5.9425">
        <ele>600.79998779297</ele>
        <time>2015-09-12T08:04:19.000Z</time>
      </trkpt>
      <trkpt lat="45.37812" lon="5.94249">
        <ele>601.20001220703</ele>
        <time>2015-09-12T08:04:20.000Z</time>
      </trkpt>
      <trkpt lat="45.37803" lon="5.94243">
        <ele>602.40002441406</ele>
        <time>2015-09-12T08:04:26.000Z</time>
      </trkpt>
      <trkpt lat="45.37793" lon="5.94234">
        <ele>605</ele>
        <time>2015-09-12T08:04:32.000Z</time>
      </trkpt>
      <trkpt lat="45.37782" lon="5.94219">
        <ele>610.40002441406</ele>
        <time>2015-09-12T08:04:41.000Z</time>
      </trkpt>
      <trkpt lat="45.37781" lon="5.94218">
        <ele>611</ele>
        <time>2015-09-12T08:04:42.000Z</time>
      </trkpt>
      <trkpt lat="45.37779" lon="5.94214">
        <ele>612.20001220703</ele>
        <time>2015-09-12T08:04:44.000Z</time>
      </trkpt>
      <trkpt lat="45.37774" lon="5.94204">
        <ele>616</ele>
        <time>2015-09-12T08:04:51.000Z</time>
      </trkpt>
      <trkpt lat="45.37773" lon="5.94203">
        <ele>616</ele>
        <time>2015-09-12T08:04:52.000Z</time>
      </trkpt>
      <trkpt lat="45.37767" lon="5.94196">
        <ele>618</ele>
        <time>2015-09-12T08:04:57.000Z</time>
      </trkpt>
      <trkpt lat="45.37755" lon="5.9419">
        <ele>617.79998779297</ele>
        <time>2015-09-12T08:05:04.000Z</time>
      </trkpt>
      <trkpt lat="45.37749" lon="5.94188">
        <ele>616.79998779297</ele>
        <time>2015-09-12T08:05:08.000Z</time>
      </trkpt>
      <trkpt lat="45.37742" lon="5.94186">
        <ele>615.79998779297</ele>
        <time>2015-09-12T08:05:15.000Z</time>
      </trkpt>
      <trkpt lat="45.37738" lon="5.94183">
        <ele>616</ele>
        <time>2015-09-12T08:05:22.000Z</time>
      </trkpt>
      <trkpt lat="45.37732" lon="5.94184">
        <ele>613.20001220703</ele>
        <time>2015-09-12T08:05:26.000Z</time>
      </trkpt>
      <trkpt lat="45.37719" lon="5.94187">
        <ele>608</ele>
        <time>2015-09-12T08:05:33.000Z</time>
      </trkpt>
      <trkpt lat="45.37718" lon="5.94187">
        <ele>607.59997558594</ele>
        <time>2015-09-12T08:05:34.000Z</time>
      </trkpt>
      <trkpt lat="45.37708" lon="5.94189">
        <ele>605.40002441406</ele>
        <time>2015-09-12T08:05:40.000Z</time>
      </trkpt>
      <trkpt lat="45.37706" lon="5.94189">
        <ele>605.40002441406</ele>
        <time>2015-09-12T08:05:41.000Z</time>
      </trkpt>
      <trkpt lat="45.37689" lon="5.94188">
        <ele>605.40002441406</ele>
        <time>2015-09-12T08:05:50.000Z</time>
      </trkpt>
      <trkpt lat="45.37678" lon="5.94186">
        <ele>606.20001220703</ele>
        <time>2015-09-12T08:05:56.000Z</time>
      </trkpt>
      <trkpt lat="45.37665" lon="5.94182">
        <ele>607.20001220703</ele>
        <time>2015-09-12T08:06:03.000Z</time>
      </trkpt>
      <trkpt lat="45.37658" lon="5.94177">
        <ele>609.59997558594</ele>
        <time>2015-09-12T08:06:08.000Z</time>
      </trkpt>
      <trkpt lat="45.37647" lon="5.94172">
        <ele>611.79998779297</ele>
        <time>2015-09-12T08:06:14.000Z</time>
      </trkpt>
      <trkpt lat="45.37636" lon="5.94169">
        <ele>612.20001220703</ele>
        <time>2015-09-12T08:06:20.000Z</time>
      </trkpt>
      <trkpt lat="45.37625" lon="5.94166">
        <ele>612.79998779297</ele>
        <time>2015-09-12T08:06:27.000Z</time>
      </trkpt>
      <trkpt lat="45.37615" lon="5.94162">
        <ele>614.59997558594</ele>
        <time>2015-09-12T08:06:33.000Z</time>
      </trkpt>
      <trkpt lat="45.37609" lon="5.9416">
        <ele>615.40002441406</ele>
        <time>2015-09-12T08:06:39.000Z</time>
      </trkpt>
      <trkpt lat="45.37598" lon="5.94156">
        <ele>617.20001220703</ele>
        <time>2015-09-12T08:06:47.000Z</time>
      </trkpt>
      <trkpt lat="45.37588" lon="5.94153">
        <ele>618.20001220703</ele>
        <time>2015-09-12T08:06:53.000Z</time>
      </trkpt>
      <trkpt lat="45.37573" lon="5.9415">
        <ele>619</ele>
        <time>2015-09-12T08:07:00.000Z</time>
      </trkpt>
      <trkpt lat="45.37561" lon="5.94149">
        <ele>619</ele>
        <time>2015-09-12T08:07:07.000Z</time>
      </trkpt>
      <trkpt lat="45.37554" lon="5.94148">
        <ele>619</ele>
        <time>2015-09-12T08:07:11.000Z</time>
      </trkpt>
      <trkpt lat="45.3754" lon="5.94145">
        <ele>620.40002441406</ele>
        <time>2015-09-12T08:07:19.000Z</time>
      </trkpt>
      <trkpt lat="45.37531" lon="5.94143">
        <ele>621</ele>
        <time>2015-09-12T08:07:25.000Z</time>
      </trkpt>
      <trkpt lat="45.37521" lon="5.94139">
        <ele>622.40002441406</ele>
        <time>2015-09-12T08:07:32.000Z</time>
      </trkpt>
      <trkpt lat="45.37518" lon="5.94136">
        <ele>623</ele>
        <time>2015-09-12T08:07:34.000Z</time>
      </trkpt>
      <trkpt lat="45.37512" lon="5.9413">
        <ele>624.40002441406</ele>
        <time>2015-09-12T08:07:39.000Z</time>
      </trkpt>
      <trkpt lat="45.37504" lon="5.94121">
        <ele>626.59997558594</ele>
        <time>2015-09-12T08:07:46.000Z</time>
      </trkpt>
      <trkpt lat="45.37504" lon="5.94119">
        <ele>627</ele>
        <time>2015-09-12T08:07:47.000Z</time>
      </trkpt>
      <trkpt lat="45.37502" lon="5.94116">
        <ele>627.79998779297</ele>
        <time>2015-09-12T08:07:53.000Z</time>
      </trkpt>
      <trkpt lat="45.37498" lon="5.94114">
        <ele>628.40002441406</ele>
        <time>2015-09-12T08:08:08.000Z</time>
      </trkpt>
      <trkpt lat="45.37497" lon="5.94107">
        <ele>630.20001220703</ele>
        <time>2015-09-12T08:08:29.000Z</time>
      </trkpt>
      <trkpt lat="45.37497" lon="5.94107">
        <ele>630.40002441406</ele>
        <time>2015-09-12T08:09:02.000Z</time>
      </trkpt>
      <trkpt lat="45.37497" lon="5.94105">
        <ele>631</ele>
        <time>2015-09-12T08:09:07.000Z</time>
      </trkpt>
      <trkpt lat="45.37496" lon="5.94102">
        <ele>631.79998779297</ele>
        <time>2015-09-12T08:09:28.000Z</time>
      </trkpt>
      <trkpt lat="45.37496" lon="5.941">
        <ele>632.40002441406</ele>
        <time>2015-09-12T08:09:35.000Z</time>
      </trkpt>
      <trkpt lat="45.37496" lon="5.94094">
        <ele>633.79998779297</ele>
        <time>2015-09-12T08:10:11.000Z</time>
      </trkpt>
      <trkpt lat="45.37496" lon="5.94079">
        <ele>641.40002441406</ele>
        <time>2015-09-12T08:10:18.000Z</time>
      </trkpt>
      <trkpt lat="45.37496" lon="5.94066">
        <ele>649.79998779297</ele>
        <time>2015-09-12T08:10:24.000Z</time>
      </trkpt>
      <trkpt lat="45.37495" lon="5.94051">
        <ele>656.20001220703</ele>
        <time>2015-09-12T08:10:31.000Z</time>
      </trkpt>
      <trkpt lat="45.37495" lon="5.94049">
        <ele>656.40002441406</ele>
        <time>2015-09-12T08:10:32.000Z</time>
      </trkpt>
      <trkpt lat="45.37493" lon="5.94039">
        <ele>657.40002441406</ele>
        <time>2015-09-12T08:10:37.000Z</time>
      </trkpt>
      <trkpt lat="45.37493" lon="5.94037">
        <ele>657.79998779297</ele>
        <time>2015-09-12T08:10:38.000Z</time>
      </trkpt>
      <trkpt lat="45.37492" lon="5.94029">
        <ele>658.79998779297</ele>
        <time>2015-09-12T08:10:42.000Z</time>
      </trkpt>
      <trkpt lat="45.37492" lon="5.94024">
        <ele>659.59997558594</ele>
        <time>2015-09-12T08:10:45.000Z</time>
      </trkpt>
      <trkpt lat="45.37492" lon="5.94018">
        <ele>660.40002441406</ele>
        <time>2015-09-12T08:10:49.000Z</time>
      </trkpt>
      <trkpt lat="45.37491" lon="5.94007">
        <ele>662</ele>
        <time>2015-09-12T08:10:55.000Z</time>
      </trkpt>
      <trkpt lat="45.3749" lon="5.93994">
        <ele>665.20001220703</ele>
        <time>2015-09-12T08:11:02.000Z</time>
      </trkpt>
      <trkpt lat="45.3749" lon="5.93991">
        <ele>666</ele>
        <time>2015-09-12T08:11:03.000Z</time>
      </trkpt>
      <trkpt lat="45.37489" lon="5.93975">
        <ele>672</ele>
        <time>2015-09-12T08:11:10.000Z</time>
      </trkpt>
      <trkpt lat="45.37489" lon="5.93962">
        <ele>674.40002441406</ele>
        <time>2015-09-12T08:11:16.000Z</time>
      </trkpt>
      <trkpt lat="45.37489" lon="5.93952">
        <ele>676.59997558594</ele>
        <time>2015-09-12T08:11:20.000Z</time>
      </trkpt>
      <trkpt lat="45.37489" lon="5.93938">
        <ele>679.59997558594</ele>
        <time>2015-09-12T08:11:26.000Z</time>
      </trkpt>
      <trkpt lat="45.37489" lon="5.93935">
        <ele>680</ele>
        <time>2015-09-12T08:11:27.000Z</time>
      </trkpt>
      <trkpt lat="45.37487" lon="5.9392">
        <ele>681.79998779297</ele>
        <time>2015-09-12T08:11:34.000Z</time>
      </trkpt>
      <trkpt lat="45.37487" lon="5.93919">
        <ele>682</ele>
        <time>2015-09-12T08:11:35.000Z</time>
      </trkpt>
      <trkpt lat="45.37486" lon="5.93917">
        <ele>682.20001220703</ele>
        <time>2015-09-12T08:11:37.000Z</time>
      </trkpt>
      <trkpt lat="45.37486" lon="5.93904">
        <ele>685.20001220703</ele>
        <time>2015-09-12T08:11:44.000Z</time>
      </trkpt>
      <trkpt lat="45.37485" lon="5.93902">
        <ele>685.59997558594</ele>
        <time>2015-09-12T08:11:45.000Z</time>
      </trkpt>
      <trkpt lat="45.37485" lon="5.93886">
        <ele>689.40002441406</ele>
        <time>2015-09-12T08:11:53.000Z</time>
      </trkpt>
      <trkpt lat="45.37484" lon="5.93871">
        <ele>691</ele>
        <time>2015-09-12T08:12:00.000Z</time>
      </trkpt>
      <trkpt lat="45.37483" lon="5.93858">
        <ele>693</ele>
        <time>2015-09-12T08:12:06.000Z</time>
      </trkpt>
      <trkpt lat="45.37483" lon="5.93853">
        <ele>693.59997558594</ele>
        <time>2015-09-12T08:12:08.000Z</time>
      </trkpt>
      <trkpt lat="45.37482" lon="5.93846">
        <ele>694.20001220703</ele>
        <time>2015-09-12T08:12:12.000Z</time>
      </trkpt>
      <trkpt lat="45.37481" lon="5.93837">
        <ele>695</ele>
        <time>2015-09-12T08:12:16.000Z</time>
      </trkpt>
      <trkpt lat="45.3748" lon="5.93828">
        <ele>696.20001220703</ele>
        <time>2015-09-12T08:12:21.000Z</time>
      </trkpt>
      <trkpt lat="45.37479" lon="5.9381">
        <ele>699.20001220703</ele>
        <time>2015-09-12T08:12:29.000Z</time>
      </trkpt>
      <trkpt lat="45.37479" lon="5.93808">
        <ele>699.59997558594</ele>
        <time>2015-09-12T08:12:30.000Z</time>
      </trkpt>
      <trkpt lat="45.37479" lon="5.93792">
        <ele>700.59997558594</ele>
        <time>2015-09-12T08:12:36.000Z</time>
      </trkpt>
      <trkpt lat="45.37479" lon="5.93782">
        <ele>701.40002441406</ele>
        <time>2015-09-12T08:12:40.000Z</time>
      </trkpt>
      <trkpt lat="45.37484" lon="5.93763">
        <ele>705.79998779297</ele>
        <time>2015-09-12T08:12:49.000Z</time>
      </trkpt>
      <trkpt lat="45.37486" lon="5.93743">
        <ele>709.20001220703</ele>
        <time>2015-09-12T08:12:57.000Z</time>
      </trkpt>
      <trkpt lat="45.37486" lon="5.93729">
        <ele>712.59997558594</ele>
        <time>2015-09-12T08:13:03.000Z</time>
      </trkpt>
      <trkpt lat="45.37486" lon="5.93726">
        <ele>713</ele>
        <time>2015-09-12T08:13:04.000Z</time>
      </trkpt>
      <trkpt lat="45.37487" lon="5.93712">
        <ele>715.20001220703</ele>
        <time>2015-09-12T08:13:11.000Z</time>
      </trkpt>
      <trkpt lat="45.37487" lon="5.9371">
        <ele>715.20001220703</ele>
        <time>2015-09-12T08:13:12.000Z</time>
      </trkpt>
      <trkpt lat="45.37486" lon="5.93705">
        <ele>715.20001220703</ele>
        <time>2015-09-12T08:13:15.000Z</time>
      </trkpt>
      <trkpt lat="45.37483" lon="5.93695">
        <ele>712.59997558594</ele>
        <time>2015-09-12T08:13:21.000Z</time>
      </trkpt>
      <trkpt lat="45.37482" lon="5.93693">
        <ele>712.59997558594</ele>
        <time>2015-09-12T08:13:22.000Z</time>
      </trkpt>
      <trkpt lat="45.37481" lon="5.9368">
        <ele>712.40002441406</ele>
        <time>2015-09-12T08:13:29.000Z</time>
      </trkpt>
      <trkpt lat="45.37481" lon="5.93664">
        <ele>713.79998779297</ele>
        <time>2015-09-12T08:13:36.000Z</time>
      </trkpt>
      <trkpt lat="45.37481" lon="5.93662">
        <ele>713.79998779297</ele>
        <time>2015-09-12T08:13:37.000Z</time>
      </trkpt>
      <trkpt lat="45.37482" lon="5.93647">
        <ele>715.79998779297</ele>
        <time>2015-09-12T08:13:44.000Z</time>
      </trkpt>
      <trkpt lat="45.37483" lon="5.93636">
        <ele>717.79998779297</ele>
        <time>2015-09-12T08:13:49.000Z</time>
      </trkpt>
      <trkpt lat="45.37484" lon="5.93625">
        <ele>719.40002441406</ele>
        <time>2015-09-12T08:13:54.000Z</time>
      </trkpt>
      <trkpt lat="45.37487" lon="5.93613">
        <ele>722.40002441406</ele>
        <time>2015-09-12T08:14:00.000Z</time>
      </trkpt>
      <trkpt lat="45.37487" lon="5.9361">
        <ele>722.79998779297</ele>
        <time>2015-09-12T08:14:01.000Z</time>
      </trkpt>
      <trkpt lat="45.37487" lon="5.93596">
        <ele>724.20001220703</ele>
        <time>2015-09-12T08:14:08.000Z</time>
      </trkpt>
      <trkpt lat="45.37489" lon="5.93588">
        <ele>726</ele>
        <time>2015-09-12T08:14:12.000Z</time>
      </trkpt>
      <trkpt lat="45.3749" lon="5.93583">
        <ele>727.59997558594</ele>
        <time>2015-09-12T08:14:17.000Z</time>
      </trkpt>
      <trkpt lat="45.37496" lon="5.93588">
        <ele>732</ele>
        <time>2015-09-12T08:14:23.000Z</time>
      </trkpt>
      <trkpt lat="45.37496" lon="5.93589">
        <ele>732.40002441406</ele>
        <time>2015-09-12T08:14:24.000Z</time>
      </trkpt>
      <trkpt lat="45.37495" lon="5.93597">
        <ele>731</ele>
        <time>2015-09-12T08:14:30.000Z</time>
      </trkpt>
      <trkpt lat="45.37495" lon="5.93598">
        <ele>730.20001220703</ele>
        <time>2015-09-12T08:14:31.000Z</time>
      </trkpt>
      <trkpt lat="45.37493" lon="5.93609">
        <ele>728</ele>
        <time>2015-09-12T08:14:38.000Z</time>
      </trkpt>
      <trkpt lat="45.37493" lon="5.93613">
        <ele>728</ele>
        <time>2015-09-12T08:14:41.000Z</time>
      </trkpt>
      <trkpt lat="45.37496" lon="5.93622">
        <ele>730.20001220703</ele>
        <time>2015-09-12T08:14:49.000Z</time>
      </trkpt>
      <trkpt lat="45.37499" lon="5.93628">
        <ele>731.79998779297</ele>
        <time>2015-09-12T08:14:54.000Z</time>
      </trkpt>
      <trkpt lat="45.375" lon="5.93635">
        <ele>732.79998779297</ele>
        <time>2015-09-12T08:15:00.000Z</time>
      </trkpt>
      <trkpt lat="45.37502" lon="5.93645">
        <ele>733.59997558594</ele>
        <time>2015-09-12T08:15:06.000Z</time>
      </trkpt>
      <trkpt lat="45.37505" lon="5.93651">
        <ele>735.40002441406</ele>
        <time>2015-09-12T08:15:10.000Z</time>
      </trkpt>
      <trkpt lat="45.37508" lon="5.9366">
        <ele>737.40002441406</ele>
        <time>2015-09-12T08:15:16.000Z</time>
      </trkpt>
      <trkpt lat="45.37508" lon="5.93662">
        <ele>737.79998779297</ele>
        <time>2015-09-12T08:15:17.000Z</time>
      </trkpt>
      <trkpt lat="45.37511" lon="5.93671">
        <ele>740.20001220703</ele>
        <time>2015-09-12T08:15:22.000Z</time>
      </trkpt>
      <trkpt lat="45.37517" lon="5.9368">
        <ele>744.79998779297</ele>
        <time>2015-09-12T08:15:28.000Z</time>
      </trkpt>
      <trkpt lat="45.37523" lon="5.93692">
        <ele>748.59997558594</ele>
        <time>2015-09-12T08:15:35.000Z</time>
      </trkpt>
      <trkpt lat="45.37522" lon="5.93695">
        <ele>748.40002441406</ele>
        <time>2015-09-12T08:15:36.000Z</time>
      </trkpt>
      <trkpt lat="45.37523" lon="5.93703">
        <ele>748.59997558594</ele>
        <time>2015-09-12T08:15:39.000Z</time>
      </trkpt>
      <trkpt lat="45.37524" lon="5.93714">
        <ele>748.20001220703</ele>
        <time>2015-09-12T08:15:43.000Z</time>
      </trkpt>
      <trkpt lat="45.37524" lon="5.93724">
        <ele>747.20001220703</ele>
        <time>2015-09-12T08:15:47.000Z</time>
      </trkpt>
      <trkpt lat="45.37524" lon="5.9374">
        <ele>744.20001220703</ele>
        <time>2015-09-12T08:15:54.000Z</time>
      </trkpt>
      <trkpt lat="45.37525" lon="5.93755">
        <ele>741.40002441406</ele>
        <time>2015-09-12T08:16:00.000Z</time>
      </trkpt>
      <trkpt lat="45.37526" lon="5.93774">
        <ele>738.59997558594</ele>
        <time>2015-09-12T08:16:07.000Z</time>
      </trkpt>
      <trkpt lat="45.37526" lon="5.93781">
        <ele>737.20001220703</ele>
        <time>2015-09-12T08:16:10.000Z</time>
      </trkpt>
      <trkpt lat="45.37528" lon="5.93795">
        <ele>736.59997558594</ele>
        <time>2015-09-12T08:16:16.000Z</time>
      </trkpt>
      <trkpt lat="45.3753" lon="5.93806">
        <ele>737.40002441406</ele>
        <time>2015-09-12T08:16:21.000Z</time>
      </trkpt>
      <trkpt lat="45.37531" lon="5.93817">
        <ele>736.40002441406</ele>
        <time>2015-09-12T08:16:26.000Z</time>
      </trkpt>
      <trkpt lat="45.37535" lon="5.93829">
        <ele>736.59997558594</ele>
        <time>2015-09-12T08:16:32.000Z</time>
      </trkpt>
      <trkpt lat="45.37538" lon="5.93839">
        <ele>737</ele>
        <time>2015-09-12T08:16:36.000Z</time>
      </trkpt>
      <trkpt lat="45.37544" lon="5.93855">
        <ele>738</ele>
        <time>2015-09-12T08:16:43.000Z</time>
      </trkpt>
      <trkpt lat="45.37545" lon="5.93856">
        <ele>738.20001220703</ele>
        <time>2015-09-12T08:16:44.000Z</time>
      </trkpt>
      <trkpt lat="45.37547" lon="5.93863">
        <ele>738.59997558594</ele>
        <time>2015-09-12T08:16:48.000Z</time>
      </trkpt>
      <trkpt lat="45.37548" lon="5.93865">
        <ele>738.79998779297</ele>
        <time>2015-09-12T08:16:49.000Z</time>
      </trkpt>
      <trkpt lat="45.37554" lon="5.93874">
        <ele>740.79998779297</ele>
        <time>2015-09-12T08:16:54.000Z</time>
      </trkpt>
      <trkpt lat="45.37555" lon="5.93875">
        <ele>741</ele>
        <time>2015-09-12T08:16:55.000Z</time>
      </trkpt>
      <trkpt lat="45.37561" lon="5.93883">
        <ele>742.79998779297</ele>
        <time>2015-09-12T08:17:00.000Z</time>
      </trkpt>
      <trkpt lat="45.37566" lon="5.93889">
        <ele>744.59997558594</ele>
        <time>2015-09-12T08:17:04.000Z</time>
      </trkpt>
      <trkpt lat="45.37568" lon="5.93893">
        <ele>744.20001220703</ele>
        <time>2015-09-12T08:17:07.000Z</time>
      </trkpt>
      <trkpt lat="45.37575" lon="5.93905">
        <ele>742.20001220703</ele>
        <time>2015-09-12T08:17:14.000Z</time>
      </trkpt>
      <trkpt lat="45.3758" lon="5.93912">
        <ele>741</ele>
        <time>2015-09-12T08:17:20.000Z</time>
      </trkpt>
      <trkpt lat="45.37584" lon="5.93915">
        <ele>741.20001220703</ele>
        <time>2015-09-12T08:17:24.000Z</time>
      </trkpt>
      <trkpt lat="45.37588" lon="5.93921">
        <ele>740.59997558594</ele>
        <time>2015-09-12T08:17:28.000Z</time>
      </trkpt>
      <trkpt lat="45.37593" lon="5.93927">
        <ele>741</ele>
        <time>2015-09-12T08:17:32.000Z</time>
      </trkpt>
      <trkpt lat="45.37603" lon="5.93936">
        <ele>741.20001220703</ele>
        <time>2015-09-12T08:17:40.000Z</time>
      </trkpt>
      <trkpt lat="45.37608" lon="5.93944">
        <ele>740.59997558594</ele>
        <time>2015-09-12T08:17:45.000Z</time>
      </trkpt>
      <trkpt lat="45.37612" lon="5.93951">
        <ele>739.20001220703</ele>
        <time>2015-09-12T08:17:49.000Z</time>
      </trkpt>
      <trkpt lat="45.37622" lon="5.93968">
        <ele>736.59997558594</ele>
        <time>2015-09-12T08:17:57.000Z</time>
      </trkpt>
      <trkpt lat="45.3763" lon="5.93976">
        <ele>736.20001220703</ele>
        <time>2015-09-12T08:18:03.000Z</time>
      </trkpt>
      <trkpt lat="45.37638" lon="5.93983">
        <ele>732.40002441406</ele>
        <time>2015-09-12T08:18:09.000Z</time>
      </trkpt>
      <trkpt lat="45.37643" lon="5.93989">
        <ele>728.79998779297</ele>
        <time>2015-09-12T08:18:13.000Z</time>
      </trkpt>
      <trkpt lat="45.37649" lon="5.93992">
        <ele>727</ele>
        <time>2015-09-12T08:18:17.000Z</time>
      </trkpt>
      <trkpt lat="45.37654" lon="5.9399">
        <ele>728</ele>
        <time>2015-09-12T08:18:21.000Z</time>
      </trkpt>
      <trkpt lat="45.37655" lon="5.93984">
        <ele>731.59997558594</ele>
        <time>2015-09-12T08:18:26.000Z</time>
      </trkpt>
      <trkpt lat="45.37653" lon="5.93983">
        <ele>732.59997558594</ele>
        <time>2015-09-12T08:18:28.000Z</time>
      </trkpt>
      <trkpt lat="45.37647" lon="5.93982">
        <ele>733.20001220703</ele>
        <time>2015-09-12T08:18:34.000Z</time>
      </trkpt>
      <trkpt lat="45.37642" lon="5.9398">
        <ele>734.59997558594</ele>
        <time>2015-09-12T08:18:39.000Z</time>
      </trkpt>
      <trkpt lat="45.37639" lon="5.93979">
        <ele>735.20001220703</ele>
        <time>2015-09-12T08:18:41.000Z</time>
      </trkpt>
      <trkpt lat="45.37633" lon="5.93968">
        <ele>741.40002441406</ele>
        <time>2015-09-12T08:18:51.000Z</time>
      </trkpt>
      <trkpt lat="45.37629" lon="5.93956">
        <ele>746.40002441406</ele>
        <time>2015-09-12T08:18:59.000Z</time>
      </trkpt>
      <trkpt lat="45.37623" lon="5.93946">
        <ele>748.79998779297</ele>
        <time>2015-09-12T08:19:07.000Z</time>
      </trkpt>
      <trkpt lat="45.37622" lon="5.93943">
        <ele>749.40002441406</ele>
        <time>2015-09-12T08:19:09.000Z</time>
      </trkpt>
      <trkpt lat="45.37617" lon="5.93936">
        <ele>750.59997558594</ele>
        <time>2015-09-12T08:19:15.000Z</time>
      </trkpt>
      <trkpt lat="45.37615" lon="5.93934">
        <ele>750</ele>
        <time>2015-09-12T08:19:18.000Z</time>
      </trkpt>
      <trkpt lat="45.37609" lon="5.93925">
        <ele>752.20001220703</ele>
        <time>2015-09-12T08:19:25.000Z</time>
      </trkpt>
      <trkpt lat="45.37603" lon="5.93915">
        <ele>753.79998779297</ele>
        <time>2015-09-12T08:19:31.000Z</time>
      </trkpt>
      <trkpt lat="45.376" lon="5.9391">
        <ele>754.59997558594</ele>
        <time>2015-09-12T08:19:35.000Z</time>
      </trkpt>
      <trkpt lat="45.37596" lon="5.93904">
        <ele>755.40002441406</ele>
        <time>2015-09-12T08:19:41.000Z</time>
      </trkpt>
      <trkpt lat="45.37594" lon="5.939">
        <ele>756.20001220703</ele>
        <time>2015-09-12T08:19:44.000Z</time>
      </trkpt>
      <trkpt lat="45.37592" lon="5.93895">
        <ele>758.59997558594</ele>
        <time>2015-09-12T08:19:47.000Z</time>
      </trkpt>
      <trkpt lat="45.3759" lon="5.93889">
        <ele>759.79998779297</ele>
        <time>2015-09-12T08:19:52.000Z</time>
      </trkpt>
      <trkpt lat="45.37589" lon="5.93887">
        <ele>759.20001220703</ele>
        <time>2015-09-12T08:19:53.000Z</time>
      </trkpt>
      <trkpt lat="45.37587" lon="5.93879">
        <ele>760.20001220703</ele>
        <time>2015-09-12T08:19:57.000Z</time>
      </trkpt>
      <trkpt lat="45.37587" lon="5.93877">
        <ele>760.40002441406</ele>
        <time>2015-09-12T08:19:58.000Z</time>
      </trkpt>
      <trkpt lat="45.37586" lon="5.93868">
        <ele>762</ele>
        <time>2015-09-12T08:20:03.000Z</time>
      </trkpt>
      <trkpt lat="45.37585" lon="5.9386">
        <ele>762.59997558594</ele>
        <time>2015-09-12T08:20:07.000Z</time>
      </trkpt>
      <trkpt lat="45.37584" lon="5.93854">
        <ele>763.20001220703</ele>
        <time>2015-09-12T08:20:11.000Z</time>
      </trkpt>
      <trkpt lat="45.37583" lon="5.93844">
        <ele>764.79998779297</ele>
        <time>2015-09-12T08:20:16.000Z</time>
      </trkpt>
      <trkpt lat="45.3758" lon="5.93834">
        <ele>766.59997558594</ele>
        <time>2015-09-12T08:20:21.000Z</time>
      </trkpt>
      <trkpt lat="45.3758" lon="5.93829">
        <ele>768.59997558594</ele>
        <time>2015-09-12T08:20:23.000Z</time>
      </trkpt>
      <trkpt lat="45.3758" lon="5.93821">
        <ele>771.40002441406</ele>
        <time>2015-09-12T08:20:26.000Z</time>
      </trkpt>
      <trkpt lat="45.37578" lon="5.93806">
        <ele>776.20001220703</ele>
        <time>2015-09-12T08:20:33.000Z</time>
      </trkpt>
      <trkpt lat="45.37576" lon="5.93793">
        <ele>778</ele>
        <time>2015-09-12T08:20:38.000Z</time>
      </trkpt>
      <trkpt lat="45.37576" lon="5.93782">
        <ele>780</ele>
        <time>2015-09-12T08:20:43.000Z</time>
      </trkpt>
      <trkpt lat="45.37572" lon="5.93762">
        <ele>781.40002441406</ele>
        <time>2015-09-12T08:20:51.000Z</time>
      </trkpt>
      <trkpt lat="45.37572" lon="5.9376">
        <ele>781.40002441406</ele>
        <time>2015-09-12T08:20:52.000Z</time>
      </trkpt>
      <trkpt lat="45.37572" lon="5.93745">
        <ele>784.59997558594</ele>
        <time>2015-09-12T08:20:59.000Z</time>
      </trkpt>
      <trkpt lat="45.37572" lon="5.93743">
        <ele>784.59997558594</ele>
        <time>2015-09-12T08:21:00.000Z</time>
      </trkpt>
      <trkpt lat="45.37571" lon="5.9374">
        <ele>784.40002441406</ele>
        <time>2015-09-12T08:21:01.000Z</time>
      </trkpt>
      <trkpt lat="45.37571" lon="5.93734">
        <ele>785.40002441406</ele>
        <time>2015-09-12T08:21:04.000Z</time>
      </trkpt>
      <trkpt lat="45.3757" lon="5.93724">
        <ele>786.40002441406</ele>
        <time>2015-09-12T08:21:08.000Z</time>
      </trkpt>
      <trkpt lat="45.37571" lon="5.93706">
        <ele>788</ele>
        <time>2015-09-12T08:21:15.000Z</time>
      </trkpt>
      <trkpt lat="45.3757" lon="5.93704">
        <ele>787.59997558594</ele>
        <time>2015-09-12T08:21:16.000Z</time>
      </trkpt>
      <trkpt lat="45.37571" lon="5.93687">
        <ele>788.79998779297</ele>
        <time>2015-09-12T08:21:22.000Z</time>
      </trkpt>
      <trkpt lat="45.37572" lon="5.93663">
        <ele>791.59997558594</ele>
        <time>2015-09-12T08:21:30.000Z</time>
      </trkpt>
      <trkpt lat="45.37572" lon="5.9366">
        <ele>791.59997558594</ele>
        <time>2015-09-12T08:21:31.000Z</time>
      </trkpt>
      <trkpt lat="45.37573" lon="5.93647">
        <ele>792.79998779297</ele>
        <time>2015-09-12T08:21:37.000Z</time>
      </trkpt>
      <trkpt lat="45.37573" lon="5.93646">
        <ele>792.79998779297</ele>
        <time>2015-09-12T08:21:38.000Z</time>
      </trkpt>
      <trkpt lat="45.37574" lon="5.93638">
        <ele>793</ele>
        <time>2015-09-12T08:21:42.000Z</time>
      </trkpt>
      <trkpt lat="45.37573" lon="5.9363">
        <ele>792.40002441406</ele>
        <time>2015-09-12T08:21:47.000Z</time>
      </trkpt>
      <trkpt lat="45.37573" lon="5.93629">
        <ele>792.20001220703</ele>
        <time>2015-09-12T08:21:48.000Z</time>
      </trkpt>
      <trkpt lat="45.37573" lon="5.93628">
        <ele>792.20001220703</ele>
        <time>2015-09-12T08:21:49.000Z</time>
      </trkpt>
      <trkpt lat="45.37573" lon="5.93618">
        <ele>792.40002441406</ele>
        <time>2015-09-12T08:21:55.000Z</time>
      </trkpt>
      <trkpt lat="45.37573" lon="5.93616">
        <ele>792.20001220703</ele>
        <time>2015-09-12T08:21:56.000Z</time>
      </trkpt>
      <trkpt lat="45.37572" lon="5.93612">
        <ele>791.79998779297</ele>
        <time>2015-09-12T08:21:59.000Z</time>
      </trkpt>
      <trkpt lat="45.37572" lon="5.93609">
        <ele>791.20001220703</ele>
        <time>2015-09-12T08:22:02.000Z</time>
      </trkpt>
      <trkpt lat="45.37567" lon="5.936">
        <ele>787.40002441406</ele>
        <time>2015-09-12T08:22:08.000Z</time>
      </trkpt>
      <trkpt lat="45.37562" lon="5.93589">
        <ele>784</ele>
        <time>2015-09-12T08:22:15.000Z</time>
      </trkpt>
      <trkpt lat="45.37562" lon="5.93587">
        <ele>783.59997558594</ele>
        <time>2015-09-12T08:22:16.000Z</time>
      </trkpt>
      <trkpt lat="45.37562" lon="5.93586">
        <ele>783.40002441406</ele>
        <time>2015-09-12T08:22:17.000Z</time>
      </trkpt>
      <trkpt lat="45.37558" lon="5.93574">
        <ele>781</ele>
        <time>2015-09-12T08:22:23.000Z</time>
      </trkpt>
      <trkpt lat="45.37558" lon="5.93572">
        <ele>780.79998779297</ele>
        <time>2015-09-12T08:22:24.000Z</time>
      </trkpt>
      <trkpt lat="45.37558" lon="5.93566">
        <ele>780.40002441406</ele>
        <time>2015-09-12T08:22:27.000Z</time>
      </trkpt>
      <trkpt lat="45.37558" lon="5.93552">
        <ele>782</ele>
        <time>2015-09-12T08:22:35.000Z</time>
      </trkpt>
      <trkpt lat="45.37557" lon="5.93542">
        <ele>783.40002441406</ele>
        <time>2015-09-12T08:22:39.000Z</time>
      </trkpt>
      <trkpt lat="45.37556" lon="5.93537">
        <ele>784.20001220703</ele>
        <time>2015-09-12T08:22:41.000Z</time>
      </trkpt>
      <trkpt lat="45.37554" lon="5.93519">
        <ele>786</ele>
        <time>2015-09-12T08:22:48.000Z</time>
      </trkpt>
      <trkpt lat="45.37552" lon="5.93507">
        <ele>787.20001220703</ele>
        <time>2015-09-12T08:22:54.000Z</time>
      </trkpt>
      <trkpt lat="45.37549" lon="5.93496">
        <ele>787.59997558594</ele>
        <time>2015-09-12T08:23:00.000Z</time>
      </trkpt>
      <trkpt lat="45.37548" lon="5.93489">
        <ele>788.40002441406</ele>
        <time>2015-09-12T08:23:03.000Z</time>
      </trkpt>
      <trkpt lat="45.37546" lon="5.93476">
        <ele>790.40002441406</ele>
        <time>2015-09-12T08:23:10.000Z</time>
      </trkpt>
      <trkpt lat="45.37548" lon="5.93456">
        <ele>791.40002441406</ele>
        <time>2015-09-12T08:23:19.000Z</time>
      </trkpt>
      <trkpt lat="45.37549" lon="5.93437">
        <ele>791</ele>
        <time>2015-09-12T08:23:27.000Z</time>
      </trkpt>
      <trkpt lat="45.37549" lon="5.93422">
        <ele>790.79998779297</ele>
        <time>2015-09-12T08:23:34.000Z</time>
      </trkpt>
      <trkpt lat="45.37551" lon="5.93413">
        <ele>791.40002441406</ele>
        <time>2015-09-12T08:23:39.000Z</time>
      </trkpt>
      <trkpt lat="45.37556" lon="5.93404">
        <ele>793.79998779297</ele>
        <time>2015-09-12T08:23:45.000Z</time>
      </trkpt>
      <trkpt lat="45.37557" lon="5.93403">
        <ele>794.20001220703</ele>
        <time>2015-09-12T08:23:46.000Z</time>
      </trkpt>
      <trkpt lat="45.37562" lon="5.93399">
        <ele>796.40002441406</ele>
        <time>2015-09-12T08:23:50.000Z</time>
      </trkpt>
      <trkpt lat="45.37568" lon="5.93395">
        <ele>799.20001220703</ele>
        <time>2015-09-12T08:23:54.000Z</time>
      </trkpt>
      <trkpt lat="45.37573" lon="5.93393">
        <ele>801.40002441406</ele>
        <time>2015-09-12T08:23:58.000Z</time>
      </trkpt>
      <trkpt lat="45.37578" lon="5.93389">
        <ele>803.59997558594</ele>
        <time>2015-09-12T08:24:03.000Z</time>
      </trkpt>
      <trkpt lat="45.37583" lon="5.93382">
        <ele>804.59997558594</ele>
        <time>2015-09-12T08:24:08.000Z</time>
      </trkpt>
      <trkpt lat="45.37585" lon="5.93378">
        <ele>805</ele>
        <time>2015-09-12T08:24:11.000Z</time>
      </trkpt>
      <trkpt lat="45.37591" lon="5.93367">
        <ele>806</ele>
        <time>2015-09-12T08:24:17.000Z</time>
      </trkpt>
      <trkpt lat="45.37595" lon="5.93356">
        <ele>805.79998779297</ele>
        <time>2015-09-12T08:24:22.000Z</time>
      </trkpt>
      <trkpt lat="45.37596" lon="5.93354">
        <ele>805.79998779297</ele>
        <time>2015-09-12T08:24:23.000Z</time>
      </trkpt>
      <trkpt lat="45.37597" lon="5.9335">
        <ele>806</ele>
        <time>2015-09-12T08:24:25.000Z</time>
      </trkpt>
      <trkpt lat="45.37598" lon="5.93346">
        <ele>805.59997558594</ele>
        <time>2015-09-12T08:24:27.000Z</time>
      </trkpt>
      <trkpt lat="45.37599" lon="5.93342">
        <ele>805.20001220703</ele>
        <time>2015-09-12T08:24:29.000Z</time>
      </trkpt>
      <trkpt lat="45.37606" lon="5.9333">
        <ele>806.40002441406</ele>
        <time>2015-09-12T08:24:34.000Z</time>
      </trkpt>
      <trkpt lat="45.37613" lon="5.93314">
        <ele>806.40002441406</ele>
        <time>2015-09-12T08:24:41.000Z</time>
      </trkpt>
      <trkpt lat="45.37616" lon="5.93308">
        <ele>806.59997558594</ele>
        <time>2015-09-12T08:24:44.000Z</time>
      </trkpt>
      <trkpt lat="45.37619" lon="5.93304">
        <ele>807.59997558594</ele>
        <time>2015-09-12T08:24:47.000Z</time>
      </trkpt>
      <trkpt lat="45.37626" lon="5.93291">
        <ele>807.79998779297</ele>
        <time>2015-09-12T08:24:55.000Z</time>
      </trkpt>
      <trkpt lat="45.37629" lon="5.93281">
        <ele>807</ele>
        <time>2015-09-12T08:25:02.000Z</time>
      </trkpt>
      <trkpt lat="45.3763" lon="5.9328">
        <ele>807</ele>
        <time>2015-09-12T08:25:03.000Z</time>
      </trkpt>
      <trkpt lat="45.37636" lon="5.93272">
        <ele>808.79998779297</ele>
        <time>2015-09-12T08:25:08.000Z</time>
      </trkpt>
      <trkpt lat="45.37637" lon="5.9327">
        <ele>808.79998779297</ele>
        <time>2015-09-12T08:25:09.000Z</time>
      </trkpt>
      <trkpt lat="45.37638" lon="5.93268">
        <ele>809</ele>
        <time>2015-09-12T08:25:10.000Z</time>
      </trkpt>
      <trkpt lat="45.37646" lon="5.9326">
        <ele>811.79998779297</ele>
        <time>2015-09-12T08:25:16.000Z</time>
      </trkpt>
      <trkpt lat="45.37657" lon="5.93251">
        <ele>816.79998779297</ele>
        <time>2015-09-12T08:25:22.000Z</time>
      </trkpt>
      <trkpt lat="45.37664" lon="5.93244">
        <ele>819.20001220703</ele>
        <time>2015-09-12T08:25:26.000Z</time>
      </trkpt>
      <trkpt lat="45.37673" lon="5.93234">
        <ele>822.79998779297</ele>
        <time>2015-09-12T08:25:32.000Z</time>
      </trkpt>
      <trkpt lat="45.37678" lon="5.93226">
        <ele>823.59997558594</ele>
        <time>2015-09-12T08:25:36.000Z</time>
      </trkpt>
      <trkpt lat="45.37683" lon="5.93213">
        <ele>823.40002441406</ele>
        <time>2015-09-12T08:25:42.000Z</time>
      </trkpt>
      <trkpt lat="45.37689" lon="5.93198">
        <ele>822.59997558594</ele>
        <time>2015-09-12T08:25:48.000Z</time>
      </trkpt>
      <trkpt lat="45.37696" lon="5.93179">
        <ele>820</ele>
        <time>2015-09-12T08:25:55.000Z</time>
      </trkpt>
      <trkpt lat="45.37705" lon="5.9317">
        <ele>822.20001220703</ele>
        <time>2015-09-12T08:26:02.000Z</time>
      </trkpt>
      <trkpt lat="45.37715" lon="5.93167">
        <ele>826.40002441406</ele>
        <time>2015-09-12T08:26:08.000Z</time>
      </trkpt>
      <trkpt lat="45.37726" lon="5.93165">
        <ele>829.79998779297</ele>
        <time>2015-09-12T08:26:13.000Z</time>
      </trkpt>
      <trkpt lat="45.37738" lon="5.93158">
        <ele>831.59997558594</ele>
        <time>2015-09-12T08:26:19.000Z</time>
      </trkpt>
      <trkpt lat="45.37747" lon="5.93152">
        <ele>832.40002441406</ele>
        <time>2015-09-12T08:26:25.000Z</time>
      </trkpt>
      <trkpt lat="45.37755" lon="5.93148">
        <ele>833.79998779297</ele>
        <time>2015-09-12T08:26:31.000Z</time>
      </trkpt>
      <trkpt lat="45.37766" lon="5.93146">
        <ele>836.79998779297</ele>
        <time>2015-09-12T08:26:37.000Z</time>
      </trkpt>
      <trkpt lat="45.37778" lon="5.93145">
        <ele>841</ele>
        <time>2015-09-12T08:26:43.000Z</time>
      </trkpt>
      <trkpt lat="45.3778" lon="5.93144">
        <ele>841.20001220703</ele>
        <time>2015-09-12T08:26:44.000Z</time>
      </trkpt>
      <trkpt lat="45.37789" lon="5.9314">
        <ele>842.79998779297</ele>
        <time>2015-09-12T08:26:50.000Z</time>
      </trkpt>
      <trkpt lat="45.37797" lon="5.93133">
        <ele>843</ele>
        <time>2015-09-12T08:26:55.000Z</time>
      </trkpt>
      <trkpt lat="45.37799" lon="5.93131">
        <ele>842.59997558594</ele>
        <time>2015-09-12T08:26:57.000Z</time>
      </trkpt>
      <trkpt lat="45.37806" lon="5.9312">
        <ele>839.59997558594</ele>
        <time>2015-09-12T08:27:02.000Z</time>
      </trkpt>
      <trkpt lat="45.3781" lon="5.93117">
        <ele>838.40002441406</ele>
        <time>2015-09-12T08:27:05.000Z</time>
      </trkpt>
      <trkpt lat="45.37816" lon="5.93108">
        <ele>836</ele>
        <time>2015-09-12T08:27:11.000Z</time>
      </trkpt>
      <trkpt lat="45.37817" lon="5.93107">
        <ele>835.59997558594</ele>
        <time>2015-09-12T08:27:12.000Z</time>
      </trkpt>
      <trkpt lat="45.3783" lon="5.93101">
        <ele>834.59997558594</ele>
        <time>2015-09-12T08:27:20.000Z</time>
      </trkpt>
      <trkpt lat="45.37839" lon="5.93103">
        <ele>836.40002441406</ele>
        <time>2015-09-12T08:27:26.000Z</time>
      </trkpt>
      <trkpt lat="45.37847" lon="5.93105">
        <ele>838.20001220703</ele>
        <time>2015-09-12T08:27:31.000Z</time>
      </trkpt>
      <trkpt lat="45.37855" lon="5.93108">
        <ele>840</ele>
        <time>2015-09-12T08:27:35.000Z</time>
      </trkpt>
      <trkpt lat="45.37865" lon="5.93108">
        <ele>841.79998779297</ele>
        <time>2015-09-12T08:27:40.000Z</time>
      </trkpt>
      <trkpt lat="45.3788" lon="5.93106">
        <ele>843.79998779297</ele>
        <time>2015-09-12T08:27:48.000Z</time>
      </trkpt>
      <trkpt lat="45.37882" lon="5.93106">
        <ele>844.20001220703</ele>
        <time>2015-09-12T08:27:49.000Z</time>
      </trkpt>
      <trkpt lat="45.37893" lon="5.93108">
        <ele>845.79998779297</ele>
        <time>2015-09-12T08:27:54.000Z</time>
      </trkpt>
      <trkpt lat="45.37895" lon="5.93109">
        <ele>846.20001220703</ele>
        <time>2015-09-12T08:27:56.000Z</time>
      </trkpt>
      <trkpt lat="45.37903" lon="5.93105">
        <ele>846</ele>
        <time>2015-09-12T08:28:01.000Z</time>
      </trkpt>
      <trkpt lat="45.3791" lon="5.93099">
        <ele>844.79998779297</ele>
        <time>2015-09-12T08:28:07.000Z</time>
      </trkpt>
      <trkpt lat="45.37917" lon="5.93096">
        <ele>844.59997558594</ele>
        <time>2015-09-12T08:28:11.000Z</time>
      </trkpt>
      <trkpt lat="45.37931" lon="5.93095">
        <ele>846.20001220703</ele>
        <time>2015-09-12T08:28:18.000Z</time>
      </trkpt>
      <trkpt lat="45.3794" lon="5.93096">
        <ele>847.40002441406</ele>
        <time>2015-09-12T08:28:23.000Z</time>
      </trkpt>
      <trkpt lat="45.37951" lon="5.93096">
        <ele>849</ele>
        <time>2015-09-12T08:28:29.000Z</time>
      </trkpt>
      <trkpt lat="45.37961" lon="5.93097">
        <ele>850.40002441406</ele>
        <time>2015-09-12T08:28:35.000Z</time>
      </trkpt>
      <trkpt lat="45.37974" lon="5.93099">
        <ele>852.59997558594</ele>
        <time>2015-09-12T08:28:42.000Z</time>
      </trkpt>
      <trkpt lat="45.37982" lon="5.93099">
        <ele>853.79998779297</ele>
        <time>2015-09-12T08:28:47.000Z</time>
      </trkpt>
      <trkpt lat="45.37988" lon="5.93098">
        <ele>854.40002441406</ele>
        <time>2015-09-12T08:28:52.000Z</time>
      </trkpt>
      <trkpt lat="45.37994" lon="5.93096">
        <ele>854.40002441406</ele>
        <time>2015-09-12T08:28:57.000Z</time>
      </trkpt>
      <trkpt lat="45.37995" lon="5.93094">
        <ele>854.40002441406</ele>
        <time>2015-09-12T08:28:58.000Z</time>
      </trkpt>
      <trkpt lat="45.38003" lon="5.93091">
        <ele>854.59997558594</ele>
        <time>2015-09-12T08:29:03.000Z</time>
      </trkpt>
      <trkpt lat="45.38005" lon="5.93091">
        <ele>854.59997558594</ele>
        <time>2015-09-12T08:29:05.000Z</time>
      </trkpt>
      <trkpt lat="45.38016" lon="5.9309">
        <ele>856</ele>
        <time>2015-09-12T08:29:11.000Z</time>
      </trkpt>
      <trkpt lat="45.38017" lon="5.93089">
        <ele>856</ele>
        <time>2015-09-12T08:29:12.000Z</time>
      </trkpt>
      <trkpt lat="45.38022" lon="5.9309">
        <ele>856.79998779297</ele>
        <time>2015-09-12T08:29:17.000Z</time>
      </trkpt>
      <trkpt lat="45.38031" lon="5.93093">
        <ele>858.79998779297</ele>
        <time>2015-09-12T08:29:23.000Z</time>
      </trkpt>
      <trkpt lat="45.38038" lon="5.93096">
        <ele>860.40002441406</ele>
        <time>2015-09-12T08:29:27.000Z</time>
      </trkpt>
      <trkpt lat="45.38041" lon="5.93098">
        <ele>861.20001220703</ele>
        <time>2015-09-12T08:29:30.000Z</time>
      </trkpt>
      <trkpt lat="45.38044" lon="5.93098">
        <ele>862</ele>
        <time>2015-09-12T08:29:32.000Z</time>
      </trkpt>
      <trkpt lat="45.38056" lon="5.93102">
        <ele>862.59997558594</ele>
        <time>2015-09-12T08:29:38.000Z</time>
      </trkpt>
      <trkpt lat="45.3807" lon="5.93105">
        <ele>862.20001220703</ele>
        <time>2015-09-12T08:29:44.000Z</time>
      </trkpt>
      <trkpt lat="45.38084" lon="5.93109">
        <ele>862</ele>
        <time>2015-09-12T08:29:50.000Z</time>
      </trkpt>
      <trkpt lat="45.38096" lon="5.93114">
        <ele>862.20001220703</ele>
        <time>2015-09-12T08:29:57.000Z</time>
      </trkpt>
      <trkpt lat="45.38105" lon="5.93116">
        <ele>862.20001220703</ele>
        <time>2015-09-12T08:30:02.000Z</time>
      </trkpt>
      <trkpt lat="45.38118" lon="5.9312">
        <ele>863.20001220703</ele>
        <time>2015-09-12T08:30:07.000Z</time>
      </trkpt>
      <trkpt lat="45.38127" lon="5.93124">
        <ele>864.40002441406</ele>
        <time>2015-09-12T08:30:11.000Z</time>
      </trkpt>
      <trkpt lat="45.3814" lon="5.9313">
        <ele>864.79998779297</ele>
        <time>2015-09-12T08:30:17.000Z</time>
      </trkpt>
      <trkpt lat="45.38143" lon="5.93131">
        <ele>864.59997558594</ele>
        <time>2015-09-12T08:30:18.000Z</time>
      </trkpt>
      <trkpt lat="45.3816" lon="5.93136">
        <ele>864</ele>
        <time>2015-09-12T08:30:24.000Z</time>
      </trkpt>
      <trkpt lat="45.38169" lon="5.93139">
        <ele>863.59997558594</ele>
        <time>2015-09-12T08:30:28.000Z</time>
      </trkpt>
      <trkpt lat="45.38178" lon="5.93143">
        <ele>863.20001220703</ele>
        <time>2015-09-12T08:30:32.000Z</time>
      </trkpt>
      <trkpt lat="45.38187" lon="5.93149">
        <ele>863</ele>
        <time>2015-09-12T08:30:38.000Z</time>
      </trkpt>
      <trkpt lat="45.38189" lon="5.9315">
        <ele>863</ele>
        <time>2015-09-12T08:30:41.000Z</time>
      </trkpt>
      <trkpt lat="45.38199" lon="5.93156">
        <ele>862.59997558594</ele>
        <time>2015-09-12T08:30:46.000Z</time>
      </trkpt>
      <trkpt lat="45.38209" lon="5.93161">
        <ele>862.40002441406</ele>
        <time>2015-09-12T08:30:50.000Z</time>
      </trkpt>
      <trkpt lat="45.38217" lon="5.93165">
        <ele>862</ele>
        <time>2015-09-12T08:30:54.000Z</time>
      </trkpt>
      <trkpt lat="45.38224" lon="5.93169">
        <ele>862</ele>
        <time>2015-09-12T08:30:57.000Z</time>
      </trkpt>
      <trkpt lat="45.38238" lon="5.93178">
        <ele>861.59997558594</ele>
        <time>2015-09-12T08:31:02.000Z</time>
      </trkpt>
      <trkpt lat="45.38256" lon="5.93187">
        <ele>861.20001220703</ele>
        <time>2015-09-12T08:31:09.000Z</time>
      </trkpt>
      <trkpt lat="45.38269" lon="5.93194">
        <ele>861</ele>
        <time>2015-09-12T08:31:15.000Z</time>
      </trkpt>
      <trkpt lat="45.38282" lon="5.93199">
        <ele>860.79998779297</ele>
        <time>2015-09-12T08:31:21.000Z</time>
      </trkpt>
      <trkpt lat="45.38293" lon="5.93202">
        <ele>860.59997558594</ele>
        <time>2015-09-12T08:31:27.000Z</time>
      </trkpt>
      <trkpt lat="45.38303" lon="5.93207">
        <ele>860.20001220703</ele>
        <time>2015-09-12T08:31:34.000Z</time>
      </trkpt>
      <trkpt lat="45.38305" lon="5.93208">
        <ele>860.20001220703</ele>
        <time>2015-09-12T08:31:35.000Z</time>
      </trkpt>
      <trkpt lat="45.38312" lon="5.9321">
        <ele>859.59997558594</ele>
        <time>2015-09-12T08:31:40.000Z</time>
      </trkpt>
      <trkpt lat="45.38323" lon="5.93215">
        <ele>859</ele>
        <time>2015-09-12T08:31:46.000Z</time>
      </trkpt>
      <trkpt lat="45.38329" lon="5.93218">
        <ele>858.59997558594</ele>
        <time>2015-09-12T08:31:49.000Z</time>
      </trkpt>
      <trkpt lat="45.3834" lon="5.93222">
        <ele>858</ele>
        <time>2015-09-12T08:31:55.000Z</time>
      </trkpt>
      <trkpt lat="45.38353" lon="5.93227">
        <ele>857</ele>
        <time>2015-09-12T08:32:01.000Z</time>
      </trkpt>
      <trkpt lat="45.3836" lon="5.93229">
        <ele>856.59997558594</ele>
        <time>2015-09-12T08:32:04.000Z</time>
      </trkpt>
      <trkpt lat="45.38382" lon="5.93234">
        <ele>854.79998779297</ele>
        <time>2015-09-12T08:32:12.000Z</time>
      </trkpt>
      <trkpt lat="45.38395" lon="5.93237">
        <ele>852.79998779297</ele>
        <time>2015-09-12T08:32:20.000Z</time>
      </trkpt>
      <trkpt lat="45.38403" lon="5.93237">
        <ele>851.79998779297</ele>
        <time>2015-09-12T08:32:25.000Z</time>
      </trkpt>
      <trkpt lat="45.38408" lon="5.93232">
        <ele>851.40002441406</ele>
        <time>2015-09-12T08:32:30.000Z</time>
      </trkpt>
      <trkpt lat="45.38408" lon="5.93228">
        <ele>851.59997558594</ele>
        <time>2015-09-12T08:32:35.000Z</time>
      </trkpt>
      <trkpt lat="45.38408" lon="5.93228">
        <ele>851.59997558594</ele>
        <time>2015-09-12T08:32:37.000Z</time>
      </trkpt>
      <trkpt lat="45.3841" lon="5.93232">
        <ele>851.20001220703</ele>
        <time>2015-09-12T08:32:44.000Z</time>
      </trkpt>
      <trkpt lat="45.38411" lon="5.93233">
        <ele>851</ele>
        <time>2015-09-12T08:32:48.000Z</time>
      </trkpt>
      <trkpt lat="45.38424" lon="5.93242">
        <ele>849</ele>
        <time>2015-09-12T08:39:20.000Z</time>
      </trkpt>
      <trkpt lat="45.38421" lon="5.93236">
        <ele>849.79998779297</ele>
        <time>2015-09-12T08:39:54.000Z</time>
      </trkpt>
      <trkpt lat="45.38421" lon="5.93236">
        <ele>849.79998779297</ele>
        <time>2015-09-12T08:40:01.000Z</time>
      </trkpt>
      <trkpt lat="45.38421" lon="5.93227">
        <ele>850</ele>
        <time>2015-09-12T08:40:10.000Z</time>
      </trkpt>
      <trkpt lat="45.38416" lon="5.93217">
        <ele>851</ele>
        <time>2015-09-12T08:40:14.000Z</time>
      </trkpt>
      <trkpt lat="45.38406" lon="5.93196">
        <ele>852.40002441406</ele>
        <time>2015-09-12T08:40:21.000Z</time>
      </trkpt>
      <trkpt lat="45.38393" lon="5.93176">
        <ele>854.20001220703</ele>
        <time>2015-09-12T08:40:28.000Z</time>
      </trkpt>
      <trkpt lat="45.3838" lon="5.93156">
        <ele>855.79998779297</ele>
        <time>2015-09-12T08:40:34.000Z</time>
      </trkpt>
      <trkpt lat="45.38365" lon="5.9314">
        <ele>856.59997558594</ele>
        <time>2015-09-12T08:40:41.000Z</time>
      </trkpt>
      <trkpt lat="45.38346" lon="5.93131">
        <ele>857.79998779297</ele>
        <time>2015-09-12T08:40:49.000Z</time>
      </trkpt>
      <trkpt lat="45.38328" lon="5.93123">
        <ele>859</ele>
        <time>2015-09-12T08:40:56.000Z</time>
      </trkpt>
      <trkpt lat="45.38308" lon="5.93112">
        <ele>860.40002441406</ele>
        <time>2015-09-12T08:41:03.000Z</time>
      </trkpt>
      <trkpt lat="45.3829" lon="5.93098">
        <ele>861.40002441406</ele>
        <time>2015-09-12T08:41:09.000Z</time>
      </trkpt>
      <trkpt lat="45.38275" lon="5.93081">
        <ele>862.20001220703</ele>
        <time>2015-09-12T08:41:15.000Z</time>
      </trkpt>
      <trkpt lat="45.38259" lon="5.93064">
        <ele>863.20001220703</ele>
        <time>2015-09-12T08:41:21.000Z</time>
      </trkpt>
      <trkpt lat="45.38242" lon="5.93048">
        <ele>864.20001220703</ele>
        <time>2015-09-12T08:41:27.000Z</time>
      </trkpt>
      <trkpt lat="45.38225" lon="5.9303">
        <ele>865.40002441406</ele>
        <time>2015-09-12T08:41:33.000Z</time>
      </trkpt>
      <trkpt lat="45.38209" lon="5.93013">
        <ele>866.20001220703</ele>
        <time>2015-09-12T08:41:39.000Z</time>
      </trkpt>
      <trkpt lat="45.38193" lon="5.92995">
        <ele>866.40002441406</ele>
        <time>2015-09-12T08:41:45.000Z</time>
      </trkpt>
      <trkpt lat="45.38182" lon="5.92975">
        <ele>867.20001220703</ele>
        <time>2015-09-12T08:41:50.000Z</time>
      </trkpt>
      <trkpt lat="45.38171" lon="5.92948">
        <ele>869.40002441406</ele>
        <time>2015-09-12T08:41:56.000Z</time>
      </trkpt>
      <trkpt lat="45.38161" lon="5.92923">
        <ele>871.59997558594</ele>
        <time>2015-09-12T08:42:02.000Z</time>
      </trkpt>
      <trkpt lat="45.38149" lon="5.929">
        <ele>873.20001220703</ele>
        <time>2015-09-12T08:42:08.000Z</time>
      </trkpt>
      <trkpt lat="45.38136" lon="5.92882">
        <ele>875.20001220703</ele>
        <time>2015-09-12T08:42:13.000Z</time>
      </trkpt>
      <trkpt lat="45.38121" lon="5.92869">
        <ele>876.20001220703</ele>
        <time>2015-09-12T08:42:18.000Z</time>
      </trkpt>
      <trkpt lat="45.38102" lon="5.92858">
        <ele>876.20001220703</ele>
        <time>2015-09-12T08:42:24.000Z</time>
      </trkpt>
      <trkpt lat="45.38084" lon="5.92846">
        <ele>876.40002441406</ele>
        <time>2015-09-12T08:42:30.000Z</time>
      </trkpt>
      <trkpt lat="45.38068" lon="5.92826">
        <ele>878.59997558594</ele>
        <time>2015-09-12T08:42:36.000Z</time>
      </trkpt>
      <trkpt lat="45.38058" lon="5.92804">
        <ele>882.20001220703</ele>
        <time>2015-09-12T08:42:41.000Z</time>
      </trkpt>
      <trkpt lat="45.38046" lon="5.92781">
        <ele>886.79998779297</ele>
        <time>2015-09-12T08:42:46.000Z</time>
      </trkpt>
      <trkpt lat="45.38031" lon="5.9277">
        <ele>887.20001220703</ele>
        <time>2015-09-12T08:42:51.000Z</time>
      </trkpt>
      <trkpt lat="45.38012" lon="5.92765">
        <ele>884.59997558594</ele>
        <time>2015-09-12T08:42:56.000Z</time>
      </trkpt>
      <trkpt lat="45.37997" lon="5.92769">
        <ele>881</ele>
        <time>2015-09-12T08:43:00.000Z</time>
      </trkpt>
      <trkpt lat="45.37979" lon="5.92771">
        <ele>877.59997558594</ele>
        <time>2015-09-12T08:43:04.000Z</time>
      </trkpt>
      <trkpt lat="45.37975" lon="5.9277">
        <ele>877.20001220703</ele>
        <time>2015-09-12T08:43:05.000Z</time>
      </trkpt>
      <trkpt lat="45.37962" lon="5.92764">
        <ele>876.59997558594</ele>
        <time>2015-09-12T08:43:08.000Z</time>
      </trkpt>
      <trkpt lat="45.37948" lon="5.92751">
        <ele>876.59997558594</ele>
        <time>2015-09-12T08:43:12.000Z</time>
      </trkpt>
      <trkpt lat="45.37939" lon="5.92741">
        <ele>877.59997558594</ele>
        <time>2015-09-12T08:43:15.000Z</time>
      </trkpt>
      <trkpt lat="45.37924" lon="5.92716">
        <ele>880.20001220703</ele>
        <time>2015-09-12T08:43:21.000Z</time>
      </trkpt>
      <trkpt lat="45.37916" lon="5.92705">
        <ele>880.59997558594</ele>
        <time>2015-09-12T08:43:24.000Z</time>
      </trkpt>
      <trkpt lat="45.37908" lon="5.92689">
        <ele>882.20001220703</ele>
        <time>2015-09-12T08:43:28.000Z</time>
      </trkpt>
      <trkpt lat="45.37895" lon="5.92658">
        <ele>885.40002441406</ele>
        <time>2015-09-12T08:43:35.000Z</time>
      </trkpt>
      <trkpt lat="45.3789" lon="5.92632">
        <ele>888.40002441406</ele>
        <time>2015-09-12T08:43:40.000Z</time>
      </trkpt>
      <trkpt lat="45.37896" lon="5.92586">
        <ele>889.40002441406</ele>
        <time>2015-09-12T08:43:50.000Z</time>
      </trkpt>
      <trkpt lat="45.37909" lon="5.92562">
        <ele>896</ele>
        <time>2015-09-12T08:43:55.000Z</time>
      </trkpt>
      <trkpt lat="45.37916" lon="5.92549">
        <ele>899</ele>
        <time>2015-09-12T08:43:58.000Z</time>
      </trkpt>
      <trkpt lat="45.37932" lon="5.92524">
        <ele>903.40002441406</ele>
        <time>2015-09-12T08:44:04.000Z</time>
      </trkpt>
      <trkpt lat="45.37946" lon="5.9251">
        <ele>907.40002441406</ele>
        <time>2015-09-12T08:44:08.000Z</time>
      </trkpt>
      <trkpt lat="45.3796" lon="5.92485">
        <ele>910.59997558594</ele>
        <time>2015-09-12T08:44:14.000Z</time>
      </trkpt>
      <trkpt lat="45.37962" lon="5.9248">
        <ele>910.59997558594</ele>
        <time>2015-09-12T08:44:15.000Z</time>
      </trkpt>
      <trkpt lat="45.37971" lon="5.92456">
        <ele>910.20001220703</ele>
        <time>2015-09-12T08:44:20.000Z</time>
      </trkpt>
      <trkpt lat="45.37977" lon="5.92441">
        <ele>910.20001220703</ele>
        <time>2015-09-12T08:44:24.000Z</time>
      </trkpt>
      <trkpt lat="45.37981" lon="5.92433">
        <ele>910.40002441406</ele>
        <time>2015-09-12T08:44:25.000Z</time>
      </trkpt>
      <trkpt lat="45.37991" lon="5.92409">
        <ele>910.20001220703</ele>
        <time>2015-09-12T08:44:30.000Z</time>
      </trkpt>
      <trkpt lat="45.38001" lon="5.9239">
        <ele>911</ele>
        <time>2015-09-12T08:44:35.000Z</time>
      </trkpt>
      <trkpt lat="45.38012" lon="5.92365">
        <ele>912.79998779297</ele>
        <time>2015-09-12T08:44:43.000Z</time>
      </trkpt>
      <trkpt lat="45.3802" lon="5.92341">
        <ele>913.79998779297</ele>
        <time>2015-09-12T08:44:49.000Z</time>
      </trkpt>
      <trkpt lat="45.38025" lon="5.92323">
        <ele>913.79998779297</ele>
        <time>2015-09-12T08:44:53.000Z</time>
      </trkpt>
      <trkpt lat="45.3803" lon="5.92298">
        <ele>914.20001220703</ele>
        <time>2015-09-12T08:45:00.000Z</time>
      </trkpt>
      <trkpt lat="45.38033" lon="5.92277">
        <ele>915.40002441406</ele>
        <time>2015-09-12T08:45:06.000Z</time>
      </trkpt>
      <trkpt lat="45.38035" lon="5.92252">
        <ele>916</ele>
        <time>2015-09-12T08:45:13.000Z</time>
      </trkpt>
      <trkpt lat="45.38038" lon="5.9223">
        <ele>917</ele>
        <time>2015-09-12T08:45:20.000Z</time>
      </trkpt>
      <trkpt lat="45.38039" lon="5.92203">
        <ele>920.20001220703</ele>
        <time>2015-09-12T08:45:28.000Z</time>
      </trkpt>
      <trkpt lat="45.38032" lon="5.92187">
        <ele>919.40002441406</ele>
        <time>2015-09-12T08:45:34.000Z</time>
      </trkpt>
      <trkpt lat="45.38017" lon="5.92176">
        <ele>916.79998779297</ele>
        <time>2015-09-12T08:45:40.000Z</time>
      </trkpt>
      <trkpt lat="45.37999" lon="5.92184">
        <ele>910.40002441406</ele>
        <time>2015-09-12T08:45:46.000Z</time>
      </trkpt>
      <trkpt lat="45.37979" lon="5.92189">
        <ele>901.20001220703</ele>
        <time>2015-09-12T08:45:51.000Z</time>
      </trkpt>
      <trkpt lat="45.37963" lon="5.92181">
        <ele>897</ele>
        <time>2015-09-12T08:45:55.000Z</time>
      </trkpt>
      <trkpt lat="45.37943" lon="5.92167">
        <ele>898.40002441406</ele>
        <time>2015-09-12T08:45:59.000Z</time>
      </trkpt>
      <trkpt lat="45.37937" lon="5.92163">
        <ele>898.59997558594</ele>
        <time>2015-09-12T08:46:00.000Z</time>
      </trkpt>
      <trkpt lat="45.37926" lon="5.92158">
        <ele>898.59997558594</ele>
        <time>2015-09-12T08:46:02.000Z</time>
      </trkpt>
      <trkpt lat="45.37904" lon="5.9215">
        <ele>898</ele>
        <time>2015-09-12T08:46:06.000Z</time>
      </trkpt>
      <trkpt lat="45.37884" lon="5.9214">
        <ele>898.40002441406</ele>
        <time>2015-09-12T08:46:11.000Z</time>
      </trkpt>
      <trkpt lat="45.37863" lon="5.9212">
        <ele>898.79998779297</ele>
        <time>2015-09-12T08:46:17.000Z</time>
      </trkpt>
      <trkpt lat="45.3786" lon="5.92118">
        <ele>898.79998779297</ele>
        <time>2015-09-12T08:46:18.000Z</time>
      </trkpt>
      <trkpt lat="45.3785" lon="5.9211">
        <ele>898.59997558594</ele>
        <time>2015-09-12T08:46:21.000Z</time>
      </trkpt>
      <trkpt lat="45.37832" lon="5.92091">
        <ele>899.20001220703</ele>
        <time>2015-09-12T08:46:27.000Z</time>
      </trkpt>
      <trkpt lat="45.37815" lon="5.92077">
        <ele>899.20001220703</ele>
        <time>2015-09-12T08:46:32.000Z</time>
      </trkpt>
      <trkpt lat="45.3781" lon="5.92073">
        <ele>899.20001220703</ele>
        <time>2015-09-12T08:46:35.000Z</time>
      </trkpt>
      <trkpt lat="45.37803" lon="5.92064">
        <ele>899.79998779297</ele>
        <time>2015-09-12T08:46:42.000Z</time>
      </trkpt>
      <trkpt lat="45.37796" lon="5.92054">
        <ele>900.40002441406</ele>
        <time>2015-09-12T08:46:49.000Z</time>
      </trkpt>
      <trkpt lat="45.37793" lon="5.92047">
        <ele>901.40002441406</ele>
        <time>2015-09-12T08:46:54.000Z</time>
      </trkpt>
      <trkpt lat="45.37786" lon="5.9204">
        <ele>902</ele>
        <time>2015-09-12T08:47:00.000Z</time>
      </trkpt>
      <trkpt lat="45.37781" lon="5.9203">
        <ele>903.40002441406</ele>
        <time>2015-09-12T08:47:06.000Z</time>
      </trkpt>
      <trkpt lat="45.3778" lon="5.92026">
        <ele>904.20001220703</ele>
        <time>2015-09-12T08:47:08.000Z</time>
      </trkpt>
      <trkpt lat="45.37776" lon="5.92015">
        <ele>906.20001220703</ele>
        <time>2015-09-12T08:47:15.000Z</time>
      </trkpt>
      <trkpt lat="45.37774" lon="5.92008">
        <ele>907.59997558594</ele>
        <time>2015-09-12T08:47:19.000Z</time>
      </trkpt>
      <trkpt lat="45.37774" lon="5.91993">
        <ele>911</ele>
        <time>2015-09-12T08:47:27.000Z</time>
      </trkpt>
      <trkpt lat="45.37781" lon="5.9199">
        <ele>913</ele>
        <time>2015-09-12T08:47:33.000Z</time>
      </trkpt>
      <trkpt lat="45.3778" lon="5.91989">
        <ele>913</ele>
        <time>2015-09-12T08:47:34.000Z</time>
      </trkpt>
      <trkpt lat="45.3778" lon="5.91988">
        <ele>913.20001220703</ele>
        <time>2015-09-12T08:47:43.000Z</time>
      </trkpt>
      <trkpt lat="45.37783" lon="5.91988">
        <ele>913.59997558594</ele>
        <time>2015-09-12T08:47:55.000Z</time>
      </trkpt>
      <trkpt lat="45.37786" lon="5.91988">
        <ele>914.20001220703</ele>
        <time>2015-09-12T08:48:01.000Z</time>
      </trkpt>
      <trkpt lat="45.37789" lon="5.91984">
        <ele>916</ele>
        <time>2015-09-12T08:48:09.000Z</time>
      </trkpt>
      <trkpt lat="45.3779" lon="5.91982">
        <ele>916.79998779297</ele>
        <time>2015-09-12T08:48:16.000Z</time>
      </trkpt>
      <trkpt lat="45.37787" lon="5.91975">
        <ele>917.59997558594</ele>
        <time>2015-09-12T08:48:23.000Z</time>
      </trkpt>
      <trkpt lat="45.37787" lon="5.91972">
        <ele>918.59997558594</ele>
        <time>2015-09-12T08:48:29.000Z</time>
      </trkpt>
      <trkpt lat="45.37785" lon="5.91963">
        <ele>920.59997558594</ele>
        <time>2015-09-12T08:48:36.000Z</time>
      </trkpt>
      <trkpt lat="45.37781" lon="5.91954">
        <ele>922.40002441406</ele>
        <time>2015-09-12T08:48:42.000Z</time>
      </trkpt>
      <trkpt lat="45.37777" lon="5.91945">
        <ele>924.40002441406</ele>
        <time>2015-09-12T08:48:47.000Z</time>
      </trkpt>
      <trkpt lat="45.37776" lon="5.91944">
        <ele>924.59997558594</ele>
        <time>2015-09-12T08:48:48.000Z</time>
      </trkpt>
      <trkpt lat="45.37773" lon="5.91935">
        <ele>926.59997558594</ele>
        <time>2015-09-12T08:48:52.000Z</time>
      </trkpt>
      <trkpt lat="45.37766" lon="5.91921">
        <ele>929.40002441406</ele>
        <time>2015-09-12T08:48:59.000Z</time>
      </trkpt>
      <trkpt lat="45.37759" lon="5.91914">
        <ele>930</ele>
        <time>2015-09-12T08:49:07.000Z</time>
      </trkpt>
      <trkpt lat="45.37758" lon="5.91913">
        <ele>930.40002441406</ele>
        <time>2015-09-12T08:49:08.000Z</time>
      </trkpt>
      <trkpt lat="45.37753" lon="5.9191">
        <ele>930.20001220703</ele>
        <time>2015-09-12T08:49:12.000Z</time>
      </trkpt>
      <trkpt lat="45.37752" lon="5.91908">
        <ele>930.40002441406</ele>
        <time>2015-09-12T08:49:13.000Z</time>
      </trkpt>
      <trkpt lat="45.37751" lon="5.91907">
        <ele>930.40002441406</ele>
        <time>2015-09-12T08:49:14.000Z</time>
      </trkpt>
      <trkpt lat="45.37747" lon="5.91901">
        <ele>931.59997558594</ele>
        <time>2015-09-12T08:49:18.000Z</time>
      </trkpt>
      <trkpt lat="45.37746" lon="5.91901">
        <ele>931.59997558594</ele>
        <time>2015-09-12T08:49:19.000Z</time>
      </trkpt>
      <trkpt lat="45.37746" lon="5.91898">
        <ele>932.40002441406</ele>
        <time>2015-09-12T08:49:30.000Z</time>
      </trkpt>
      <trkpt lat="45.37746" lon="5.91887">
        <ele>936</ele>
        <time>2015-09-12T08:50:07.000Z</time>
      </trkpt>
      <trkpt lat="45.37744" lon="5.91883">
        <ele>937.40002441406</ele>
        <time>2015-09-12T08:50:14.000Z</time>
      </trkpt>
      <trkpt lat="45.37743" lon="5.91878">
        <ele>939.20001220703</ele>
        <time>2015-09-12T08:50:20.000Z</time>
      </trkpt>
      <trkpt lat="45.37742" lon="5.91875">
        <ele>940</ele>
        <time>2015-09-12T08:50:26.000Z</time>
      </trkpt>
      <trkpt lat="45.37741" lon="5.91876">
        <ele>939.20001220703</ele>
        <time>2015-09-12T08:50:33.000Z</time>
      </trkpt>
      <trkpt lat="45.37737" lon="5.91874">
        <ele>939.20001220703</ele>
        <time>2015-09-12T08:50:49.000Z</time>
      </trkpt>
      <trkpt lat="45.37734" lon="5.91872">
        <ele>939.40002441406</ele>
        <time>2015-09-12T08:50:52.000Z</time>
      </trkpt>
      <trkpt lat="45.37726" lon="5.91871">
        <ele>938</ele>
        <time>2015-09-12T08:51:03.000Z</time>
      </trkpt>
      <trkpt lat="45.3772" lon="5.91868">
        <ele>938.20001220703</ele>
        <time>2015-09-12T08:51:11.000Z</time>
      </trkpt>
      <trkpt lat="45.37716" lon="5.91864">
        <ele>938.79998779297</ele>
        <time>2015-09-12T08:51:19.000Z</time>
      </trkpt>
      <trkpt lat="45.37713" lon="5.91858">
        <ele>940.40002441406</ele>
        <time>2015-09-12T08:51:25.000Z</time>
      </trkpt>
      <trkpt lat="45.37709" lon="5.91851">
        <ele>942.59997558594</ele>
        <time>2015-09-12T08:51:34.000Z</time>
      </trkpt>
      <trkpt lat="45.37705" lon="5.91847">
        <ele>943.79998779297</ele>
        <time>2015-09-12T08:51:43.000Z</time>
      </trkpt>
      <trkpt lat="45.37701" lon="5.91844">
        <ele>944.59997558594</ele>
        <time>2015-09-12T08:51:50.000Z</time>
      </trkpt>
      <trkpt lat="45.37695" lon="5.91845">
        <ele>943.40002441406</ele>
        <time>2015-09-12T08:51:58.000Z</time>
      </trkpt>
      <trkpt lat="45.37692" lon="5.91845">
        <ele>943</ele>
        <time>2015-09-12T08:52:05.000Z</time>
      </trkpt>
      <trkpt lat="45.37692" lon="5.91843">
        <ele>944</ele>
        <time>2015-09-12T08:52:10.000Z</time>
      </trkpt>
      <trkpt lat="45.37692" lon="5.91835">
        <ele>946.79998779297</ele>
        <time>2015-09-12T08:52:24.000Z</time>
      </trkpt>
      <trkpt lat="45.37692" lon="5.91828">
        <ele>949.79998779297</ele>
        <time>2015-09-12T08:52:32.000Z</time>
      </trkpt>
      <trkpt lat="45.37693" lon="5.91821">
        <ele>952.79998779297</ele>
        <time>2015-09-12T08:52:42.000Z</time>
      </trkpt>
      <trkpt lat="45.37695" lon="5.91816">
        <ele>954.79998779297</ele>
        <time>2015-09-12T08:52:56.000Z</time>
      </trkpt>
      <trkpt lat="45.37697" lon="5.91815">
        <ele>955.40002441406</ele>
        <time>2015-09-12T08:53:01.000Z</time>
      </trkpt>
      <trkpt lat="45.377" lon="5.91814">
        <ele>956.20001220703</ele>
        <time>2015-09-12T08:53:06.000Z</time>
      </trkpt>
      <trkpt lat="45.37701" lon="5.91813">
        <ele>956.79998779297</ele>
        <time>2015-09-12T08:53:07.000Z</time>
      </trkpt>
      <trkpt lat="45.37699" lon="5.91808">
        <ele>958.40002441406</ele>
        <time>2015-09-12T08:53:12.000Z</time>
      </trkpt>
      <trkpt lat="45.37698" lon="5.91804">
        <ele>959.40002441406</ele>
        <time>2015-09-12T08:53:18.000Z</time>
      </trkpt>
      <trkpt lat="45.37695" lon="5.91802">
        <ele>959.59997558594</ele>
        <time>2015-09-12T08:53:26.000Z</time>
      </trkpt>
      <trkpt lat="45.37691" lon="5.91798">
        <ele>959.59997558594</ele>
        <time>2015-09-12T08:53:35.000Z</time>
      </trkpt>
      <trkpt lat="45.37685" lon="5.918">
        <ele>958.40002441406</ele>
        <time>2015-09-12T08:53:43.000Z</time>
      </trkpt>
      <trkpt lat="45.37681" lon="5.91802">
        <ele>957.59997558594</ele>
        <time>2015-09-12T08:53:49.000Z</time>
      </trkpt>
      <trkpt lat="45.37676" lon="5.91805">
        <ele>956.20001220703</ele>
        <time>2015-09-12T08:53:56.000Z</time>
      </trkpt>
      <trkpt lat="45.37674" lon="5.91805">
        <ele>956</ele>
        <time>2015-09-12T08:54:02.000Z</time>
      </trkpt>
      <trkpt lat="45.37675" lon="5.918">
        <ele>957.20001220703</ele>
        <time>2015-09-12T08:54:08.000Z</time>
      </trkpt>
      <trkpt lat="45.37676" lon="5.91798">
        <ele>957.79998779297</ele>
        <time>2015-09-12T08:54:13.000Z</time>
      </trkpt>
      <trkpt lat="45.37678" lon="5.91792">
        <ele>959.20001220703</ele>
        <time>2015-09-12T08:54:17.000Z</time>
      </trkpt>
      <trkpt lat="45.37679" lon="5.91781">
        <ele>961.59997558594</ele>
        <time>2015-09-12T08:54:23.000Z</time>
      </trkpt>
      <trkpt lat="45.37683" lon="5.91774">
        <ele>963.59997558594</ele>
        <time>2015-09-12T08:54:29.000Z</time>
      </trkpt>
      <trkpt lat="45.37684" lon="5.91774">
        <ele>964.20001220703</ele>
        <time>2015-09-12T08:54:37.000Z</time>
      </trkpt>
      <trkpt lat="45.37686" lon="5.91771">
        <ele>965.59997558594</ele>
        <time>2015-09-12T08:54:42.000Z</time>
      </trkpt>
      <trkpt lat="45.37689" lon="5.9177">
        <ele>966.79998779297</ele>
        <time>2015-09-12T08:54:48.000Z</time>
      </trkpt>
      <trkpt lat="45.37692" lon="5.91766">
        <ele>969</ele>
        <time>2015-09-12T08:54:54.000Z</time>
      </trkpt>
      <trkpt lat="45.37694" lon="5.91765">
        <ele>970</ele>
        <time>2015-09-12T08:55:00.000Z</time>
      </trkpt>
      <trkpt lat="45.37696" lon="5.91766">
        <ele>970.20001220703</ele>
        <time>2015-09-12T08:55:13.000Z</time>
      </trkpt>
      <trkpt lat="45.37704" lon="5.91767">
        <ele>972.40002441406</ele>
        <time>2015-09-12T08:56:32.000Z</time>
      </trkpt>
      <trkpt lat="45.37712" lon="5.91767">
        <ele>974.59997558594</ele>
        <time>2015-09-12T08:56:39.000Z</time>
      </trkpt>
      <trkpt lat="45.37715" lon="5.91767">
        <ele>975.40002441406</ele>
        <time>2015-09-12T08:56:41.000Z</time>
      </trkpt>
      <trkpt lat="45.37723" lon="5.9177">
        <ele>975.40002441406</ele>
        <time>2015-09-12T08:56:48.000Z</time>
      </trkpt>
      <trkpt lat="45.37728" lon="5.91771">
        <ele>975.59997558594</ele>
        <time>2015-09-12T08:56:52.000Z</time>
      </trkpt>
      <trkpt lat="45.37736" lon="5.91771">
        <ele>976.20001220703</ele>
        <time>2015-09-12T08:56:57.000Z</time>
      </trkpt>
      <trkpt lat="45.37743" lon="5.91771">
        <ele>976.79998779297</ele>
        <time>2015-09-12T08:57:02.000Z</time>
      </trkpt>
      <trkpt lat="45.37752" lon="5.91772">
        <ele>977.59997558594</ele>
        <time>2015-09-12T08:57:09.000Z</time>
      </trkpt>
      <trkpt lat="45.37762" lon="5.9177">
        <ele>979.20001220703</ele>
        <time>2015-09-12T08:57:16.000Z</time>
      </trkpt>
      <trkpt lat="45.37768" lon="5.91769">
        <ele>980</ele>
        <time>2015-09-12T08:57:20.000Z</time>
      </trkpt>
      <trkpt lat="45.37775" lon="5.91768">
        <ele>980.40002441406</ele>
        <time>2015-09-12T08:57:26.000Z</time>
      </trkpt>
      <trkpt lat="45.37783" lon="5.91768">
        <ele>981.20001220703</ele>
        <time>2015-09-12T08:57:33.000Z</time>
      </trkpt>
      <trkpt lat="45.3779" lon="5.91764">
        <ele>982.40002441406</ele>
        <time>2015-09-12T08:57:38.000Z</time>
      </trkpt>
      <trkpt lat="45.37798" lon="5.91759">
        <ele>984.20001220703</ele>
        <time>2015-09-12T08:57:44.000Z</time>
      </trkpt>
      <trkpt lat="45.37804" lon="5.91755">
        <ele>986.79998779297</ele>
        <time>2015-09-12T08:57:50.000Z</time>
      </trkpt>
      <trkpt lat="45.37805" lon="5.91754">
        <ele>987.59997558594</ele>
        <time>2015-09-12T08:57:52.000Z</time>
      </trkpt>
      <trkpt lat="45.37808" lon="5.91752">
        <ele>988.40002441406</ele>
        <time>2015-09-12T08:57:54.000Z</time>
      </trkpt>
      <trkpt lat="45.3781" lon="5.9175">
        <ele>989.59997558594</ele>
        <time>2015-09-12T08:57:56.000Z</time>
      </trkpt>
      <trkpt lat="45.3782" lon="5.91745">
        <ele>993</ele>
        <time>2015-09-12T08:58:03.000Z</time>
      </trkpt>
      <trkpt lat="45.37827" lon="5.9174">
        <ele>995.79998779297</ele>
        <time>2015-09-12T08:58:09.000Z</time>
      </trkpt>
      <trkpt lat="45.37829" lon="5.91739">
        <ele>996</ele>
        <time>2015-09-12T08:58:10.000Z</time>
      </trkpt>
      <trkpt lat="45.3783" lon="5.91739">
        <ele>996.20001220703</ele>
        <time>2015-09-12T08:58:12.000Z</time>
      </trkpt>
      <trkpt lat="45.37837" lon="5.91736">
        <ele>998.20001220703</ele>
        <time>2015-09-12T08:58:18.000Z</time>
      </trkpt>
      <trkpt lat="45.37839" lon="5.91736">
        <ele>998.59997558594</ele>
        <time>2015-09-12T08:58:19.000Z</time>
      </trkpt>
      <trkpt lat="45.37852" lon="5.91735">
        <ele>1001</ele>
        <time>2015-09-12T08:58:27.000Z</time>
      </trkpt>
      <trkpt lat="45.37865" lon="5.91737">
        <ele>1002.799987793</ele>
        <time>2015-09-12T08:58:35.000Z</time>
      </trkpt>
      <trkpt lat="45.37869" lon="5.91737">
        <ele>1003.5999755859</ele>
        <time>2015-09-12T08:58:37.000Z</time>
      </trkpt>
      <trkpt lat="45.37882" lon="5.91739">
        <ele>1005</ele>
        <time>2015-09-12T08:58:44.000Z</time>
      </trkpt>
      <trkpt lat="45.37892" lon="5.91743">
        <ele>1005.4000244141</ele>
        <time>2015-09-12T08:58:52.000Z</time>
      </trkpt>
      <trkpt lat="45.37902" lon="5.91751">
        <ele>1004.799987793</ele>
        <time>2015-09-12T08:59:00.000Z</time>
      </trkpt>
      <trkpt lat="45.37908" lon="5.91756">
        <ele>1004.4000244141</ele>
        <time>2015-09-12T08:59:05.000Z</time>
      </trkpt>
      <trkpt lat="45.37916" lon="5.91764">
        <ele>1003.4000244141</ele>
        <time>2015-09-12T08:59:12.000Z</time>
      </trkpt>
      <trkpt lat="45.37923" lon="5.91777">
        <ele>1001</ele>
        <time>2015-09-12T08:59:20.000Z</time>
      </trkpt>
      <trkpt lat="45.3793" lon="5.91787">
        <ele>999.40002441406</ele>
        <time>2015-09-12T08:59:28.000Z</time>
      </trkpt>
      <trkpt lat="45.37938" lon="5.91791">
        <ele>999.20001220703</ele>
        <time>2015-09-12T08:59:35.000Z</time>
      </trkpt>
      <trkpt lat="45.37943" lon="5.91791">
        <ele>1000</ele>
        <time>2015-09-12T08:59:39.000Z</time>
      </trkpt>
      <trkpt lat="45.37948" lon="5.91789">
        <ele>1001.4000244141</ele>
        <time>2015-09-12T08:59:43.000Z</time>
      </trkpt>
      <trkpt lat="45.37956" lon="5.91783">
        <ele>1004</ele>
        <time>2015-09-12T08:59:51.000Z</time>
      </trkpt>
      <trkpt lat="45.37959" lon="5.91781">
        <ele>1005.200012207</ele>
        <time>2015-09-12T08:59:54.000Z</time>
      </trkpt>
      <trkpt lat="45.37962" lon="5.91773">
        <ele>1007.5999755859</ele>
        <time>2015-09-12T09:00:00.000Z</time>
      </trkpt>
      <trkpt lat="45.37965" lon="5.91766">
        <ele>1009.799987793</ele>
        <time>2015-09-12T09:00:05.000Z</time>
      </trkpt>
      <trkpt lat="45.37972" lon="5.91754">
        <ele>1013.200012207</ele>
        <time>2015-09-12T09:00:14.000Z</time>
      </trkpt>
      <trkpt lat="45.37978" lon="5.91748">
        <ele>1015.200012207</ele>
        <time>2015-09-12T09:00:20.000Z</time>
      </trkpt>
      <trkpt lat="45.37985" lon="5.91743">
        <ele>1016.5999755859</ele>
        <time>2015-09-12T09:00:26.000Z</time>
      </trkpt>
      <trkpt lat="45.37995" lon="5.91741">
        <ele>1017.200012207</ele>
        <time>2015-09-12T09:00:33.000Z</time>
      </trkpt>
      <trkpt lat="45.38004" lon="5.91746">
        <ele>1016</ele>
        <time>2015-09-12T09:00:38.000Z</time>
      </trkpt>
      <trkpt lat="45.38013" lon="5.91753">
        <ele>1014.5999755859</ele>
        <time>2015-09-12T09:00:44.000Z</time>
      </trkpt>
      <trkpt lat="45.38022" lon="5.9176">
        <ele>1013</ele>
        <time>2015-09-12T09:00:51.000Z</time>
      </trkpt>
      <trkpt lat="45.38033" lon="5.91761">
        <ele>1012.799987793</ele>
        <time>2015-09-12T09:00:58.000Z</time>
      </trkpt>
      <trkpt lat="45.38041" lon="5.91753">
        <ele>1014.799987793</ele>
        <time>2015-09-12T09:01:05.000Z</time>
      </trkpt>
      <trkpt lat="45.38046" lon="5.91744">
        <ele>1017</ele>
        <time>2015-09-12T09:01:12.000Z</time>
      </trkpt>
      <trkpt lat="45.38048" lon="5.91743">
        <ele>1017.4000244141</ele>
        <time>2015-09-12T09:01:13.000Z</time>
      </trkpt>
      <trkpt lat="45.38051" lon="5.91733">
        <ele>1020.200012207</ele>
        <time>2015-09-12T09:01:19.000Z</time>
      </trkpt>
      <trkpt lat="45.38058" lon="5.91724">
        <ele>1023.5999755859</ele>
        <time>2015-09-12T09:01:27.000Z</time>
      </trkpt>
      <trkpt lat="45.38067" lon="5.91721">
        <ele>1025.5999755859</ele>
        <time>2015-09-12T09:01:33.000Z</time>
      </trkpt>
      <trkpt lat="45.38075" lon="5.91717">
        <ele>1028</ele>
        <time>2015-09-12T09:01:39.000Z</time>
      </trkpt>
      <trkpt lat="45.38085" lon="5.91714">
        <ele>1030.1999511719</ele>
        <time>2015-09-12T09:01:46.000Z</time>
      </trkpt>
      <trkpt lat="45.38087" lon="5.91713">
        <ele>1030.5999755859</ele>
        <time>2015-09-12T09:01:47.000Z</time>
      </trkpt>
      <trkpt lat="45.38091" lon="5.9171">
        <ele>1032</ele>
        <time>2015-09-12T09:01:50.000Z</time>
      </trkpt>
      <trkpt lat="45.381" lon="5.91703">
        <ele>1035.4000244141</ele>
        <time>2015-09-12T09:01:58.000Z</time>
      </trkpt>
      <trkpt lat="45.38107" lon="5.91697">
        <ele>1037.8000488281</ele>
        <time>2015-09-12T09:02:04.000Z</time>
      </trkpt>
      <trkpt lat="45.38113" lon="5.91692">
        <ele>1040</ele>
        <time>2015-09-12T09:02:10.000Z</time>
      </trkpt>
      <trkpt lat="45.38115" lon="5.91692">
        <ele>1040.4000244141</ele>
        <time>2015-09-12T09:02:13.000Z</time>
      </trkpt>
      <trkpt lat="45.3812" lon="5.9169">
        <ele>1041.5999755859</ele>
        <time>2015-09-12T09:02:19.000Z</time>
      </trkpt>
      <trkpt lat="45.38121" lon="5.9169">
        <ele>1042</ele>
        <time>2015-09-12T09:02:20.000Z</time>
      </trkpt>
      <trkpt lat="45.38123" lon="5.91689">
        <ele>1042.4000244141</ele>
        <time>2015-09-12T09:02:22.000Z</time>
      </trkpt>
      <trkpt lat="45.38126" lon="5.91689">
        <ele>1042.8000488281</ele>
        <time>2015-09-12T09:02:28.000Z</time>
      </trkpt>
      <trkpt lat="45.3813" lon="5.9169">
        <ele>1043.1999511719</ele>
        <time>2015-09-12T09:02:33.000Z</time>
      </trkpt>
      <trkpt lat="45.3813" lon="5.91689">
        <ele>1043.4000244141</ele>
        <time>2015-09-12T09:02:41.000Z</time>
      </trkpt>
      <trkpt lat="45.38133" lon="5.91694">
        <ele>1043.1999511719</ele>
        <time>2015-09-12T09:02:51.000Z</time>
      </trkpt>
      <trkpt lat="45.38135" lon="5.91697">
        <ele>1043.1999511719</ele>
        <time>2015-09-12T09:02:57.000Z</time>
      </trkpt>
      <trkpt lat="45.38138" lon="5.91705">
        <ele>1042.4000244141</ele>
        <time>2015-09-12T09:03:03.000Z</time>
      </trkpt>
      <trkpt lat="45.38141" lon="5.91716">
        <ele>1041</ele>
        <time>2015-09-12T09:03:09.000Z</time>
      </trkpt>
      <trkpt lat="45.38146" lon="5.91727">
        <ele>1040.5999755859</ele>
        <time>2015-09-12T09:03:15.000Z</time>
      </trkpt>
      <trkpt lat="45.38153" lon="5.91738">
        <ele>1042</ele>
        <time>2015-09-12T09:03:22.000Z</time>
      </trkpt>
      <trkpt lat="45.38163" lon="5.91746">
        <ele>1045</ele>
        <time>2015-09-12T09:03:30.000Z</time>
      </trkpt>
      <trkpt lat="45.38171" lon="5.91744">
        <ele>1048.4000244141</ele>
        <time>2015-09-12T09:03:36.000Z</time>
      </trkpt>
      <trkpt lat="45.38171" lon="5.91742">
        <ele>1048.8000488281</ele>
        <time>2015-09-12T09:03:37.000Z</time>
      </trkpt>
      <trkpt lat="45.38168" lon="5.91733">
        <ele>1048.8000488281</ele>
        <time>2015-09-12T09:03:42.000Z</time>
      </trkpt>
      <trkpt lat="45.38167" lon="5.91731">
        <ele>1048.5999755859</ele>
        <time>2015-09-12T09:03:43.000Z</time>
      </trkpt>
      <trkpt lat="45.38162" lon="5.91722">
        <ele>1048</ele>
        <time>2015-09-12T09:03:50.000Z</time>
      </trkpt>
      <trkpt lat="45.38157" lon="5.91713">
        <ele>1048</ele>
        <time>2015-09-12T09:03:57.000Z</time>
      </trkpt>
      <trkpt lat="45.38153" lon="5.91703">
        <ele>1049</ele>
        <time>2015-09-12T09:04:04.000Z</time>
      </trkpt>
      <trkpt lat="45.38152" lon="5.91698">
        <ele>1050</ele>
        <time>2015-09-12T09:04:08.000Z</time>
      </trkpt>
      <trkpt lat="45.38154" lon="5.9169">
        <ele>1052.5999755859</ele>
        <time>2015-09-12T09:04:13.000Z</time>
      </trkpt>
      <trkpt lat="45.38156" lon="5.9168">
        <ele>1056</ele>
        <time>2015-09-12T09:04:19.000Z</time>
      </trkpt>
      <trkpt lat="45.38157" lon="5.91678">
        <ele>1056.8000488281</ele>
        <time>2015-09-12T09:04:20.000Z</time>
      </trkpt>
      <trkpt lat="45.38157" lon="5.9167">
        <ele>1059</ele>
        <time>2015-09-12T09:04:25.000Z</time>
      </trkpt>
      <trkpt lat="45.38157" lon="5.91666">
        <ele>1060.1999511719</ele>
        <time>2015-09-12T09:04:30.000Z</time>
      </trkpt>
      <trkpt lat="45.38157" lon="5.9166">
        <ele>1061</ele>
        <time>2015-09-12T09:04:36.000Z</time>
      </trkpt>
      <trkpt lat="45.38156" lon="5.91654">
        <ele>1061.8000488281</ele>
        <time>2015-09-12T09:04:43.000Z</time>
      </trkpt>
      <trkpt lat="45.38157" lon="5.91651">
        <ele>1062.5999755859</ele>
        <time>2015-09-12T09:04:47.000Z</time>
      </trkpt>
      <trkpt lat="45.38156" lon="5.91647">
        <ele>1063.1999511719</ele>
        <time>2015-09-12T09:04:53.000Z</time>
      </trkpt>
      <trkpt lat="45.38152" lon="5.91644">
        <ele>1062.1999511719</ele>
        <time>2015-09-12T09:04:59.000Z</time>
      </trkpt>
      <trkpt lat="45.38149" lon="5.91641">
        <ele>1061.5999755859</ele>
        <time>2015-09-12T09:05:03.000Z</time>
      </trkpt>
      <trkpt lat="45.38148" lon="5.91641">
        <ele>1061.4000244141</ele>
        <time>2015-09-12T09:05:04.000Z</time>
      </trkpt>
      <trkpt lat="45.38145" lon="5.91642">
        <ele>1060.4000244141</ele>
        <time>2015-09-12T09:05:11.000Z</time>
      </trkpt>
      <trkpt lat="45.38142" lon="5.91644">
        <ele>1059</ele>
        <time>2015-09-12T09:05:14.000Z</time>
      </trkpt>
      <trkpt lat="45.38132" lon="5.91648">
        <ele>1054.4000244141</ele>
        <time>2015-09-12T09:05:22.000Z</time>
      </trkpt>
      <trkpt lat="45.3813" lon="5.91647">
        <ele>1054</ele>
        <time>2015-09-12T09:05:29.000Z</time>
      </trkpt>
      <trkpt lat="45.38128" lon="5.91649">
        <ele>1053.4000244141</ele>
        <time>2015-09-12T09:05:36.000Z</time>
      </trkpt>
      <trkpt lat="45.38127" lon="5.91648">
        <ele>1053.4000244141</ele>
        <time>2015-09-12T09:05:43.000Z</time>
      </trkpt>
      <trkpt lat="45.38127" lon="5.91648">
        <ele>1053.4000244141</ele>
        <time>2015-09-12T09:06:04.000Z</time>
      </trkpt>
      <trkpt lat="45.38122" lon="5.91648">
        <ele>1052.5999755859</ele>
        <time>2015-09-12T09:06:28.000Z</time>
      </trkpt>
      <trkpt lat="45.38114" lon="5.91648">
        <ele>1051.1999511719</ele>
        <time>2015-09-12T09:06:35.000Z</time>
      </trkpt>
      <trkpt lat="45.38104" lon="5.91645">
        <ele>1050.5999755859</ele>
        <time>2015-09-12T09:06:42.000Z</time>
      </trkpt>
      <trkpt lat="45.38097" lon="5.91638">
        <ele>1051.1999511719</ele>
        <time>2015-09-12T09:06:49.000Z</time>
      </trkpt>
      <trkpt lat="45.38096" lon="5.91637">
        <ele>1051.5999755859</ele>
        <time>2015-09-12T09:06:50.000Z</time>
      </trkpt>
      <trkpt lat="45.38085" lon="5.91631">
        <ele>1051.4000244141</ele>
        <time>2015-09-12T09:06:58.000Z</time>
      </trkpt>
      <trkpt lat="45.38074" lon="5.91631">
        <ele>1049.8000488281</ele>
        <time>2015-09-12T09:07:05.000Z</time>
      </trkpt>
      <trkpt lat="45.38064" lon="5.91631">
        <ele>1048.4000244141</ele>
        <time>2015-09-12T09:07:12.000Z</time>
      </trkpt>
      <trkpt lat="45.38062" lon="5.9163">
        <ele>1048.4000244141</ele>
        <time>2015-09-12T09:07:15.000Z</time>
      </trkpt>
      <trkpt lat="45.38052" lon="5.9163">
        <ele>1046.8000488281</ele>
        <time>2015-09-12T09:07:22.000Z</time>
      </trkpt>
      <trkpt lat="45.38043" lon="5.91624">
        <ele>1048.1999511719</ele>
        <time>2015-09-12T09:07:28.000Z</time>
      </trkpt>
      <trkpt lat="45.38038" lon="5.91621">
        <ele>1049.5999755859</ele>
        <time>2015-09-12T09:07:33.000Z</time>
      </trkpt>
      <trkpt lat="45.38031" lon="5.91617">
        <ele>1051.4000244141</ele>
        <time>2015-09-12T09:07:41.000Z</time>
      </trkpt>
      <trkpt lat="45.38023" lon="5.91614">
        <ele>1052.8000488281</ele>
        <time>2015-09-12T09:07:48.000Z</time>
      </trkpt>
      <trkpt lat="45.38014" lon="5.91612">
        <ele>1053.8000488281</ele>
        <time>2015-09-12T09:07:55.000Z</time>
      </trkpt>
      <trkpt lat="45.38009" lon="5.91611">
        <ele>1054.1999511719</ele>
        <time>2015-09-12T09:08:00.000Z</time>
      </trkpt>
      <trkpt lat="45.38002" lon="5.91614">
        <ele>1053.4000244141</ele>
        <time>2015-09-12T09:08:05.000Z</time>
      </trkpt>
      <trkpt lat="45.37991" lon="5.91623">
        <ele>1050.8000488281</ele>
        <time>2015-09-12T09:08:14.000Z</time>
      </trkpt>
      <trkpt lat="45.37983" lon="5.91625">
        <ele>1050.4000244141</ele>
        <time>2015-09-12T09:08:20.000Z</time>
      </trkpt>
      <trkpt lat="45.37976" lon="5.91619">
        <ele>1052.8000488281</ele>
        <time>2015-09-12T09:08:26.000Z</time>
      </trkpt>
      <trkpt lat="45.37969" lon="5.91604">
        <ele>1058</ele>
        <time>2015-09-12T09:08:34.000Z</time>
      </trkpt>
      <trkpt lat="45.37961" lon="5.91593">
        <ele>1061.1999511719</ele>
        <time>2015-09-12T09:08:41.000Z</time>
      </trkpt>
      <trkpt lat="45.37959" lon="5.91591">
        <ele>1061.5999755859</ele>
        <time>2015-09-12T09:08:43.000Z</time>
      </trkpt>
      <trkpt lat="45.3795" lon="5.91579">
        <ele>1064.1999511719</ele>
        <time>2015-09-12T09:08:51.000Z</time>
      </trkpt>
      <trkpt lat="45.37943" lon="5.91568">
        <ele>1066.8000488281</ele>
        <time>2015-09-12T09:08:58.000Z</time>
      </trkpt>
      <trkpt lat="45.3794" lon="5.91563">
        <ele>1067.5999755859</ele>
        <time>2015-09-12T09:09:04.000Z</time>
      </trkpt>
      <trkpt lat="45.3794" lon="5.9156">
        <ele>1068.8000488281</ele>
        <time>2015-09-12T09:09:19.000Z</time>
      </trkpt>
      <trkpt lat="45.37934" lon="5.91557">
        <ele>1068.5999755859</ele>
        <time>2015-09-12T09:10:51.000Z</time>
      </trkpt>
      <trkpt lat="45.37934" lon="5.91547">
        <ele>1072.4000244141</ele>
        <time>2015-09-12T09:12:17.000Z</time>
      </trkpt>
      <trkpt lat="45.37933" lon="5.91546">
        <ele>1072.5999755859</ele>
        <time>2015-09-12T09:12:18.000Z</time>
      </trkpt>
      <trkpt lat="45.37929" lon="5.91542">
        <ele>1073.4000244141</ele>
        <time>2015-09-12T09:12:23.000Z</time>
      </trkpt>
      <trkpt lat="45.37917" lon="5.91533">
        <ele>1074.5999755859</ele>
        <time>2015-09-12T09:12:35.000Z</time>
      </trkpt>
      <trkpt lat="45.37909" lon="5.9153">
        <ele>1074.5999755859</ele>
        <time>2015-09-12T09:12:41.000Z</time>
      </trkpt>
      <trkpt lat="45.37901" lon="5.91525">
        <ele>1074.5999755859</ele>
        <time>2015-09-12T09:12:49.000Z</time>
      </trkpt>
      <trkpt lat="45.37891" lon="5.91524">
        <ele>1073.5999755859</ele>
        <time>2015-09-12T09:12:56.000Z</time>
      </trkpt>
      <trkpt lat="45.37886" lon="5.91524">
        <ele>1072.5999755859</ele>
        <time>2015-09-12T09:13:01.000Z</time>
      </trkpt>
      <trkpt lat="45.37873" lon="5.91516">
        <ele>1073.4000244141</ele>
        <time>2015-09-12T09:13:12.000Z</time>
      </trkpt>
      <trkpt lat="45.37866" lon="5.91512">
        <ele>1073.5999755859</ele>
        <time>2015-09-12T09:13:18.000Z</time>
      </trkpt>
      <trkpt lat="45.37857" lon="5.91506">
        <ele>1074.1999511719</ele>
        <time>2015-09-12T09:13:24.000Z</time>
      </trkpt>
      <trkpt lat="45.37851" lon="5.91499">
        <ele>1075.5999755859</ele>
        <time>2015-09-12T09:13:30.000Z</time>
      </trkpt>
      <trkpt lat="45.37851" lon="5.91497">
        <ele>1076.1999511719</ele>
        <time>2015-09-12T09:13:31.000Z</time>
      </trkpt>
      <trkpt lat="45.3785" lon="5.91486">
        <ele>1080.4000244141</ele>
        <time>2015-09-12T09:13:38.000Z</time>
      </trkpt>
      <trkpt lat="45.3785" lon="5.91477">
        <ele>1083.5999755859</ele>
        <time>2015-09-12T09:13:43.000Z</time>
      </trkpt>
      <trkpt lat="45.37849" lon="5.91473">
        <ele>1084.5999755859</ele>
        <time>2015-09-12T09:13:45.000Z</time>
      </trkpt>
      <trkpt lat="45.37844" lon="5.91456">
        <ele>1087.5999755859</ele>
        <time>2015-09-12T09:13:54.000Z</time>
      </trkpt>
      <trkpt lat="45.3784" lon="5.91442">
        <ele>1090.1999511719</ele>
        <time>2015-09-12T09:14:01.000Z</time>
      </trkpt>
      <trkpt lat="45.37835" lon="5.9143">
        <ele>1092</ele>
        <time>2015-09-12T09:14:09.000Z</time>
      </trkpt>
      <trkpt lat="45.37826" lon="5.91417">
        <ele>1093.8000488281</ele>
        <time>2015-09-12T09:14:18.000Z</time>
      </trkpt>
      <trkpt lat="45.37824" lon="5.91406">
        <ele>1096.5999755859</ele>
        <time>2015-09-12T09:14:24.000Z</time>
      </trkpt>
      <trkpt lat="45.37817" lon="5.91398">
        <ele>1097.5999755859</ele>
        <time>2015-09-12T09:14:32.000Z</time>
      </trkpt>
      <trkpt lat="45.3781" lon="5.91393">
        <ele>1097.1999511719</ele>
        <time>2015-09-12T09:14:39.000Z</time>
      </trkpt>
      <trkpt lat="45.37805" lon="5.9139">
        <ele>1097</ele>
        <time>2015-09-12T09:14:44.000Z</time>
      </trkpt>
      <trkpt lat="45.37802" lon="5.91387">
        <ele>1097.1999511719</ele>
        <time>2015-09-12T09:14:47.000Z</time>
      </trkpt>
      <trkpt lat="45.37799" lon="5.91375">
        <ele>1099.5999755859</ele>
        <time>2015-09-12T09:14:53.000Z</time>
      </trkpt>
      <trkpt lat="45.37795" lon="5.91368">
        <ele>1100.5999755859</ele>
        <time>2015-09-12T09:14:57.000Z</time>
      </trkpt>
      <trkpt lat="45.3779" lon="5.91363">
        <ele>1101</ele>
        <time>2015-09-12T09:15:01.000Z</time>
      </trkpt>
      <trkpt lat="45.37787" lon="5.91357">
        <ele>1101.8000488281</ele>
        <time>2015-09-12T09:15:06.000Z</time>
      </trkpt>
      <trkpt lat="45.37781" lon="5.91354">
        <ele>1101.4000244141</ele>
        <time>2015-09-12T09:15:11.000Z</time>
      </trkpt>
      <trkpt lat="45.3777" lon="5.91352">
        <ele>1099.1999511719</ele>
        <time>2015-09-12T09:15:17.000Z</time>
      </trkpt>
      <trkpt lat="45.37759" lon="5.91353">
        <ele>1096.5999755859</ele>
        <time>2015-09-12T09:15:23.000Z</time>
      </trkpt>
      <trkpt lat="45.37752" lon="5.91351">
        <ele>1095</ele>
        <time>2015-09-12T09:15:27.000Z</time>
      </trkpt>
      <trkpt lat="45.37742" lon="5.91346">
        <ele>1094.1999511719</ele>
        <time>2015-09-12T09:15:34.000Z</time>
      </trkpt>
      <trkpt lat="45.3773" lon="5.91341">
        <ele>1092.4000244141</ele>
        <time>2015-09-12T09:15:42.000Z</time>
      </trkpt>
      <trkpt lat="45.37722" lon="5.9134">
        <ele>1090.5999755859</ele>
        <time>2015-09-12T09:15:48.000Z</time>
      </trkpt>
      <trkpt lat="45.37718" lon="5.9134">
        <ele>1089.8000488281</ele>
        <time>2015-09-12T09:15:51.000Z</time>
      </trkpt>
      <trkpt lat="45.37711" lon="5.91333">
        <ele>1090</ele>
        <time>2015-09-12T09:15:56.000Z</time>
      </trkpt>
      <trkpt lat="45.37711" lon="5.91324">
        <ele>1092.8000488281</ele>
        <time>2015-09-12T09:16:01.000Z</time>
      </trkpt>
      <trkpt lat="45.37715" lon="5.91324">
        <ele>1093.5999755859</ele>
        <time>2015-09-12T09:16:04.000Z</time>
      </trkpt>
      <trkpt lat="45.37726" lon="5.91327">
        <ele>1095.5999755859</ele>
        <time>2015-09-12T09:16:13.000Z</time>
      </trkpt>
      <trkpt lat="45.37733" lon="5.91327">
        <ele>1097.5999755859</ele>
        <time>2015-09-12T09:16:19.000Z</time>
      </trkpt>
      <trkpt lat="45.3774" lon="5.91321">
        <ele>1100.8000488281</ele>
        <time>2015-09-12T09:16:25.000Z</time>
      </trkpt>
      <trkpt lat="45.3774" lon="5.91321">
        <ele>1101</ele>
        <time>2015-09-12T09:16:26.000Z</time>
      </trkpt>
      <trkpt lat="45.37747" lon="5.91313">
        <ele>1105</ele>
        <time>2015-09-12T09:16:34.000Z</time>
      </trkpt>
      <trkpt lat="45.37752" lon="5.91309">
        <ele>1107.5999755859</ele>
        <time>2015-09-12T09:16:39.000Z</time>
      </trkpt>
      <trkpt lat="45.37756" lon="5.91306">
        <ele>1109.4000244141</ele>
        <time>2015-09-12T09:16:42.000Z</time>
      </trkpt>
      <trkpt lat="45.37763" lon="5.913">
        <ele>1113.4000244141</ele>
        <time>2015-09-12T09:16:48.000Z</time>
      </trkpt>
      <trkpt lat="45.37768" lon="5.91297">
        <ele>1115.5999755859</ele>
        <time>2015-09-12T09:16:52.000Z</time>
      </trkpt>
      <trkpt lat="45.3778" lon="5.91301">
        <ele>1117</ele>
        <time>2015-09-12T09:16:59.000Z</time>
      </trkpt>
      <trkpt lat="45.37789" lon="5.913">
        <ele>1119.5999755859</ele>
        <time>2015-09-12T09:17:05.000Z</time>
      </trkpt>
      <trkpt lat="45.37789" lon="5.913">
        <ele>1119.8000488281</ele>
        <time>2015-09-12T09:17:06.000Z</time>
      </trkpt>
      <trkpt lat="45.37795" lon="5.91297">
        <ele>1121.4000244141</ele>
        <time>2015-09-12T09:17:11.000Z</time>
      </trkpt>
      <trkpt lat="45.378" lon="5.91295">
        <ele>1123</ele>
        <time>2015-09-12T09:17:16.000Z</time>
      </trkpt>
      <trkpt lat="45.37803" lon="5.91294">
        <ele>1124</ele>
        <time>2015-09-12T09:17:19.000Z</time>
      </trkpt>
      <trkpt lat="45.37811" lon="5.913">
        <ele>1124.1999511719</ele>
        <time>2015-09-12T09:17:27.000Z</time>
      </trkpt>
      <trkpt lat="45.37822" lon="5.91303">
        <ele>1125.8000488281</ele>
        <time>2015-09-12T09:17:35.000Z</time>
      </trkpt>
      <trkpt lat="45.37829" lon="5.91303">
        <ele>1127.5999755859</ele>
        <time>2015-09-12T09:17:40.000Z</time>
      </trkpt>
      <trkpt lat="45.3783" lon="5.91302">
        <ele>1128</ele>
        <time>2015-09-12T09:17:41.000Z</time>
      </trkpt>
      <trkpt lat="45.37837" lon="5.91303">
        <ele>1129.5999755859</ele>
        <time>2015-09-12T09:17:47.000Z</time>
      </trkpt>
      <trkpt lat="45.37841" lon="5.91306">
        <ele>1129.4000244141</ele>
        <time>2015-09-12T09:17:50.000Z</time>
      </trkpt>
      <trkpt lat="45.37849" lon="5.91319">
        <ele>1128</ele>
        <time>2015-09-12T09:17:58.000Z</time>
      </trkpt>
      <trkpt lat="45.37853" lon="5.91333">
        <ele>1125.4000244141</ele>
        <time>2015-09-12T09:18:05.000Z</time>
      </trkpt>
      <trkpt lat="45.37859" lon="5.91349">
        <ele>1122.5999755859</ele>
        <time>2015-09-12T09:18:13.000Z</time>
      </trkpt>
      <trkpt lat="45.37867" lon="5.91359">
        <ele>1121.5999755859</ele>
        <time>2015-09-12T09:18:20.000Z</time>
      </trkpt>
      <trkpt lat="45.37878" lon="5.91374">
        <ele>1120.4000244141</ele>
        <time>2015-09-12T09:18:30.000Z</time>
      </trkpt>
      <trkpt lat="45.37887" lon="5.91382">
        <ele>1119.5999755859</ele>
        <time>2015-09-12T09:18:37.000Z</time>
      </trkpt>
      <trkpt lat="45.379" lon="5.91386">
        <ele>1119.4000244141</ele>
        <time>2015-09-12T09:18:46.000Z</time>
      </trkpt>
      <trkpt lat="45.37911" lon="5.91386">
        <ele>1119.8000488281</ele>
        <time>2015-09-12T09:18:54.000Z</time>
      </trkpt>
      <trkpt lat="45.37919" lon="5.91382">
        <ele>1121.5999755859</ele>
        <time>2015-09-12T09:19:00.000Z</time>
      </trkpt>
      <trkpt lat="45.37928" lon="5.91373">
        <ele>1124.4000244141</ele>
        <time>2015-09-12T09:19:07.000Z</time>
      </trkpt>
      <trkpt lat="45.37934" lon="5.91364">
        <ele>1127.1999511719</ele>
        <time>2015-09-12T09:19:13.000Z</time>
      </trkpt>
      <trkpt lat="45.37941" lon="5.91354">
        <ele>1131.1999511719</ele>
        <time>2015-09-12T09:19:20.000Z</time>
      </trkpt>
      <trkpt lat="45.37946" lon="5.91346">
        <ele>1134.8000488281</ele>
        <time>2015-09-12T09:19:27.000Z</time>
      </trkpt>
      <trkpt lat="45.37951" lon="5.91344">
        <ele>1136.4000244141</ele>
        <time>2015-09-12T09:19:31.000Z</time>
      </trkpt>
      <trkpt lat="45.37959" lon="5.91344">
        <ele>1137.4000244141</ele>
        <time>2015-09-12T09:19:36.000Z</time>
      </trkpt>
      <trkpt lat="45.37971" lon="5.91347">
        <ele>1136.5999755859</ele>
        <time>2015-09-12T09:19:43.000Z</time>
      </trkpt>
      <trkpt lat="45.37983" lon="5.91349">
        <ele>1135.4000244141</ele>
        <time>2015-09-12T09:19:49.000Z</time>
      </trkpt>
      <trkpt lat="45.37993" lon="5.91345">
        <ele>1136.1999511719</ele>
        <time>2015-09-12T09:19:56.000Z</time>
      </trkpt>
      <trkpt lat="45.38001" lon="5.9134">
        <ele>1137.5999755859</ele>
        <time>2015-09-12T09:20:01.000Z</time>
      </trkpt>
      <trkpt lat="45.38009" lon="5.91335">
        <ele>1139.4000244141</ele>
        <time>2015-09-12T09:20:07.000Z</time>
      </trkpt>
      <trkpt lat="45.38022" lon="5.91333">
        <ele>1140.4000244141</ele>
        <time>2015-09-12T09:20:15.000Z</time>
      </trkpt>
      <trkpt lat="45.38034" lon="5.91337">
        <ele>1138.5999755859</ele>
        <time>2015-09-12T09:20:22.000Z</time>
      </trkpt>
      <trkpt lat="45.38039" lon="5.91341">
        <ele>1137</ele>
        <time>2015-09-12T09:20:25.000Z</time>
      </trkpt>
      <trkpt lat="45.38042" lon="5.91342">
        <ele>1136.8000488281</ele>
        <time>2015-09-12T09:20:27.000Z</time>
      </trkpt>
      <trkpt lat="45.38045" lon="5.91342">
        <ele>1136.8000488281</ele>
        <time>2015-09-12T09:20:33.000Z</time>
      </trkpt>
      <trkpt lat="45.38048" lon="5.91343">
        <ele>1136.1999511719</ele>
        <time>2015-09-12T09:20:39.000Z</time>
      </trkpt>
      <trkpt lat="45.38051" lon="5.91344">
        <ele>1136.4000244141</ele>
        <time>2015-09-12T09:20:50.000Z</time>
      </trkpt>
      <trkpt lat="45.38066" lon="5.91346">
        <ele>1137.8000488281</ele>
        <time>2015-09-12T09:24:57.000Z</time>
      </trkpt>
      <trkpt lat="45.3806" lon="5.91343">
        <ele>1138.1999511719</ele>
        <time>2015-09-12T09:28:02.000Z</time>
      </trkpt>
      <trkpt lat="45.38059" lon="5.91342">
        <ele>1138.4000244141</ele>
        <time>2015-09-12T09:28:07.000Z</time>
      </trkpt>
      <trkpt lat="45.38057" lon="5.91343">
        <ele>1137.5999755859</ele>
        <time>2015-09-12T09:28:17.000Z</time>
      </trkpt>
      <trkpt lat="45.38056" lon="5.91346">
        <ele>1136.4000244141</ele>
        <time>2015-09-12T09:28:35.000Z</time>
      </trkpt>
      <trkpt lat="45.38058" lon="5.9135">
        <ele>1135</ele>
        <time>2015-09-12T09:32:48.000Z</time>
      </trkpt>
      <trkpt lat="45.38059" lon="5.91351">
        <ele>1134.8000488281</ele>
        <time>2015-09-12T09:32:49.000Z</time>
      </trkpt>
      <trkpt lat="45.38065" lon="5.9135">
        <ele>1136.1999511719</ele>
        <time>2015-09-12T09:32:53.000Z</time>
      </trkpt>
      <trkpt lat="45.38067" lon="5.91349">
        <ele>1136.8000488281</ele>
        <time>2015-09-12T09:32:54.000Z</time>
      </trkpt>
      <trkpt lat="45.38071" lon="5.9135">
        <ele>1137</ele>
        <time>2015-09-12T09:32:56.000Z</time>
      </trkpt>
      <trkpt lat="45.38081" lon="5.91359">
        <ele>1134.8000488281</ele>
        <time>2015-09-12T09:33:00.000Z</time>
      </trkpt>
      <trkpt lat="45.38083" lon="5.9136">
        <ele>1134.8000488281</ele>
        <time>2015-09-12T09:33:01.000Z</time>
      </trkpt>
      <trkpt lat="45.38093" lon="5.91363">
        <ele>1135</ele>
        <time>2015-09-12T09:33:07.000Z</time>
      </trkpt>
      <trkpt lat="45.38094" lon="5.91364">
        <ele>1135</ele>
        <time>2015-09-12T09:33:09.000Z</time>
      </trkpt>
      <trkpt lat="45.38098" lon="5.91364">
        <ele>1135.5999755859</ele>
        <time>2015-09-12T09:33:14.000Z</time>
      </trkpt>
      <trkpt lat="45.38102" lon="5.9137">
        <ele>1133.5999755859</ele>
        <time>2015-09-12T09:33:20.000Z</time>
      </trkpt>
      <trkpt lat="45.38102" lon="5.91371">
        <ele>1133.4000244141</ele>
        <time>2015-09-12T09:33:21.000Z</time>
      </trkpt>
      <trkpt lat="45.38103" lon="5.91373">
        <ele>1132.8000488281</ele>
        <time>2015-09-12T09:33:24.000Z</time>
      </trkpt>
      <trkpt lat="45.38113" lon="5.91385">
        <ele>1129.4000244141</ele>
        <time>2015-09-12T09:33:30.000Z</time>
      </trkpt>
      <trkpt lat="45.38126" lon="5.91401">
        <ele>1126.1999511719</ele>
        <time>2015-09-12T09:33:34.000Z</time>
      </trkpt>
      <trkpt lat="45.38147" lon="5.91411">
        <ele>1129.8000488281</ele>
        <time>2015-09-12T09:33:39.000Z</time>
      </trkpt>
      <trkpt lat="45.3815" lon="5.91412">
        <ele>1131</ele>
        <time>2015-09-12T09:33:40.000Z</time>
      </trkpt>
      <trkpt lat="45.38171" lon="5.91422">
        <ele>1136.1999511719</ele>
        <time>2015-09-12T09:33:45.000Z</time>
      </trkpt>
      <trkpt lat="45.38185" lon="5.91431">
        <ele>1139.4000244141</ele>
        <time>2015-09-12T09:33:49.000Z</time>
      </trkpt>
      <trkpt lat="45.38187" lon="5.9143">
        <ele>1140.4000244141</ele>
        <time>2015-09-12T09:33:50.000Z</time>
      </trkpt>
      <trkpt lat="45.38192" lon="5.91433">
        <ele>1141.5999755859</ele>
        <time>2015-09-12T09:34:02.000Z</time>
      </trkpt>
      <trkpt lat="45.38189" lon="5.91434">
        <ele>1140</ele>
        <time>2015-09-12T09:34:10.000Z</time>
      </trkpt>
      <trkpt lat="45.38183" lon="5.91437">
        <ele>1136.5999755859</ele>
        <time>2015-09-12T09:34:18.000Z</time>
      </trkpt>
      <trkpt lat="45.38177" lon="5.91437">
        <ele>1134.1999511719</ele>
        <time>2015-09-12T09:34:21.000Z</time>
      </trkpt>
      <trkpt lat="45.38177" lon="5.91437">
        <ele>1134</ele>
        <time>2015-09-12T09:34:22.000Z</time>
      </trkpt>
      <trkpt lat="45.38172" lon="5.91438">
        <ele>1132</ele>
        <time>2015-09-12T09:34:25.000Z</time>
      </trkpt>
      <trkpt lat="45.38166" lon="5.91445">
        <ele>1127.8000488281</ele>
        <time>2015-09-12T09:34:30.000Z</time>
      </trkpt>
      <trkpt lat="45.38165" lon="5.91446">
        <ele>1126.8000488281</ele>
        <time>2015-09-12T09:34:31.000Z</time>
      </trkpt>
      <trkpt lat="45.38163" lon="5.91447">
        <ele>1126.1999511719</ele>
        <time>2015-09-12T09:34:32.000Z</time>
      </trkpt>
      <trkpt lat="45.38162" lon="5.91447">
        <ele>1125.5999755859</ele>
        <time>2015-09-12T09:34:33.000Z</time>
      </trkpt>
      <trkpt lat="45.3816" lon="5.91451">
        <ele>1124</ele>
        <time>2015-09-12T09:34:38.000Z</time>
      </trkpt>
      <trkpt lat="45.38158" lon="5.91452">
        <ele>1123</ele>
        <time>2015-09-12T09:34:48.000Z</time>
      </trkpt>
      <trkpt lat="45.38153" lon="5.91447">
        <ele>1122.4000244141</ele>
        <time>2015-09-12T09:36:37.000Z</time>
      </trkpt>
      <trkpt lat="45.38153" lon="5.91447">
        <ele>1122.4000244141</ele>
        <time>2015-09-12T09:37:34.000Z</time>
      </trkpt>
      <trkpt lat="45.38154" lon="5.91451">
        <ele>1121.5999755859</ele>
        <time>2015-09-12T09:37:40.000Z</time>
      </trkpt>
      <trkpt lat="45.38156" lon="5.91457">
        <ele>1120.8000488281</ele>
        <time>2015-09-12T09:37:47.000Z</time>
      </trkpt>
      <trkpt lat="45.38155" lon="5.9146">
        <ele>1119.5999755859</ele>
        <time>2015-09-12T09:37:49.000Z</time>
      </trkpt>
      <trkpt lat="45.38156" lon="5.91464">
        <ele>1118.8000488281</ele>
        <time>2015-09-12T09:37:55.000Z</time>
      </trkpt>
      <trkpt lat="45.38155" lon="5.91467">
        <ele>1117.8000488281</ele>
        <time>2015-09-12T09:37:59.000Z</time>
      </trkpt>
      <trkpt lat="45.38157" lon="5.91474">
        <ele>1116.5999755859</ele>
        <time>2015-09-12T09:38:20.000Z</time>
      </trkpt>
      <trkpt lat="45.38159" lon="5.91477">
        <ele>1116</ele>
        <time>2015-09-12T09:38:27.000Z</time>
      </trkpt>
      <trkpt lat="45.3816" lon="5.91478">
        <ele>1116</ele>
        <time>2015-09-12T09:38:37.000Z</time>
      </trkpt>
      <trkpt lat="45.3816" lon="5.91478">
        <ele>1116</ele>
        <time>2015-09-12T09:38:47.000Z</time>
      </trkpt>
      <trkpt lat="45.38157" lon="5.91479">
        <ele>1114.4000244141</ele>
        <time>2015-09-12T09:39:29.000Z</time>
      </trkpt>
      <trkpt lat="45.38158" lon="5.91485">
        <ele>1112.4000244141</ele>
        <time>2015-09-12T09:39:37.000Z</time>
      </trkpt>
      <trkpt lat="45.38157" lon="5.9149">
        <ele>1110.4000244141</ele>
        <time>2015-09-12T09:39:39.000Z</time>
      </trkpt>
      <trkpt lat="45.38155" lon="5.91501">
        <ele>1105.8000488281</ele>
        <time>2015-09-12T09:39:43.000Z</time>
      </trkpt>
      <trkpt lat="45.3815" lon="5.91512">
        <ele>1100.5999755859</ele>
        <time>2015-09-12T09:39:47.000Z</time>
      </trkpt>
      <trkpt lat="45.38148" lon="5.91517">
        <ele>1098.4000244141</ele>
        <time>2015-09-12T09:39:56.000Z</time>
      </trkpt>
      <trkpt lat="45.38148" lon="5.91519">
        <ele>1097.8000488281</ele>
        <time>2015-09-12T09:40:08.000Z</time>
      </trkpt>
      <trkpt lat="45.38149" lon="5.91526">
        <ele>1096</ele>
        <time>2015-09-12T09:40:13.000Z</time>
      </trkpt>
      <trkpt lat="45.38149" lon="5.91527">
        <ele>1095.4000244141</ele>
        <time>2015-09-12T09:40:18.000Z</time>
      </trkpt>
      <trkpt lat="45.38148" lon="5.91531">
        <ele>1093.5999755859</ele>
        <time>2015-09-12T09:40:26.000Z</time>
      </trkpt>
      <trkpt lat="45.38145" lon="5.91531">
        <ele>1093</ele>
        <time>2015-09-12T09:40:29.000Z</time>
      </trkpt>
      <trkpt lat="45.38141" lon="5.91533">
        <ele>1090.8000488281</ele>
        <time>2015-09-12T09:40:32.000Z</time>
      </trkpt>
      <trkpt lat="45.38142" lon="5.9154">
        <ele>1089</ele>
        <time>2015-09-12T09:40:37.000Z</time>
      </trkpt>
      <trkpt lat="45.38144" lon="5.91544">
        <ele>1088.4000244141</ele>
        <time>2015-09-12T09:40:41.000Z</time>
      </trkpt>
      <trkpt lat="45.38145" lon="5.91548">
        <ele>1087.5999755859</ele>
        <time>2015-09-12T09:40:45.000Z</time>
      </trkpt>
      <trkpt lat="45.3815" lon="5.91553">
        <ele>1087.4000244141</ele>
        <time>2015-09-12T09:40:52.000Z</time>
      </trkpt>
      <trkpt lat="45.3815" lon="5.91554">
        <ele>1087.1999511719</ele>
        <time>2015-09-12T09:40:56.000Z</time>
      </trkpt>
      <trkpt lat="45.38152" lon="5.91556">
        <ele>1087</ele>
        <time>2015-09-12T09:41:02.000Z</time>
      </trkpt>
      <trkpt lat="45.38155" lon="5.91559">
        <ele>1087</ele>
        <time>2015-09-12T09:41:06.000Z</time>
      </trkpt>
      <trkpt lat="45.38155" lon="5.91561">
        <ele>1086.5999755859</ele>
        <time>2015-09-12T09:41:07.000Z</time>
      </trkpt>
      <trkpt lat="45.38152" lon="5.91567">
        <ele>1083.8000488281</ele>
        <time>2015-09-12T09:41:10.000Z</time>
      </trkpt>
      <trkpt lat="45.38144" lon="5.91578">
        <ele>1078.4000244141</ele>
        <time>2015-09-12T09:41:13.000Z</time>
      </trkpt>
      <trkpt lat="45.38126" lon="5.91585">
        <ele>1071.1999511719</ele>
        <time>2015-09-12T09:41:18.000Z</time>
      </trkpt>
      <trkpt lat="45.38116" lon="5.91594">
        <ele>1067.1999511719</ele>
        <time>2015-09-12T09:41:23.000Z</time>
      </trkpt>
      <trkpt lat="45.38114" lon="5.91596">
        <ele>1066.4000244141</ele>
        <time>2015-09-12T09:41:24.000Z</time>
      </trkpt>
      <trkpt lat="45.38106" lon="5.91604">
        <ele>1062.8000488281</ele>
        <time>2015-09-12T09:41:28.000Z</time>
      </trkpt>
      <trkpt lat="45.38097" lon="5.9161">
        <ele>1059.5999755859</ele>
        <time>2015-09-12T09:41:31.000Z</time>
      </trkpt>
      <trkpt lat="45.3809" lon="5.91617">
        <ele>1056.5999755859</ele>
        <time>2015-09-12T09:41:33.000Z</time>
      </trkpt>
      <trkpt lat="45.38071" lon="5.91633">
        <ele>1048.8000488281</ele>
        <time>2015-09-12T09:41:38.000Z</time>
      </trkpt>
      <trkpt lat="45.38066" lon="5.91634">
        <ele>1047.8000488281</ele>
        <time>2015-09-12T09:41:39.000Z</time>
      </trkpt>
      <trkpt lat="45.38059" lon="5.91632">
        <ele>1047.1999511719</ele>
        <time>2015-09-12T09:41:42.000Z</time>
      </trkpt>
      <trkpt lat="45.38056" lon="5.91638">
        <ele>1045</ele>
        <time>2015-09-12T09:41:45.000Z</time>
      </trkpt>
      <trkpt lat="45.38054" lon="5.91641">
        <ele>1043.5999755859</ele>
        <time>2015-09-12T09:41:48.000Z</time>
      </trkpt>
      <trkpt lat="45.38052" lon="5.91647">
        <ele>1042</ele>
        <time>2015-09-12T09:41:52.000Z</time>
      </trkpt>
      <trkpt lat="45.38048" lon="5.91645">
        <ele>1041.8000488281</ele>
        <time>2015-09-12T09:41:56.000Z</time>
      </trkpt>
      <trkpt lat="45.38044" lon="5.91643">
        <ele>1042.4000244141</ele>
        <time>2015-09-12T09:42:08.000Z</time>
      </trkpt>
      <trkpt lat="45.38042" lon="5.91641">
        <ele>1043</ele>
        <time>2015-09-12T09:42:12.000Z</time>
      </trkpt>
      <trkpt lat="45.38041" lon="5.91641">
        <ele>1043.1999511719</ele>
        <time>2015-09-12T09:42:17.000Z</time>
      </trkpt>
      <trkpt lat="45.38037" lon="5.91646">
        <ele>1042</ele>
        <time>2015-09-12T09:42:24.000Z</time>
      </trkpt>
      <trkpt lat="45.38036" lon="5.91649">
        <ele>1041.1999511719</ele>
        <time>2015-09-12T09:42:31.000Z</time>
      </trkpt>
      <trkpt lat="45.3803" lon="5.91655">
        <ele>1040</ele>
        <time>2015-09-12T09:42:38.000Z</time>
      </trkpt>
      <trkpt lat="45.38028" lon="5.91657">
        <ele>1039.5999755859</ele>
        <time>2015-09-12T09:42:39.000Z</time>
      </trkpt>
      <trkpt lat="45.38023" lon="5.91657">
        <ele>1039.8000488281</ele>
        <time>2015-09-12T09:42:42.000Z</time>
      </trkpt>
      <trkpt lat="45.38011" lon="5.91658">
        <ele>1040</ele>
        <time>2015-09-12T09:42:46.000Z</time>
      </trkpt>
      <trkpt lat="45.38003" lon="5.91661">
        <ele>1039.4000244141</ele>
        <time>2015-09-12T09:42:48.000Z</time>
      </trkpt>
      <trkpt lat="45.37988" lon="5.9169">
        <ele>1031.4000244141</ele>
        <time>2015-09-12T09:42:53.000Z</time>
      </trkpt>
      <trkpt lat="45.37985" lon="5.91698">
        <ele>1029</ele>
        <time>2015-09-12T09:42:54.000Z</time>
      </trkpt>
      <trkpt lat="45.3798" lon="5.91711">
        <ele>1025</ele>
        <time>2015-09-12T09:42:56.000Z</time>
      </trkpt>
      <trkpt lat="45.37973" lon="5.91736">
        <ele>1018.200012207</ele>
        <time>2015-09-12T09:42:59.000Z</time>
      </trkpt>
      <trkpt lat="45.37964" lon="5.91739">
        <ele>1016.799987793</ele>
        <time>2015-09-12T09:43:02.000Z</time>
      </trkpt>
      <trkpt lat="45.37953" lon="5.91732">
        <ele>1017.200012207</ele>
        <time>2015-09-12T09:43:05.000Z</time>
      </trkpt>
      <trkpt lat="45.37943" lon="5.91727">
        <ele>1017.200012207</ele>
        <time>2015-09-12T09:43:07.000Z</time>
      </trkpt>
      <trkpt lat="45.37933" lon="5.91722">
        <ele>1017</ele>
        <time>2015-09-12T09:43:09.000Z</time>
      </trkpt>
      <trkpt lat="45.37918" lon="5.91712">
        <ele>1017.799987793</ele>
        <time>2015-09-12T09:43:12.000Z</time>
      </trkpt>
      <trkpt lat="45.37914" lon="5.91708">
        <ele>1018.4000244141</ele>
        <time>2015-09-12T09:43:13.000Z</time>
      </trkpt>
      <trkpt lat="45.3791" lon="5.91706">
        <ele>1018.5999755859</ele>
        <time>2015-09-12T09:43:14.000Z</time>
      </trkpt>
      <trkpt lat="45.37902" lon="5.91698">
        <ele>1020</ele>
        <time>2015-09-12T09:43:17.000Z</time>
      </trkpt>
      <trkpt lat="45.37894" lon="5.91699">
        <ele>1018.4000244141</ele>
        <time>2015-09-12T09:43:20.000Z</time>
      </trkpt>
      <trkpt lat="45.37885" lon="5.917">
        <ele>1016.799987793</ele>
        <time>2015-09-12T09:43:23.000Z</time>
      </trkpt>
      <trkpt lat="45.37882" lon="5.91701">
        <ele>1016</ele>
        <time>2015-09-12T09:43:24.000Z</time>
      </trkpt>
      <trkpt lat="45.37864" lon="5.91702">
        <ele>1013.4000244141</ele>
        <time>2015-09-12T09:43:28.000Z</time>
      </trkpt>
      <trkpt lat="45.3786" lon="5.91704">
        <ele>1012</ele>
        <time>2015-09-12T09:43:29.000Z</time>
      </trkpt>
      <trkpt lat="45.37843" lon="5.91716">
        <ele>1005.200012207</ele>
        <time>2015-09-12T09:43:33.000Z</time>
      </trkpt>
      <trkpt lat="45.37825" lon="5.91731">
        <ele>997.59997558594</ele>
        <time>2015-09-12T09:43:37.000Z</time>
      </trkpt>
      <trkpt lat="45.37816" lon="5.91741">
        <ele>993.40002441406</ele>
        <time>2015-09-12T09:43:39.000Z</time>
      </trkpt>
      <trkpt lat="45.37806" lon="5.91748">
        <ele>989.59997558594</ele>
        <time>2015-09-12T09:43:41.000Z</time>
      </trkpt>
      <trkpt lat="45.37793" lon="5.91756">
        <ele>985</ele>
        <time>2015-09-12T09:43:44.000Z</time>
      </trkpt>
      <trkpt lat="45.37781" lon="5.91762">
        <ele>982.79998779297</ele>
        <time>2015-09-12T09:43:48.000Z</time>
      </trkpt>
      <trkpt lat="45.37769" lon="5.91754">
        <ele>984.59997558594</ele>
        <time>2015-09-12T09:44:36.000Z</time>
      </trkpt>
      <trkpt lat="45.37769" lon="5.91755">
        <ele>984</ele>
        <time>2015-09-12T09:44:37.000Z</time>
      </trkpt>
      <trkpt lat="45.37775" lon="5.91761">
        <ele>982.79998779297</ele>
        <time>2015-09-12T09:44:41.000Z</time>
      </trkpt>
      <trkpt lat="45.37776" lon="5.91765">
        <ele>981.59997558594</ele>
        <time>2015-09-12T09:44:42.000Z</time>
      </trkpt>
      <trkpt lat="45.37773" lon="5.91766">
        <ele>981.20001220703</ele>
        <time>2015-09-12T09:44:45.000Z</time>
      </trkpt>
      <trkpt lat="45.37772" lon="5.91766">
        <ele>981</ele>
        <time>2015-09-12T09:44:46.000Z</time>
      </trkpt>
      <trkpt lat="45.37763" lon="5.9177">
        <ele>979.40002441406</ele>
        <time>2015-09-12T09:44:52.000Z</time>
      </trkpt>
      <trkpt lat="45.37743" lon="5.91767">
        <ele>978.40002441406</ele>
        <time>2015-09-12T09:44:58.000Z</time>
      </trkpt>
      <trkpt lat="45.37721" lon="5.91766">
        <ele>976.59997558594</ele>
        <time>2015-09-12T09:45:02.000Z</time>
      </trkpt>
      <trkpt lat="45.37708" lon="5.91764">
        <ele>974.40002441406</ele>
        <time>2015-09-12T09:45:05.000Z</time>
      </trkpt>
      <trkpt lat="45.37699" lon="5.91768">
        <ele>970.40002441406</ele>
        <time>2015-09-12T09:45:11.000Z</time>
      </trkpt>
      <trkpt lat="45.37697" lon="5.91771">
        <ele>968.79998779297</ele>
        <time>2015-09-12T09:45:13.000Z</time>
      </trkpt>
      <trkpt lat="45.37691" lon="5.91773">
        <ele>966.20001220703</ele>
        <time>2015-09-12T09:45:21.000Z</time>
      </trkpt>
      <trkpt lat="45.37686" lon="5.91782">
        <ele>962.20001220703</ele>
        <time>2015-09-12T09:45:27.000Z</time>
      </trkpt>
      <trkpt lat="45.37679" lon="5.91801">
        <ele>957.59997558594</ele>
        <time>2015-09-12T09:45:31.000Z</time>
      </trkpt>
      <trkpt lat="45.37679" lon="5.91804">
        <ele>956.79998779297</ele>
        <time>2015-09-12T09:45:32.000Z</time>
      </trkpt>
      <trkpt lat="45.37681" lon="5.91805">
        <ele>956.79998779297</ele>
        <time>2015-09-12T09:45:37.000Z</time>
      </trkpt>
      <trkpt lat="45.37689" lon="5.91798">
        <ele>959.40002441406</ele>
        <time>2015-09-12T09:45:43.000Z</time>
      </trkpt>
      <trkpt lat="45.37697" lon="5.91802">
        <ele>959.79998779297</ele>
        <time>2015-09-12T09:45:46.000Z</time>
      </trkpt>
      <trkpt lat="45.37701" lon="5.91809">
        <ele>958.59997558594</ele>
        <time>2015-09-12T09:45:49.000Z</time>
      </trkpt>
      <trkpt lat="45.37695" lon="5.91811">
        <ele>956.59997558594</ele>
        <time>2015-09-12T09:45:52.000Z</time>
      </trkpt>
      <trkpt lat="45.3769" lon="5.91833">
        <ele>947.59997558594</ele>
        <time>2015-09-12T09:45:56.000Z</time>
      </trkpt>
      <trkpt lat="45.37691" lon="5.91845">
        <ele>942.79998779297</ele>
        <time>2015-09-12T09:46:00.000Z</time>
      </trkpt>
      <trkpt lat="45.37692" lon="5.91846">
        <ele>942.59997558594</ele>
        <time>2015-09-12T09:46:01.000Z</time>
      </trkpt>
      <trkpt lat="45.37695" lon="5.91844">
        <ele>943.59997558594</ele>
        <time>2015-09-12T09:46:06.000Z</time>
      </trkpt>
      <trkpt lat="45.37702" lon="5.91847">
        <ele>943.40002441406</ele>
        <time>2015-09-12T09:46:10.000Z</time>
      </trkpt>
      <trkpt lat="45.3771" lon="5.91862">
        <ele>938.59997558594</ele>
        <time>2015-09-12T09:46:14.000Z</time>
      </trkpt>
      <trkpt lat="45.37717" lon="5.91872">
        <ele>935.79998779297</ele>
        <time>2015-09-12T09:46:17.000Z</time>
      </trkpt>
      <trkpt lat="45.37725" lon="5.91874">
        <ele>936.79998779297</ele>
        <time>2015-09-12T09:46:20.000Z</time>
      </trkpt>
      <trkpt lat="45.37733" lon="5.91881">
        <ele>935.40002441406</ele>
        <time>2015-09-12T09:46:25.000Z</time>
      </trkpt>
      <trkpt lat="45.37734" lon="5.91882">
        <ele>935.20001220703</ele>
        <time>2015-09-12T09:46:26.000Z</time>
      </trkpt>
      <trkpt lat="45.37735" lon="5.91893">
        <ele>931.59997558594</ele>
        <time>2015-09-12T09:46:30.000Z</time>
      </trkpt>
      <trkpt lat="45.37744" lon="5.91904">
        <ele>930</ele>
        <time>2015-09-12T09:46:35.000Z</time>
      </trkpt>
      <trkpt lat="45.37746" lon="5.91906">
        <ele>930</ele>
        <time>2015-09-12T09:46:36.000Z</time>
      </trkpt>
      <trkpt lat="45.37763" lon="5.91925">
        <ele>927.59997558594</ele>
        <time>2015-09-12T09:46:44.000Z</time>
      </trkpt>
      <trkpt lat="45.37774" lon="5.91945">
        <ele>923.79998779297</ele>
        <time>2015-09-12T09:46:47.000Z</time>
      </trkpt>
      <trkpt lat="45.37777" lon="5.91953">
        <ele>921.79998779297</ele>
        <time>2015-09-12T09:46:48.000Z</time>
      </trkpt>
      <trkpt lat="45.37782" lon="5.91965">
        <ele>919.59997558594</ele>
        <time>2015-09-12T09:46:50.000Z</time>
      </trkpt>
      <trkpt lat="45.37781" lon="5.9198">
        <ele>915.40002441406</ele>
        <time>2015-09-12T09:46:53.000Z</time>
      </trkpt>
      <trkpt lat="45.37767" lon="5.9199">
        <ele>910.59997558594</ele>
        <time>2015-09-12T09:46:56.000Z</time>
      </trkpt>
      <trkpt lat="45.37764" lon="5.91998">
        <ele>908.20001220703</ele>
        <time>2015-09-12T09:46:59.000Z</time>
      </trkpt>
      <trkpt lat="45.37766" lon="5.92001">
        <ele>907.59997558594</ele>
        <time>2015-09-12T09:47:02.000Z</time>
      </trkpt>
      <trkpt lat="45.37768" lon="5.92007">
        <ele>906.40002441406</ele>
        <time>2015-09-12T09:47:05.000Z</time>
      </trkpt>
      <trkpt lat="45.37777" lon="5.92028">
        <ele>903.20001220703</ele>
        <time>2015-09-12T09:47:10.000Z</time>
      </trkpt>
      <trkpt lat="45.37789" lon="5.92046">
        <ele>901</ele>
        <time>2015-09-12T09:47:14.000Z</time>
      </trkpt>
      <trkpt lat="45.37796" lon="5.92057">
        <ele>899.59997558594</ele>
        <time>2015-09-12T09:47:16.000Z</time>
      </trkpt>
      <trkpt lat="45.37804" lon="5.92068">
        <ele>899.20001220703</ele>
        <time>2015-09-12T09:47:20.000Z</time>
      </trkpt>
      <trkpt lat="45.37803" lon="5.92072">
        <ele>898.59997558594</ele>
        <time>2015-09-12T09:47:28.000Z</time>
      </trkpt>
      <trkpt lat="45.37803" lon="5.92073">
        <ele>898.59997558594</ele>
        <time>2015-09-12T09:47:32.000Z</time>
      </trkpt>
      <trkpt lat="45.37805" lon="5.92077">
        <ele>898.40002441406</ele>
        <time>2015-09-12T09:47:36.000Z</time>
      </trkpt>
      <trkpt lat="45.37812" lon="5.92085">
        <ele>898</ele>
        <time>2015-09-12T09:47:43.000Z</time>
      </trkpt>
      <trkpt lat="45.37818" lon="5.92088">
        <ele>898.20001220703</ele>
        <time>2015-09-12T09:47:49.000Z</time>
      </trkpt>
      <trkpt lat="45.37819" lon="5.92089">
        <ele>898.20001220703</ele>
        <time>2015-09-12T09:47:50.000Z</time>
      </trkpt>
      <trkpt lat="45.37821" lon="5.92088">
        <ele>898.59997558594</ele>
        <time>2015-09-12T09:47:54.000Z</time>
      </trkpt>
      <trkpt lat="45.3782" lon="5.92086">
        <ele>898.59997558594</ele>
        <time>2015-09-12T09:47:56.000Z</time>
      </trkpt>
      <trkpt lat="45.37818" lon="5.92084">
        <ele>898.79998779297</ele>
        <time>2015-09-12T09:47:58.000Z</time>
      </trkpt>
      <trkpt lat="45.37809" lon="5.92078">
        <ele>898.59997558594</ele>
        <time>2015-09-12T09:48:04.000Z</time>
      </trkpt>
      <trkpt lat="45.37803" lon="5.92076">
        <ele>898.20001220703</ele>
        <time>2015-09-12T09:48:10.000Z</time>
      </trkpt>
      <trkpt lat="45.37802" lon="5.92076">
        <ele>898</ele>
        <time>2015-09-12T09:48:11.000Z</time>
      </trkpt>
      <trkpt lat="45.37792" lon="5.92073">
        <ele>897.20001220703</ele>
        <time>2015-09-12T09:48:18.000Z</time>
      </trkpt>
      <trkpt lat="45.37785" lon="5.92073">
        <ele>896</ele>
        <time>2015-09-12T09:48:22.000Z</time>
      </trkpt>
      <trkpt lat="45.37763" lon="5.92071">
        <ele>892.79998779297</ele>
        <time>2015-09-12T09:48:28.000Z</time>
      </trkpt>
      <trkpt lat="45.37742" lon="5.92064">
        <ele>890.40002441406</ele>
        <time>2015-09-12T09:48:33.000Z</time>
      </trkpt>
      <trkpt lat="45.37729" lon="5.92057">
        <ele>889.20001220703</ele>
        <time>2015-09-12T09:48:36.000Z</time>
      </trkpt>
      <trkpt lat="45.37714" lon="5.92046">
        <ele>889.20001220703</ele>
        <time>2015-09-12T09:48:42.000Z</time>
      </trkpt>
      <trkpt lat="45.37713" lon="5.92046">
        <ele>889.20001220703</ele>
        <time>2015-09-12T09:48:43.000Z</time>
      </trkpt>
      <trkpt lat="45.37709" lon="5.92049">
        <ele>888</ele>
        <time>2015-09-12T09:48:46.000Z</time>
      </trkpt>
      <trkpt lat="45.3771" lon="5.92051">
        <ele>887.79998779297</ele>
        <time>2015-09-12T09:48:52.000Z</time>
      </trkpt>
      <trkpt lat="45.37716" lon="5.92058">
        <ele>887</ele>
        <time>2015-09-12T09:49:38.000Z</time>
      </trkpt>
      <trkpt lat="45.3772" lon="5.92065">
        <ele>886.79998779297</ele>
        <time>2015-09-12T09:49:44.000Z</time>
      </trkpt>
      <trkpt lat="45.37721" lon="5.92068">
        <ele>886.59997558594</ele>
        <time>2015-09-12T09:49:51.000Z</time>
      </trkpt>
      <trkpt lat="45.37728" lon="5.92078">
        <ele>886</ele>
        <time>2015-09-12T09:49:57.000Z</time>
      </trkpt>
      <trkpt lat="45.37734" lon="5.92081">
        <ele>886.79998779297</ele>
        <time>2015-09-12T09:50:02.000Z</time>
      </trkpt>
      <trkpt lat="45.37744" lon="5.92084">
        <ele>888.40002441406</ele>
        <time>2015-09-12T09:50:06.000Z</time>
      </trkpt>
      <trkpt lat="45.37748" lon="5.92085">
        <ele>888.79998779297</ele>
        <time>2015-09-12T09:50:07.000Z</time>
      </trkpt>
      <trkpt lat="45.37763" lon="5.92101">
        <ele>889.20001220703</ele>
        <time>2015-09-12T09:50:13.000Z</time>
      </trkpt>
      <trkpt lat="45.37775" lon="5.9212">
        <ele>888.79998779297</ele>
        <time>2015-09-12T09:50:17.000Z</time>
      </trkpt>
      <trkpt lat="45.37776" lon="5.92128">
        <ele>887.59997558594</ele>
        <time>2015-09-12T09:50:18.000Z</time>
      </trkpt>
      <trkpt lat="45.37774" lon="5.92153">
        <ele>882.20001220703</ele>
        <time>2015-09-12T09:50:21.000Z</time>
      </trkpt>
      <trkpt lat="45.37772" lon="5.92162">
        <ele>880.20001220703</ele>
        <time>2015-09-12T09:50:22.000Z</time>
      </trkpt>
      <trkpt lat="45.3777" lon="5.92171">
        <ele>878</ele>
        <time>2015-09-12T09:50:23.000Z</time>
      </trkpt>
      <trkpt lat="45.37769" lon="5.92195">
        <ele>873.20001220703</ele>
        <time>2015-09-12T09:50:26.000Z</time>
      </trkpt>
      <trkpt lat="45.37768" lon="5.92214">
        <ele>870.20001220703</ele>
        <time>2015-09-12T09:50:29.000Z</time>
      </trkpt>
      <trkpt lat="45.37773" lon="5.92229">
        <ele>868</ele>
        <time>2015-09-12T09:50:33.000Z</time>
      </trkpt>
      <trkpt lat="45.37784" lon="5.92228">
        <ele>870.20001220703</ele>
        <time>2015-09-12T09:50:38.000Z</time>
      </trkpt>
      <trkpt lat="45.3779" lon="5.92231">
        <ele>870.20001220703</ele>
        <time>2015-09-12T09:50:40.000Z</time>
      </trkpt>
      <trkpt lat="45.37793" lon="5.92239">
        <ele>868.79998779297</ele>
        <time>2015-09-12T09:50:42.000Z</time>
      </trkpt>
      <trkpt lat="45.37803" lon="5.92265">
        <ele>862.79998779297</ele>
        <time>2015-09-12T09:50:47.000Z</time>
      </trkpt>
      <trkpt lat="45.37805" lon="5.92271">
        <ele>861.40002441406</ele>
        <time>2015-09-12T09:50:48.000Z</time>
      </trkpt>
      <trkpt lat="45.3781" lon="5.92281">
        <ele>859.40002441406</ele>
        <time>2015-09-12T09:50:50.000Z</time>
      </trkpt>
      <trkpt lat="45.3782" lon="5.92291">
        <ele>858</ele>
        <time>2015-09-12T09:50:54.000Z</time>
      </trkpt>
      <trkpt lat="45.37824" lon="5.92295">
        <ele>857.40002441406</ele>
        <time>2015-09-12T09:50:55.000Z</time>
      </trkpt>
      <trkpt lat="45.37839" lon="5.92305">
        <ele>856.59997558594</ele>
        <time>2015-09-12T09:50:59.000Z</time>
      </trkpt>
      <trkpt lat="45.37847" lon="5.92317">
        <ele>857.20001220703</ele>
        <time>2015-09-12T09:51:03.000Z</time>
      </trkpt>
      <trkpt lat="45.37848" lon="5.92321">
        <ele>857.40002441406</ele>
        <time>2015-09-12T09:51:05.000Z</time>
      </trkpt>
      <trkpt lat="45.37848" lon="5.92321">
        <ele>857.40002441406</ele>
        <time>2015-09-12T09:51:09.000Z</time>
      </trkpt>
      <trkpt lat="45.37838" lon="5.92329">
        <ele>856</ele>
        <time>2015-09-12T09:51:14.000Z</time>
      </trkpt>
      <trkpt lat="45.37825" lon="5.92335">
        <ele>854.20001220703</ele>
        <time>2015-09-12T09:51:18.000Z</time>
      </trkpt>
      <trkpt lat="45.37821" lon="5.92337">
        <ele>853</ele>
        <time>2015-09-12T09:51:19.000Z</time>
      </trkpt>
      <trkpt lat="45.37803" lon="5.92346">
        <ele>847.59997558594</ele>
        <time>2015-09-12T09:51:23.000Z</time>
      </trkpt>
      <trkpt lat="45.37798" lon="5.92349">
        <ele>846</ele>
        <time>2015-09-12T09:51:24.000Z</time>
      </trkpt>
      <trkpt lat="45.3778" lon="5.92349">
        <ele>842.59997558594</ele>
        <time>2015-09-12T09:51:28.000Z</time>
      </trkpt>
      <trkpt lat="45.37776" lon="5.92347">
        <ele>841.79998779297</ele>
        <time>2015-09-12T09:51:29.000Z</time>
      </trkpt>
      <trkpt lat="45.37771" lon="5.92344">
        <ele>841.40002441406</ele>
        <time>2015-09-12T09:51:30.000Z</time>
      </trkpt>
      <trkpt lat="45.37761" lon="5.92325">
        <ele>841.20001220703</ele>
        <time>2015-09-12T09:51:35.000Z</time>
      </trkpt>
      <trkpt lat="45.37754" lon="5.9232">
        <ele>840.40002441406</ele>
        <time>2015-09-12T09:51:38.000Z</time>
      </trkpt>
      <trkpt lat="45.37747" lon="5.92322">
        <ele>838.79998779297</ele>
        <time>2015-09-12T09:51:41.000Z</time>
      </trkpt>
      <trkpt lat="45.37736" lon="5.92335">
        <ele>834.40002441406</ele>
        <time>2015-09-12T09:51:48.000Z</time>
      </trkpt>
      <trkpt lat="45.37735" lon="5.92338">
        <ele>833.20001220703</ele>
        <time>2015-09-12T09:51:49.000Z</time>
      </trkpt>
      <trkpt lat="45.37733" lon="5.92342">
        <ele>831.59997558594</ele>
        <time>2015-09-12T09:51:52.000Z</time>
      </trkpt>
      <trkpt lat="45.37729" lon="5.9234">
        <ele>830.40002441406</ele>
        <time>2015-09-12T09:52:01.000Z</time>
      </trkpt>
      <trkpt lat="45.37726" lon="5.9234">
        <ele>829.59997558594</ele>
        <time>2015-09-12T09:52:07.000Z</time>
      </trkpt>
      <trkpt lat="45.37721" lon="5.92346">
        <ele>826.40002441406</ele>
        <time>2015-09-12T09:52:18.000Z</time>
      </trkpt>
      <trkpt lat="45.37714" lon="5.92352">
        <ele>822.40002441406</ele>
        <time>2015-09-12T09:52:22.000Z</time>
      </trkpt>
      <trkpt lat="45.37708" lon="5.92353">
        <ele>821.40002441406</ele>
        <time>2015-09-12T09:52:24.000Z</time>
      </trkpt>
      <trkpt lat="45.37699" lon="5.92347">
        <ele>821.40002441406</ele>
        <time>2015-09-12T09:52:27.000Z</time>
      </trkpt>
      <trkpt lat="45.37683" lon="5.92354">
        <ele>817.20001220703</ele>
        <time>2015-09-12T09:52:31.000Z</time>
      </trkpt>
      <trkpt lat="45.37672" lon="5.9236">
        <ele>813.79998779297</ele>
        <time>2015-09-12T09:52:33.000Z</time>
      </trkpt>
      <trkpt lat="45.3766" lon="5.92366">
        <ele>809.79998779297</ele>
        <time>2015-09-12T09:52:35.000Z</time>
      </trkpt>
      <trkpt lat="45.37652" lon="5.92384">
        <ele>803.59997558594</ele>
        <time>2015-09-12T09:52:38.000Z</time>
      </trkpt>
      <trkpt lat="45.37648" lon="5.9239">
        <ele>801.20001220703</ele>
        <time>2015-09-12T09:52:41.000Z</time>
      </trkpt>
      <trkpt lat="45.37645" lon="5.92389">
        <ele>801</ele>
        <time>2015-09-12T09:52:42.000Z</time>
      </trkpt>
      <trkpt lat="45.37643" lon="5.92389">
        <ele>800.40002441406</ele>
        <time>2015-09-12T09:52:43.000Z</time>
      </trkpt>
      <trkpt lat="45.37641" lon="5.92389">
        <ele>800.20001220703</ele>
        <time>2015-09-12T09:52:44.000Z</time>
      </trkpt>
      <trkpt lat="45.37636" lon="5.92388">
        <ele>799.59997558594</ele>
        <time>2015-09-12T09:52:47.000Z</time>
      </trkpt>
      <trkpt lat="45.37635" lon="5.92387">
        <ele>799.40002441406</ele>
        <time>2015-09-12T09:52:49.000Z</time>
      </trkpt>
      <trkpt lat="45.37642" lon="5.92399">
        <ele>800.79998779297</ele>
        <time>2015-09-12T09:52:55.000Z</time>
      </trkpt>
      <trkpt lat="45.37643" lon="5.92401">
        <ele>801.20001220703</ele>
        <time>2015-09-12T09:52:56.000Z</time>
      </trkpt>
      <trkpt lat="45.37647" lon="5.92401">
        <ele>802</ele>
        <time>2015-09-12T09:52:58.000Z</time>
      </trkpt>
      <trkpt lat="45.37662" lon="5.92408">
        <ele>805.40002441406</ele>
        <time>2015-09-12T09:53:03.000Z</time>
      </trkpt>
      <trkpt lat="45.37668" lon="5.92417">
        <ele>807.40002441406</ele>
        <time>2015-09-12T09:53:06.000Z</time>
      </trkpt>
      <trkpt lat="45.37668" lon="5.92434">
        <ele>807.79998779297</ele>
        <time>2015-09-12T09:53:10.000Z</time>
      </trkpt>
      <trkpt lat="45.37658" lon="5.92444">
        <ele>802.79998779297</ele>
        <time>2015-09-12T09:53:14.000Z</time>
      </trkpt>
      <trkpt lat="45.37652" lon="5.92435">
        <ele>801.59997558594</ele>
        <time>2015-09-12T09:53:17.000Z</time>
      </trkpt>
      <trkpt lat="45.37646" lon="5.92435">
        <ele>799.40002441406</ele>
        <time>2015-09-12T09:53:19.000Z</time>
      </trkpt>
      <trkpt lat="45.37639" lon="5.92441">
        <ele>796</ele>
        <time>2015-09-12T09:53:22.000Z</time>
      </trkpt>
      <trkpt lat="45.37629" lon="5.92453">
        <ele>792</ele>
        <time>2015-09-12T09:53:26.000Z</time>
      </trkpt>
      <trkpt lat="45.37626" lon="5.92452">
        <ele>792</ele>
        <time>2015-09-12T09:53:29.000Z</time>
      </trkpt>
      <trkpt lat="45.37625" lon="5.9245">
        <ele>792.20001220703</ele>
        <time>2015-09-12T09:53:31.000Z</time>
      </trkpt>
      <trkpt lat="45.3762" lon="5.92447">
        <ele>792.40002441406</ele>
        <time>2015-09-12T09:53:37.000Z</time>
      </trkpt>
      <trkpt lat="45.37617" lon="5.92448">
        <ele>792</ele>
        <time>2015-09-12T09:53:44.000Z</time>
      </trkpt>
      <trkpt lat="45.37618" lon="5.92451">
        <ele>791.79998779297</ele>
        <time>2015-09-12T09:53:46.000Z</time>
      </trkpt>
      <trkpt lat="45.3762" lon="5.92461">
        <ele>791</ele>
        <time>2015-09-12T09:53:52.000Z</time>
      </trkpt>
      <trkpt lat="45.3762" lon="5.92469">
        <ele>790</ele>
        <time>2015-09-12T09:53:55.000Z</time>
      </trkpt>
      <trkpt lat="45.3762" lon="5.92474">
        <ele>789</ele>
        <time>2015-09-12T09:53:57.000Z</time>
      </trkpt>
      <trkpt lat="45.37624" lon="5.92474">
        <ele>789.40002441406</ele>
        <time>2015-09-12T09:54:01.000Z</time>
      </trkpt>
      <trkpt lat="45.37625" lon="5.92473">
        <ele>789.59997558594</ele>
        <time>2015-09-12T09:54:02.000Z</time>
      </trkpt>
      <trkpt lat="45.37626" lon="5.92474">
        <ele>789.59997558594</ele>
        <time>2015-09-12T09:54:03.000Z</time>
      </trkpt>
      <trkpt lat="45.3763" lon="5.92476">
        <ele>789.59997558594</ele>
        <time>2015-09-12T09:54:10.000Z</time>
      </trkpt>
      <trkpt lat="45.37631" lon="5.92479">
        <ele>789.40002441406</ele>
        <time>2015-09-12T09:54:14.000Z</time>
      </trkpt>
      <trkpt lat="45.37631" lon="5.92484">
        <ele>789</ele>
        <time>2015-09-12T09:54:21.000Z</time>
      </trkpt>
      <trkpt lat="45.37632" lon="5.92488">
        <ele>788.79998779297</ele>
        <time>2015-09-12T09:54:31.000Z</time>
      </trkpt>
      <trkpt lat="45.37634" lon="5.92491">
        <ele>789.40002441406</ele>
        <time>2015-09-12T09:54:40.000Z</time>
      </trkpt>
      <trkpt lat="45.37633" lon="5.92492">
        <ele>789</ele>
        <time>2015-09-12T09:54:45.000Z</time>
      </trkpt>
      <trkpt lat="45.37633" lon="5.92493">
        <ele>788.79998779297</ele>
        <time>2015-09-12T09:54:46.000Z</time>
      </trkpt>
      <trkpt lat="45.37631" lon="5.92494">
        <ele>787.79998779297</ele>
        <time>2015-09-12T09:54:48.000Z</time>
      </trkpt>
      <trkpt lat="45.37624" lon="5.92504">
        <ele>786.20001220703</ele>
        <time>2015-09-12T09:54:53.000Z</time>
      </trkpt>
      <trkpt lat="45.37624" lon="5.92505">
        <ele>786</ele>
        <time>2015-09-12T09:54:54.000Z</time>
      </trkpt>
      <trkpt lat="45.3762" lon="5.92508">
        <ele>785.40002441406</ele>
        <time>2015-09-12T09:55:02.000Z</time>
      </trkpt>
      <trkpt lat="45.37618" lon="5.92508">
        <ele>785.20001220703</ele>
        <time>2015-09-12T09:55:08.000Z</time>
      </trkpt>
      <trkpt lat="45.37616" lon="5.92504">
        <ele>785.40002441406</ele>
        <time>2015-09-12T09:55:13.000Z</time>
      </trkpt>
      <trkpt lat="45.37614" lon="5.92505">
        <ele>785.20001220703</ele>
        <time>2015-09-12T09:55:18.000Z</time>
      </trkpt>
      <trkpt lat="45.37613" lon="5.92508">
        <ele>784.79998779297</ele>
        <time>2015-09-12T09:55:23.000Z</time>
      </trkpt>
      <trkpt lat="45.37615" lon="5.92515">
        <ele>784.20001220703</ele>
        <time>2015-09-12T09:55:29.000Z</time>
      </trkpt>
      <trkpt lat="45.37615" lon="5.92517">
        <ele>784</ele>
        <time>2015-09-12T09:55:30.000Z</time>
      </trkpt>
      <trkpt lat="45.37615" lon="5.92534">
        <ele>782.20001220703</ele>
        <time>2015-09-12T09:55:35.000Z</time>
      </trkpt>
      <trkpt lat="45.37612" lon="5.92544">
        <ele>780</ele>
        <time>2015-09-12T09:55:39.000Z</time>
      </trkpt>
      <trkpt lat="45.37608" lon="5.92552">
        <ele>777.59997558594</ele>
        <time>2015-09-12T09:55:41.000Z</time>
      </trkpt>
      <trkpt lat="45.37604" lon="5.92573">
        <ele>774.79998779297</ele>
        <time>2015-09-12T09:55:46.000Z</time>
      </trkpt>
      <trkpt lat="45.37601" lon="5.92595">
        <ele>772.79998779297</ele>
        <time>2015-09-12T09:55:50.000Z</time>
      </trkpt>
      <trkpt lat="45.37597" lon="5.92616">
        <ele>769.20001220703</ele>
        <time>2015-09-12T09:55:53.000Z</time>
      </trkpt>
      <trkpt lat="45.37592" lon="5.92628">
        <ele>764.40002441406</ele>
        <time>2015-09-12T09:55:56.000Z</time>
      </trkpt>
      <trkpt lat="45.37592" lon="5.92637">
        <ele>762.40002441406</ele>
        <time>2015-09-12T09:55:58.000Z</time>
      </trkpt>
      <trkpt lat="45.3759" lon="5.92642">
        <ele>760.59997558594</ele>
        <time>2015-09-12T09:56:00.000Z</time>
      </trkpt>
      <trkpt lat="45.37586" lon="5.92647">
        <ele>759</ele>
        <time>2015-09-12T09:56:02.000Z</time>
      </trkpt>
      <trkpt lat="45.37582" lon="5.92665">
        <ele>757</ele>
        <time>2015-09-12T09:56:06.000Z</time>
      </trkpt>
      <trkpt lat="45.37581" lon="5.92668">
        <ele>756.79998779297</ele>
        <time>2015-09-12T09:56:07.000Z</time>
      </trkpt>
      <trkpt lat="45.37583" lon="5.9268">
        <ele>756.40002441406</ele>
        <time>2015-09-12T09:56:10.000Z</time>
      </trkpt>
      <trkpt lat="45.37581" lon="5.92684">
        <ele>755</ele>
        <time>2015-09-12T09:56:13.000Z</time>
      </trkpt>
      <trkpt lat="45.37579" lon="5.92681">
        <ele>754.79998779297</ele>
        <time>2015-09-12T09:56:16.000Z</time>
      </trkpt>
      <trkpt lat="45.37579" lon="5.9268">
        <ele>754.79998779297</ele>
        <time>2015-09-12T09:56:20.000Z</time>
      </trkpt>
      <trkpt lat="45.37574" lon="5.92681">
        <ele>752.20001220703</ele>
        <time>2015-09-12T09:56:27.000Z</time>
      </trkpt>
      <trkpt lat="45.3757" lon="5.9269">
        <ele>749.20001220703</ele>
        <time>2015-09-12T09:56:32.000Z</time>
      </trkpt>
      <trkpt lat="45.37568" lon="5.92691">
        <ele>748</ele>
        <time>2015-09-12T09:56:33.000Z</time>
      </trkpt>
      <trkpt lat="45.37558" lon="5.92696">
        <ele>743</ele>
        <time>2015-09-12T09:56:36.000Z</time>
      </trkpt>
      <trkpt lat="45.37553" lon="5.92699">
        <ele>740.20001220703</ele>
        <time>2015-09-12T09:56:39.000Z</time>
      </trkpt>
      <trkpt lat="45.37548" lon="5.92697">
        <ele>738.20001220703</ele>
        <time>2015-09-12T09:56:41.000Z</time>
      </trkpt>
      <trkpt lat="45.37543" lon="5.92703">
        <ele>737.59997558594</ele>
        <time>2015-09-12T09:56:43.000Z</time>
      </trkpt>
      <trkpt lat="45.37545" lon="5.92709">
        <ele>736.79998779297</ele>
        <time>2015-09-12T09:56:47.000Z</time>
      </trkpt>
      <trkpt lat="45.37545" lon="5.92709">
        <ele>736.79998779297</ele>
        <time>2015-09-12T09:56:48.000Z</time>
      </trkpt>
      <trkpt lat="45.37544" lon="5.92713">
        <ele>736.20001220703</ele>
        <time>2015-09-12T09:56:50.000Z</time>
      </trkpt>
      <trkpt lat="45.3754" lon="5.92717">
        <ele>735.59997558594</ele>
        <time>2015-09-12T09:56:53.000Z</time>
      </trkpt>
      <trkpt lat="45.37536" lon="5.92721">
        <ele>734.40002441406</ele>
        <time>2015-09-12T09:56:55.000Z</time>
      </trkpt>
      <trkpt lat="45.37535" lon="5.92736">
        <ele>733.20001220703</ele>
        <time>2015-09-12T09:57:01.000Z</time>
      </trkpt>
      <trkpt lat="45.37535" lon="5.92738">
        <ele>733.40002441406</ele>
        <time>2015-09-12T09:57:02.000Z</time>
      </trkpt>
      <trkpt lat="45.37535" lon="5.92744">
        <ele>733.20001220703</ele>
        <time>2015-09-12T09:57:04.000Z</time>
      </trkpt>
      <trkpt lat="45.37531" lon="5.92749">
        <ele>732.59997558594</ele>
        <time>2015-09-12T09:57:07.000Z</time>
      </trkpt>
      <trkpt lat="45.3753" lon="5.9275">
        <ele>732.59997558594</ele>
        <time>2015-09-12T09:57:09.000Z</time>
      </trkpt>
      <trkpt lat="45.37525" lon="5.92758">
        <ele>731.79998779297</ele>
        <time>2015-09-12T09:57:13.000Z</time>
      </trkpt>
      <trkpt lat="45.37518" lon="5.92763">
        <ele>731</ele>
        <time>2015-09-12T09:57:17.000Z</time>
      </trkpt>
      <trkpt lat="45.37518" lon="5.92764">
        <ele>730.79998779297</ele>
        <time>2015-09-12T09:57:18.000Z</time>
      </trkpt>
      <trkpt lat="45.37512" lon="5.92779">
        <ele>728.59997558594</ele>
        <time>2015-09-12T09:57:33.000Z</time>
      </trkpt>
      <trkpt lat="45.37513" lon="5.92782">
        <ele>728.20001220703</ele>
        <time>2015-09-12T09:57:34.000Z</time>
      </trkpt>
      <trkpt lat="45.37514" lon="5.92786">
        <ele>727.79998779297</ele>
        <time>2015-09-12T09:57:36.000Z</time>
      </trkpt>
      <trkpt lat="45.37512" lon="5.9279">
        <ele>726.20001220703</ele>
        <time>2015-09-12T09:57:40.000Z</time>
      </trkpt>
      <trkpt lat="45.37511" lon="5.92789">
        <ele>726.20001220703</ele>
        <time>2015-09-12T09:57:42.000Z</time>
      </trkpt>
      <trkpt lat="45.37505" lon="5.92791">
        <ele>723.79998779297</ele>
        <time>2015-09-12T09:57:46.000Z</time>
      </trkpt>
      <trkpt lat="45.375" lon="5.92808">
        <ele>719</ele>
        <time>2015-09-12T09:57:50.000Z</time>
      </trkpt>
      <trkpt lat="45.37497" lon="5.92816">
        <ele>717.20001220703</ele>
        <time>2015-09-12T09:57:55.000Z</time>
      </trkpt>
      <trkpt lat="45.37495" lon="5.92817">
        <ele>716.59997558594</ele>
        <time>2015-09-12T09:57:57.000Z</time>
      </trkpt>
      <trkpt lat="45.37493" lon="5.92823">
        <ele>715.20001220703</ele>
        <time>2015-09-12T09:58:03.000Z</time>
      </trkpt>
      <trkpt lat="45.37492" lon="5.92826">
        <ele>714.59997558594</ele>
        <time>2015-09-12T09:58:07.000Z</time>
      </trkpt>
      <trkpt lat="45.37485" lon="5.92833">
        <ele>711.40002441406</ele>
        <time>2015-09-12T09:58:20.000Z</time>
      </trkpt>
      <trkpt lat="45.37483" lon="5.92838">
        <ele>710.20001220703</ele>
        <time>2015-09-12T09:58:26.000Z</time>
      </trkpt>
      <trkpt lat="45.37483" lon="5.92843">
        <ele>709.40002441406</ele>
        <time>2015-09-12T09:58:30.000Z</time>
      </trkpt>
      <trkpt lat="45.3748" lon="5.92848">
        <ele>707.40002441406</ele>
        <time>2015-09-12T09:58:34.000Z</time>
      </trkpt>
      <trkpt lat="45.3748" lon="5.92853">
        <ele>706.59997558594</ele>
        <time>2015-09-12T09:58:40.000Z</time>
      </trkpt>
      <trkpt lat="45.37482" lon="5.92857">
        <ele>706.79998779297</ele>
        <time>2015-09-12T09:58:50.000Z</time>
      </trkpt>
      <trkpt lat="45.37484" lon="5.92857">
        <ele>707.40002441406</ele>
        <time>2015-09-12T09:58:58.000Z</time>
      </trkpt>
      <trkpt lat="45.37487" lon="5.92856">
        <ele>708.59997558594</ele>
        <time>2015-09-12T09:59:00.000Z</time>
      </trkpt>
      <trkpt lat="45.37489" lon="5.92858">
        <ele>709.20001220703</ele>
        <time>2015-09-12T09:59:05.000Z</time>
      </trkpt>
      <trkpt lat="45.37486" lon="5.9286">
        <ele>707.79998779297</ele>
        <time>2015-09-12T09:59:17.000Z</time>
      </trkpt>
      <trkpt lat="45.37485" lon="5.92862">
        <ele>707.20001220703</ele>
        <time>2015-09-12T09:59:24.000Z</time>
      </trkpt>
      <trkpt lat="45.37483" lon="5.92863">
        <ele>706</ele>
        <time>2015-09-12T09:59:26.000Z</time>
      </trkpt>
      <trkpt lat="45.37476" lon="5.92872">
        <ele>702.40002441406</ele>
        <time>2015-09-12T09:59:30.000Z</time>
      </trkpt>
      <trkpt lat="45.37471" lon="5.92878">
        <ele>699.40002441406</ele>
        <time>2015-09-12T09:59:32.000Z</time>
      </trkpt>
      <trkpt lat="45.37464" lon="5.92899">
        <ele>694.20001220703</ele>
        <time>2015-09-12T09:59:37.000Z</time>
      </trkpt>
      <trkpt lat="45.37457" lon="5.92909">
        <ele>692.40002441406</ele>
        <time>2015-09-12T09:59:41.000Z</time>
      </trkpt>
      <trkpt lat="45.37455" lon="5.92912">
        <ele>691.79998779297</ele>
        <time>2015-09-12T09:59:42.000Z</time>
      </trkpt>
      <trkpt lat="45.37452" lon="5.92919">
        <ele>690.79998779297</ele>
        <time>2015-09-12T09:59:44.000Z</time>
      </trkpt>
      <trkpt lat="45.37451" lon="5.92922">
        <ele>690.40002441406</ele>
        <time>2015-09-12T09:59:51.000Z</time>
      </trkpt>
      <trkpt lat="45.37453" lon="5.92929">
        <ele>690</ele>
        <time>2015-09-12T10:00:25.000Z</time>
      </trkpt>
      <trkpt lat="45.37446" lon="5.92935">
        <ele>688.59997558594</ele>
        <time>2015-09-12T10:00:31.000Z</time>
      </trkpt>
      <trkpt lat="45.37443" lon="5.92938">
        <ele>687.79998779297</ele>
        <time>2015-09-12T10:00:34.000Z</time>
      </trkpt>
      <trkpt lat="45.37443" lon="5.92936">
        <ele>688</ele>
        <time>2015-09-12T10:00:58.000Z</time>
      </trkpt>
      <trkpt lat="45.37444" lon="5.92933">
        <ele>688.59997558594</ele>
        <time>2015-09-12T10:01:06.000Z</time>
      </trkpt>
      <trkpt lat="45.37447" lon="5.92931">
        <ele>689</ele>
        <time>2015-09-12T10:01:18.000Z</time>
      </trkpt>
      <trkpt lat="45.37458" lon="5.92926">
        <ele>691</ele>
        <time>2015-09-12T10:01:54.000Z</time>
      </trkpt>
      <trkpt lat="45.3746" lon="5.92928">
        <ele>691</ele>
        <time>2015-09-12T10:02:00.000Z</time>
      </trkpt>
      <trkpt lat="45.37452" lon="5.92928">
        <ele>690</ele>
        <time>2015-09-12T10:02:04.000Z</time>
      </trkpt>
      <trkpt lat="45.37443" lon="5.92938">
        <ele>688</ele>
        <time>2015-09-12T10:02:09.000Z</time>
      </trkpt>
      <trkpt lat="45.37435" lon="5.92937">
        <ele>686.79998779297</ele>
        <time>2015-09-12T10:02:23.000Z</time>
      </trkpt>
      <trkpt lat="45.37434" lon="5.92938">
        <ele>686.40002441406</ele>
        <time>2015-09-12T10:02:24.000Z</time>
      </trkpt>
      <trkpt lat="45.37425" lon="5.92952">
        <ele>681.20001220703</ele>
        <time>2015-09-12T10:02:28.000Z</time>
      </trkpt>
      <trkpt lat="45.37424" lon="5.92954">
        <ele>680</ele>
        <time>2015-09-12T10:02:31.000Z</time>
      </trkpt>
      <trkpt lat="45.3742" lon="5.92958">
        <ele>677.59997558594</ele>
        <time>2015-09-12T10:02:40.000Z</time>
      </trkpt>
      <trkpt lat="45.37417" lon="5.92958">
        <ele>676.59997558594</ele>
        <time>2015-09-12T10:02:42.000Z</time>
      </trkpt>
      <trkpt lat="45.37411" lon="5.92962">
        <ele>673.79998779297</ele>
        <time>2015-09-12T10:02:48.000Z</time>
      </trkpt>
      <trkpt lat="45.3741" lon="5.92963">
        <ele>673.20001220703</ele>
        <time>2015-09-12T10:02:49.000Z</time>
      </trkpt>
      <trkpt lat="45.37412" lon="5.92968">
        <ele>672.40002441406</ele>
        <time>2015-09-12T10:02:53.000Z</time>
      </trkpt>
      <trkpt lat="45.37412" lon="5.92971">
        <ele>671.79998779297</ele>
        <time>2015-09-12T10:02:55.000Z</time>
      </trkpt>
      <trkpt lat="45.37413" lon="5.92976">
        <ele>671.40002441406</ele>
        <time>2015-09-12T10:03:02.000Z</time>
      </trkpt>
      <trkpt lat="45.37407" lon="5.92976">
        <ele>669.40002441406</ele>
        <time>2015-09-12T10:03:13.000Z</time>
      </trkpt>
      <trkpt lat="45.37405" lon="5.92978">
        <ele>668.59997558594</ele>
        <time>2015-09-12T10:03:14.000Z</time>
      </trkpt>
      <trkpt lat="45.37396" lon="5.92997">
        <ele>665</ele>
        <time>2015-09-12T10:03:18.000Z</time>
      </trkpt>
      <trkpt lat="45.37388" lon="5.93006">
        <ele>660.40002441406</ele>
        <time>2015-09-12T10:03:20.000Z</time>
      </trkpt>
      <trkpt lat="45.37388" lon="5.93014">
        <ele>659.40002441406</ele>
        <time>2015-09-12T10:03:24.000Z</time>
      </trkpt>
      <trkpt lat="45.37393" lon="5.93009">
        <ele>662</ele>
        <time>2015-09-12T10:03:29.000Z</time>
      </trkpt>
      <trkpt lat="45.37392" lon="5.93013">
        <ele>661.20001220703</ele>
        <time>2015-09-12T10:03:36.000Z</time>
      </trkpt>
      <trkpt lat="45.37391" lon="5.93015">
        <ele>660.79998779297</ele>
        <time>2015-09-12T10:03:37.000Z</time>
      </trkpt>
      <trkpt lat="45.37388" lon="5.93026">
        <ele>658.20001220703</ele>
        <time>2015-09-12T10:03:42.000Z</time>
      </trkpt>
      <trkpt lat="45.37385" lon="5.93034">
        <ele>656.20001220703</ele>
        <time>2015-09-12T10:03:46.000Z</time>
      </trkpt>
      <trkpt lat="45.37389" lon="5.9304">
        <ele>657.20001220703</ele>
        <time>2015-09-12T10:03:49.000Z</time>
      </trkpt>
      <trkpt lat="45.3739" lon="5.93043">
        <ele>657.40002441406</ele>
        <time>2015-09-12T10:03:50.000Z</time>
      </trkpt>
      <trkpt lat="45.3739" lon="5.93045">
        <ele>657.20001220703</ele>
        <time>2015-09-12T10:03:51.000Z</time>
      </trkpt>
      <trkpt lat="45.37388" lon="5.93056">
        <ele>655.20001220703</ele>
        <time>2015-09-12T10:03:54.000Z</time>
      </trkpt>
      <trkpt lat="45.37381" lon="5.93071">
        <ele>654.40002441406</ele>
        <time>2015-09-12T10:03:58.000Z</time>
      </trkpt>
      <trkpt lat="45.37375" lon="5.93076">
        <ele>654</ele>
        <time>2015-09-12T10:04:01.000Z</time>
      </trkpt>
      <trkpt lat="45.37367" lon="5.93089">
        <ele>654.59997558594</ele>
        <time>2015-09-12T10:04:04.000Z</time>
      </trkpt>
      <trkpt lat="45.37364" lon="5.93099">
        <ele>655.59997558594</ele>
        <time>2015-09-12T10:04:08.000Z</time>
      </trkpt>
      <trkpt lat="45.37362" lon="5.93102">
        <ele>656</ele>
        <time>2015-09-12T10:04:09.000Z</time>
      </trkpt>
      <trkpt lat="45.37342" lon="5.93123">
        <ele>651.40002441406</ele>
        <time>2015-09-12T10:04:14.000Z</time>
      </trkpt>
      <trkpt lat="45.37338" lon="5.93125">
        <ele>649.59997558594</ele>
        <time>2015-09-12T10:04:15.000Z</time>
      </trkpt>
      <trkpt lat="45.37331" lon="5.93138">
        <ele>646.59997558594</ele>
        <time>2015-09-12T10:04:19.000Z</time>
      </trkpt>
      <trkpt lat="45.3733" lon="5.93138">
        <ele>646.40002441406</ele>
        <time>2015-09-12T10:04:28.000Z</time>
      </trkpt>
      <trkpt lat="45.37334" lon="5.93136">
        <ele>648</ele>
        <time>2015-09-12T10:04:32.000Z</time>
      </trkpt>
      <trkpt lat="45.37331" lon="5.9314">
        <ele>646.59997558594</ele>
        <time>2015-09-12T10:04:39.000Z</time>
      </trkpt>
      <trkpt lat="45.37321" lon="5.93149">
        <ele>645</ele>
        <time>2015-09-12T10:04:46.000Z</time>
      </trkpt>
      <trkpt lat="45.37317" lon="5.93154">
        <ele>644.79998779297</ele>
        <time>2015-09-12T10:04:54.000Z</time>
      </trkpt>
      <trkpt lat="45.37311" lon="5.93157">
        <ele>642.20001220703</ele>
        <time>2015-09-12T10:05:05.000Z</time>
      </trkpt>
      <trkpt lat="45.37309" lon="5.93162">
        <ele>641</ele>
        <time>2015-09-12T10:05:25.000Z</time>
      </trkpt>
      <trkpt lat="45.37309" lon="5.93166">
        <ele>641</ele>
        <time>2015-09-12T10:05:31.000Z</time>
      </trkpt>
      <trkpt lat="45.37308" lon="5.93172">
        <ele>640.20001220703</ele>
        <time>2015-09-12T10:06:02.000Z</time>
      </trkpt>
      <trkpt lat="45.37309" lon="5.93174">
        <ele>640.79998779297</ele>
        <time>2015-09-12T10:06:07.000Z</time>
      </trkpt>
      <trkpt lat="45.37306" lon="5.93181">
        <ele>639</ele>
        <time>2015-09-12T10:06:11.000Z</time>
      </trkpt>
      <trkpt lat="45.37304" lon="5.93194">
        <ele>637.59997558594</ele>
        <time>2015-09-12T10:06:15.000Z</time>
      </trkpt>
      <trkpt lat="45.37305" lon="5.932">
        <ele>638.59997558594</ele>
        <time>2015-09-12T10:06:18.000Z</time>
      </trkpt>
      <trkpt lat="45.37301" lon="5.93207">
        <ele>635.79998779297</ele>
        <time>2015-09-12T10:06:21.000Z</time>
      </trkpt>
      <trkpt lat="45.37302" lon="5.93214">
        <ele>636.40002441406</ele>
        <time>2015-09-12T10:06:25.000Z</time>
      </trkpt>
      <trkpt lat="45.37303" lon="5.93217">
        <ele>637.20001220703</ele>
        <time>2015-09-12T10:06:27.000Z</time>
      </trkpt>
      <trkpt lat="45.37304" lon="5.93224">
        <ele>637.59997558594</ele>
        <time>2015-09-12T10:06:37.000Z</time>
      </trkpt>
      <trkpt lat="45.37305" lon="5.93224">
        <ele>638.79998779297</ele>
        <time>2015-09-12T10:06:42.000Z</time>
      </trkpt>
      <trkpt lat="45.37306" lon="5.9323">
        <ele>639.40002441406</ele>
        <time>2015-09-12T10:06:48.000Z</time>
      </trkpt>
      <trkpt lat="45.37304" lon="5.93234">
        <ele>638</ele>
        <time>2015-09-12T10:06:52.000Z</time>
      </trkpt>
      <trkpt lat="45.37304" lon="5.93236">
        <ele>637</ele>
        <time>2015-09-12T10:06:57.000Z</time>
      </trkpt>
      <trkpt lat="45.37303" lon="5.93239">
        <ele>635.59997558594</ele>
        <time>2015-09-12T10:07:04.000Z</time>
      </trkpt>
      <trkpt lat="45.37302" lon="5.93243">
        <ele>634</ele>
        <time>2015-09-12T10:07:09.000Z</time>
      </trkpt>
      <trkpt lat="45.37299" lon="5.93246">
        <ele>631</ele>
        <time>2015-09-12T10:07:13.000Z</time>
      </trkpt>
      <trkpt lat="45.37297" lon="5.93248">
        <ele>629.40002441406</ele>
        <time>2015-09-12T10:07:19.000Z</time>
      </trkpt>
      <trkpt lat="45.37298" lon="5.9325">
        <ele>629.79998779297</ele>
        <time>2015-09-12T10:07:25.000Z</time>
      </trkpt>
      <trkpt lat="45.37298" lon="5.93251">
        <ele>629.40002441406</ele>
        <time>2015-09-12T10:07:35.000Z</time>
      </trkpt>
      <trkpt lat="45.373" lon="5.93255">
        <ele>630</ele>
        <time>2015-09-12T10:07:44.000Z</time>
      </trkpt>
      <trkpt lat="45.373" lon="5.93256">
        <ele>629.79998779297</ele>
        <time>2015-09-12T10:07:45.000Z</time>
      </trkpt>
      <trkpt lat="45.37299" lon="5.93263">
        <ele>627.79998779297</ele>
        <time>2015-09-12T10:07:49.000Z</time>
      </trkpt>
      <trkpt lat="45.37292" lon="5.9328">
        <ele>621.20001220703</ele>
        <time>2015-09-12T10:07:54.000Z</time>
      </trkpt>
      <trkpt lat="45.37291" lon="5.93281">
        <ele>620.20001220703</ele>
        <time>2015-09-12T10:07:55.000Z</time>
      </trkpt>
      <trkpt lat="45.37288" lon="5.93284">
        <ele>618.59997558594</ele>
        <time>2015-09-12T10:07:59.000Z</time>
      </trkpt>
      <trkpt lat="45.37287" lon="5.93287">
        <ele>617.20001220703</ele>
        <time>2015-09-12T10:08:06.000Z</time>
      </trkpt>
      <trkpt lat="45.37279" lon="5.93297">
        <ele>612</ele>
        <time>2015-09-12T10:08:12.000Z</time>
      </trkpt>
      <trkpt lat="45.37276" lon="5.93306">
        <ele>609</ele>
        <time>2015-09-12T10:08:15.000Z</time>
      </trkpt>
      <trkpt lat="45.37278" lon="5.93321">
        <ele>608.59997558594</ele>
        <time>2015-09-12T10:08:18.000Z</time>
      </trkpt>
      <trkpt lat="45.37273" lon="5.93333">
        <ele>605.59997558594</ele>
        <time>2015-09-12T10:08:21.000Z</time>
      </trkpt>
      <trkpt lat="45.37264" lon="5.93354">
        <ele>599.79998779297</ele>
        <time>2015-09-12T10:08:25.000Z</time>
      </trkpt>
      <trkpt lat="45.37261" lon="5.93362">
        <ele>597.59997558594</ele>
        <time>2015-09-12T10:08:27.000Z</time>
      </trkpt>
      <trkpt lat="45.37256" lon="5.93367">
        <ele>594.20001220703</ele>
        <time>2015-09-12T10:08:31.000Z</time>
      </trkpt>
      <trkpt lat="45.37255" lon="5.93373">
        <ele>593</ele>
        <time>2015-09-12T10:08:33.000Z</time>
      </trkpt>
      <trkpt lat="45.37251" lon="5.93379">
        <ele>590.20001220703</ele>
        <time>2015-09-12T10:08:35.000Z</time>
      </trkpt>
      <trkpt lat="45.37243" lon="5.93395">
        <ele>584.40002441406</ele>
        <time>2015-09-12T10:08:41.000Z</time>
      </trkpt>
      <trkpt lat="45.37245" lon="5.93407">
        <ele>584.20001220703</ele>
        <time>2015-09-12T10:08:44.000Z</time>
      </trkpt>
      <trkpt lat="45.37249" lon="5.93415">
        <ele>585.40002441406</ele>
        <time>2015-09-12T10:08:47.000Z</time>
      </trkpt>
      <trkpt lat="45.37243" lon="5.93436">
        <ele>580.79998779297</ele>
        <time>2015-09-12T10:08:51.000Z</time>
      </trkpt>
      <trkpt lat="45.37239" lon="5.93438">
        <ele>579</ele>
        <time>2015-09-12T10:08:54.000Z</time>
      </trkpt>
      <trkpt lat="45.37237" lon="5.9344">
        <ele>577.79998779297</ele>
        <time>2015-09-12T10:08:55.000Z</time>
      </trkpt>
      <trkpt lat="45.37232" lon="5.93446">
        <ele>575.20001220703</ele>
        <time>2015-09-12T10:08:57.000Z</time>
      </trkpt>
      <trkpt lat="45.37225" lon="5.93447">
        <ele>571.79998779297</ele>
        <time>2015-09-12T10:09:00.000Z</time>
      </trkpt>
      <trkpt lat="45.37219" lon="5.93451">
        <ele>568.40002441406</ele>
        <time>2015-09-12T10:09:04.000Z</time>
      </trkpt>
      <trkpt lat="45.37216" lon="5.93454">
        <ele>566.79998779297</ele>
        <time>2015-09-12T10:09:06.000Z</time>
      </trkpt>
      <trkpt lat="45.37209" lon="5.93457">
        <ele>565.59997558594</ele>
        <time>2015-09-12T10:09:10.000Z</time>
      </trkpt>
      <trkpt lat="45.37204" lon="5.93459">
        <ele>565</ele>
        <time>2015-09-12T10:09:14.000Z</time>
      </trkpt>
      <trkpt lat="45.37203" lon="5.93458">
        <ele>564.79998779297</ele>
        <time>2015-09-12T10:09:15.000Z</time>
      </trkpt>
      <trkpt lat="45.37202" lon="5.93458">
        <ele>564.79998779297</ele>
        <time>2015-09-12T10:09:16.000Z</time>
      </trkpt>
      <trkpt lat="45.37195" lon="5.93472">
        <ele>561.40002441406</ele>
        <time>2015-09-12T10:09:20.000Z</time>
      </trkpt>
      <trkpt lat="45.37194" lon="5.93478">
        <ele>560.40002441406</ele>
        <time>2015-09-12T10:09:21.000Z</time>
      </trkpt>
      <trkpt lat="45.37198" lon="5.93501">
        <ele>558.79998779297</ele>
        <time>2015-09-12T10:09:24.000Z</time>
      </trkpt>
      <trkpt lat="45.37198" lon="5.93506">
        <ele>558.40002441406</ele>
        <time>2015-09-12T10:09:25.000Z</time>
      </trkpt>
      <trkpt lat="45.37194" lon="5.93517">
        <ele>556.59997558594</ele>
        <time>2015-09-12T10:09:27.000Z</time>
      </trkpt>
      <trkpt lat="45.37193" lon="5.93532">
        <ele>555</ele>
        <time>2015-09-12T10:09:29.000Z</time>
      </trkpt>
      <trkpt lat="45.37193" lon="5.9354">
        <ele>553.79998779297</ele>
        <time>2015-09-12T10:09:30.000Z</time>
      </trkpt>
      <trkpt lat="45.37194" lon="5.93571">
        <ele>547.20001220703</ele>
        <time>2015-09-12T10:09:33.000Z</time>
      </trkpt>
      <trkpt lat="45.37194" lon="5.9358">
        <ele>544.40002441406</ele>
        <time>2015-09-12T10:09:34.000Z</time>
      </trkpt>
      <trkpt lat="45.37196" lon="5.93601">
        <ele>538.79998779297</ele>
        <time>2015-09-12T10:09:36.000Z</time>
      </trkpt>
      <trkpt lat="45.37199" lon="5.93624">
        <ele>533.40002441406</ele>
        <time>2015-09-12T10:09:38.000Z</time>
      </trkpt>
      <trkpt lat="45.37206" lon="5.93642">
        <ele>531</ele>
        <time>2015-09-12T10:09:40.000Z</time>
      </trkpt>
      <trkpt lat="45.37207" lon="5.93668">
        <ele>526.20001220703</ele>
        <time>2015-09-12T10:09:43.000Z</time>
      </trkpt>
      <trkpt lat="45.37208" lon="5.93678">
        <ele>524.59997558594</ele>
        <time>2015-09-12T10:09:46.000Z</time>
      </trkpt>
      <trkpt lat="45.3721" lon="5.9369">
        <ele>522.79998779297</ele>
        <time>2015-09-12T10:09:51.000Z</time>
      </trkpt>
      <trkpt lat="45.3721" lon="5.93692">
        <ele>522.20001220703</ele>
        <time>2015-09-12T10:09:52.000Z</time>
      </trkpt>
      <trkpt lat="45.37206" lon="5.93714">
        <ele>517.20001220703</ele>
        <time>2015-09-12T10:09:57.000Z</time>
      </trkpt>
      <trkpt lat="45.37206" lon="5.93721">
        <ele>516</ele>
        <time>2015-09-12T10:09:58.000Z</time>
      </trkpt>
      <trkpt lat="45.37204" lon="5.93744">
        <ele>511.20001220703</ele>
        <time>2015-09-12T10:10:02.000Z</time>
      </trkpt>
      <trkpt lat="45.37201" lon="5.93757">
        <ele>508.39999389648</ele>
        <time>2015-09-12T10:10:05.000Z</time>
      </trkpt>
      <trkpt lat="45.37194" lon="5.93771">
        <ele>504.39999389648</ele>
        <time>2015-09-12T10:10:08.000Z</time>
      </trkpt>
      <trkpt lat="45.37191" lon="5.93788">
        <ele>500.79998779297</ele>
        <time>2015-09-12T10:10:12.000Z</time>
      </trkpt>
      <trkpt lat="45.37184" lon="5.93803">
        <ele>497.20001220703</ele>
        <time>2015-09-12T10:10:15.000Z</time>
      </trkpt>
      <trkpt lat="45.37178" lon="5.9382">
        <ele>496</ele>
        <time>2015-09-12T10:10:19.000Z</time>
      </trkpt>
      <trkpt lat="45.37177" lon="5.93824">
        <ele>496</ele>
        <time>2015-09-12T10:10:20.000Z</time>
      </trkpt>
      <trkpt lat="45.37172" lon="5.93836">
        <ele>495.79998779297</ele>
        <time>2015-09-12T10:10:25.000Z</time>
      </trkpt>
      <trkpt lat="45.37171" lon="5.93843">
        <ele>495.79998779297</ele>
        <time>2015-09-12T10:10:27.000Z</time>
      </trkpt>
      <trkpt lat="45.37172" lon="5.93863">
        <ele>494.79998779297</ele>
        <time>2015-09-12T10:10:32.000Z</time>
      </trkpt>
      <trkpt lat="45.37167" lon="5.93878">
        <ele>491.79998779297</ele>
        <time>2015-09-12T10:10:35.000Z</time>
      </trkpt>
      <trkpt lat="45.37168" lon="5.93885">
        <ele>491.39999389648</ele>
        <time>2015-09-12T10:10:38.000Z</time>
      </trkpt>
      <trkpt lat="45.37168" lon="5.93893">
        <ele>490.79998779297</ele>
        <time>2015-09-12T10:10:46.000Z</time>
      </trkpt>
      <trkpt lat="45.37167" lon="5.939">
        <ele>490.20001220703</ele>
        <time>2015-09-12T10:11:03.000Z</time>
      </trkpt>
      <trkpt lat="45.37161" lon="5.93911">
        <ele>487.79998779297</ele>
        <time>2015-09-12T10:11:07.000Z</time>
      </trkpt>
      <trkpt lat="45.37161" lon="5.93928">
        <ele>486.39999389648</ele>
        <time>2015-09-12T10:11:10.000Z</time>
      </trkpt>
      <trkpt lat="45.37158" lon="5.93935">
        <ele>485.20001220703</ele>
        <time>2015-09-12T10:11:11.000Z</time>
      </trkpt>
      <trkpt lat="45.37151" lon="5.93962">
        <ele>480.20001220703</ele>
        <time>2015-09-12T10:11:15.000Z</time>
      </trkpt>
      <trkpt lat="45.3714" lon="5.93987">
        <ele>473.79998779297</ele>
        <time>2015-09-12T10:11:20.000Z</time>
      </trkpt>
      <trkpt lat="45.37127" lon="5.94008">
        <ele>467.60000610352</ele>
        <time>2015-09-12T10:11:24.000Z</time>
      </trkpt>
      <trkpt lat="45.37123" lon="5.94026">
        <ele>465</ele>
        <time>2015-09-12T10:11:27.000Z</time>
      </trkpt>
      <trkpt lat="45.37122" lon="5.94033">
        <ele>464</ele>
        <time>2015-09-12T10:11:28.000Z</time>
      </trkpt>
      <trkpt lat="45.37122" lon="5.94042">
        <ele>463</ele>
        <time>2015-09-12T10:11:29.000Z</time>
      </trkpt>
      <trkpt lat="45.37123" lon="5.94051">
        <ele>462</ele>
        <time>2015-09-12T10:11:30.000Z</time>
      </trkpt>
      <trkpt lat="45.37115" lon="5.94075">
        <ele>455.79998779297</ele>
        <time>2015-09-12T10:11:34.000Z</time>
      </trkpt>
      <trkpt lat="45.37113" lon="5.94082">
        <ele>454</ele>
        <time>2015-09-12T10:11:35.000Z</time>
      </trkpt>
      <trkpt lat="45.37111" lon="5.94093">
        <ele>451.20001220703</ele>
        <time>2015-09-12T10:11:37.000Z</time>
      </trkpt>
      <trkpt lat="45.37102" lon="5.94108">
        <ele>446.60000610352</ele>
        <time>2015-09-12T10:11:41.000Z</time>
      </trkpt>
      <trkpt lat="45.37101" lon="5.94115">
        <ele>445</ele>
        <time>2015-09-12T10:11:42.000Z</time>
      </trkpt>
      <trkpt lat="45.371" lon="5.94122">
        <ele>443.79998779297</ele>
        <time>2015-09-12T10:11:43.000Z</time>
      </trkpt>
      <trkpt lat="45.37103" lon="5.94135">
        <ele>441.79998779297</ele>
        <time>2015-09-12T10:11:45.000Z</time>
      </trkpt>
      <trkpt lat="45.37102" lon="5.94148">
        <ele>439.60000610352</ele>
        <time>2015-09-12T10:11:48.000Z</time>
      </trkpt>
      <trkpt lat="45.37102" lon="5.94152">
        <ele>439</ele>
        <time>2015-09-12T10:11:49.000Z</time>
      </trkpt>
      <trkpt lat="45.371" lon="5.94161">
        <ele>437.60000610352</ele>
        <time>2015-09-12T10:11:50.000Z</time>
      </trkpt>
      <trkpt lat="45.37105" lon="5.94187">
        <ele>434.20001220703</ele>
        <time>2015-09-12T10:11:55.000Z</time>
      </trkpt>
      <trkpt lat="45.37104" lon="5.94196">
        <ele>432.79998779297</ele>
        <time>2015-09-12T10:11:58.000Z</time>
      </trkpt>
      <trkpt lat="45.37102" lon="5.94199">
        <ele>432</ele>
        <time>2015-09-12T10:11:59.000Z</time>
      </trkpt>
      <trkpt lat="45.37098" lon="5.94211">
        <ele>429.20001220703</ele>
        <time>2015-09-12T10:12:04.000Z</time>
      </trkpt>
      <trkpt lat="45.37098" lon="5.94212">
        <ele>429</ele>
        <time>2015-09-12T10:12:05.000Z</time>
      </trkpt>
      <trkpt lat="45.37095" lon="5.94217">
        <ele>427.79998779297</ele>
        <time>2015-09-12T10:12:09.000Z</time>
      </trkpt>
      <trkpt lat="45.37089" lon="5.94224">
        <ele>425.60000610352</ele>
        <time>2015-09-12T10:12:13.000Z</time>
      </trkpt>
      <trkpt lat="45.37085" lon="5.94233">
        <ele>423.20001220703</ele>
        <time>2015-09-12T10:12:17.000Z</time>
      </trkpt>
      <trkpt lat="45.3708" lon="5.94235">
        <ele>422</ele>
        <time>2015-09-12T10:12:20.000Z</time>
      </trkpt>
      <trkpt lat="45.37076" lon="5.94236">
        <ele>421.39999389648</ele>
        <time>2015-09-12T10:12:21.000Z</time>
      </trkpt>
      <trkpt lat="45.37073" lon="5.94235">
        <ele>421.20001220703</ele>
        <time>2015-09-12T10:12:22.000Z</time>
      </trkpt>
      <trkpt lat="45.37069" lon="5.94233">
        <ele>421</ele>
        <time>2015-09-12T10:12:25.000Z</time>
      </trkpt>
      <trkpt lat="45.37069" lon="5.94236">
        <ele>420.60000610352</ele>
        <time>2015-09-12T10:12:37.000Z</time>
      </trkpt>
      <trkpt lat="45.37068" lon="5.9424">
        <ele>419.60000610352</ele>
        <time>2015-09-12T10:13:01.000Z</time>
      </trkpt>
      <trkpt lat="45.37075" lon="5.94251">
        <ele>418.39999389648</ele>
        <time>2015-09-12T10:13:06.000Z</time>
      </trkpt>
      <trkpt lat="45.37086" lon="5.94267">
        <ele>416.79998779297</ele>
        <time>2015-09-12T10:13:11.000Z</time>
      </trkpt>
      <trkpt lat="45.37098" lon="5.94278">
        <ele>416.20001220703</ele>
        <time>2015-09-12T10:13:14.000Z</time>
      </trkpt>
      <trkpt lat="45.37107" lon="5.94285">
        <ele>416.20001220703</ele>
        <time>2015-09-12T10:13:16.000Z</time>
      </trkpt>
      <trkpt lat="45.37132" lon="5.94299">
        <ele>416.79998779297</ele>
        <time>2015-09-12T10:13:21.000Z</time>
      </trkpt>
      <trkpt lat="45.37137" lon="5.94302">
        <ele>418</ele>
        <time>2015-09-12T10:13:22.000Z</time>
      </trkpt>
      <trkpt lat="45.37143" lon="5.94305">
        <ele>419.20001220703</ele>
        <time>2015-09-12T10:13:23.000Z</time>
      </trkpt>
      <trkpt lat="45.3715" lon="5.94307">
        <ele>421</ele>
        <time>2015-09-12T10:13:24.000Z</time>
      </trkpt>
      <trkpt lat="45.37168" lon="5.94331">
        <ele>422</ele>
        <time>2015-09-12T10:13:28.000Z</time>
      </trkpt>
      <trkpt lat="45.37166" lon="5.94363">
        <ele>416</ele>
        <time>2015-09-12T10:13:31.000Z</time>
      </trkpt>
      <trkpt lat="45.37161" lon="5.94386">
        <ele>411.60000610352</ele>
        <time>2015-09-12T10:13:33.000Z</time>
      </trkpt>
      <trkpt lat="45.37147" lon="5.9443">
        <ele>400</ele>
        <time>2015-09-12T10:13:37.000Z</time>
      </trkpt>
      <trkpt lat="45.37143" lon="5.9444">
        <ele>398.20001220703</ele>
        <time>2015-09-12T10:13:38.000Z</time>
      </trkpt>
      <trkpt lat="45.37141" lon="5.94485">
        <ele>390.79998779297</ele>
        <time>2015-09-12T10:13:42.000Z</time>
      </trkpt>
      <trkpt lat="45.37144" lon="5.94497">
        <ele>389.39999389648</ele>
        <time>2015-09-12T10:13:43.000Z</time>
      </trkpt>
      <trkpt lat="45.37153" lon="5.94519">
        <ele>386.79998779297</ele>
        <time>2015-09-12T10:13:45.000Z</time>
      </trkpt>
      <trkpt lat="45.37162" lon="5.94543">
        <ele>384.20001220703</ele>
        <time>2015-09-12T10:13:47.000Z</time>
      </trkpt>
      <trkpt lat="45.37173" lon="5.94567">
        <ele>381</ele>
        <time>2015-09-12T10:13:49.000Z</time>
      </trkpt>
      <trkpt lat="45.37184" lon="5.9459">
        <ele>377.20001220703</ele>
        <time>2015-09-12T10:13:51.000Z</time>
      </trkpt>
      <trkpt lat="45.37208" lon="5.94652">
        <ele>369.20001220703</ele>
        <time>2015-09-12T10:13:56.000Z</time>
      </trkpt>
      <trkpt lat="45.37218" lon="5.94676">
        <ele>367.60000610352</ele>
        <time>2015-09-12T10:13:58.000Z</time>
      </trkpt>
      <trkpt lat="45.37227" lon="5.94702">
        <ele>366.20001220703</ele>
        <time>2015-09-12T10:14:00.000Z</time>
      </trkpt>
      <trkpt lat="45.37234" lon="5.94725">
        <ele>365</ele>
        <time>2015-09-12T10:14:02.000Z</time>
      </trkpt>
      <trkpt lat="45.37242" lon="5.94747">
        <ele>363</ele>
        <time>2015-09-12T10:14:04.000Z</time>
      </trkpt>
      <trkpt lat="45.37247" lon="5.94794">
        <ele>359</ele>
        <time>2015-09-12T10:14:08.000Z</time>
      </trkpt>
      <trkpt lat="45.37246" lon="5.94806">
        <ele>358</ele>
        <time>2015-09-12T10:14:09.000Z</time>
      </trkpt>
      <trkpt lat="45.37245" lon="5.94817">
        <ele>357.20001220703</ele>
        <time>2015-09-12T10:14:10.000Z</time>
      </trkpt>
      <trkpt lat="45.37248" lon="5.94844">
        <ele>355.20001220703</ele>
        <time>2015-09-12T10:14:13.000Z</time>
      </trkpt>
      <trkpt lat="45.37259" lon="5.94849">
        <ele>354.39999389648</ele>
        <time>2015-09-12T10:14:15.000Z</time>
      </trkpt>
      <trkpt lat="45.37281" lon="5.94848">
        <ele>353.79998779297</ele>
        <time>2015-09-12T10:14:18.000Z</time>
      </trkpt>
      <trkpt lat="45.37289" lon="5.94849">
        <ele>353.39999389648</ele>
        <time>2015-09-12T10:14:19.000Z</time>
      </trkpt>
      <trkpt lat="45.37305" lon="5.94851">
        <ele>352.79998779297</ele>
        <time>2015-09-12T10:14:21.000Z</time>
      </trkpt>
      <trkpt lat="45.37329" lon="5.94847">
        <ele>353.20001220703</ele>
        <time>2015-09-12T10:14:24.000Z</time>
      </trkpt>
      <trkpt lat="45.37351" lon="5.94855">
        <ele>352.39999389648</ele>
        <time>2015-09-12T10:14:28.000Z</time>
      </trkpt>
      <trkpt lat="45.37357" lon="5.94875">
        <ele>351.20001220703</ele>
        <time>2015-09-12T10:14:31.000Z</time>
      </trkpt>
      <trkpt lat="45.37365" lon="5.94879">
        <ele>350.79998779297</ele>
        <time>2015-09-12T10:14:33.000Z</time>
      </trkpt>
      <trkpt lat="45.37388" lon="5.94882">
        <ele>350.20001220703</ele>
        <time>2015-09-12T10:14:38.000Z</time>
      </trkpt>
      <trkpt lat="45.3741" lon="5.94884">
        <ele>349.60000610352</ele>
        <time>2015-09-12T10:14:42.000Z</time>
      </trkpt>
      <trkpt lat="45.37432" lon="5.9489">
        <ele>348.79998779297</ele>
        <time>2015-09-12T10:14:46.000Z</time>
      </trkpt>
      <trkpt lat="45.37453" lon="5.94896">
        <ele>347.60000610352</ele>
        <time>2015-09-12T10:14:50.000Z</time>
      </trkpt>
      <trkpt lat="45.37473" lon="5.94904">
        <ele>346.79998779297</ele>
        <time>2015-09-12T10:14:54.000Z</time>
      </trkpt>
      <trkpt lat="45.37478" lon="5.94906">
        <ele>346.60000610352</ele>
        <time>2015-09-12T10:14:55.000Z</time>
      </trkpt>
      <trkpt lat="45.37485" lon="5.94918">
        <ele>345.39999389648</ele>
        <time>2015-09-12T10:14:59.000Z</time>
      </trkpt>
      <trkpt lat="45.37483" lon="5.94922">
        <ele>344.79998779297</ele>
        <time>2015-09-12T10:15:01.000Z</time>
      </trkpt>
      <trkpt lat="45.37482" lon="5.94926">
        <ele>344.39999389648</ele>
        <time>2015-09-12T10:15:15.000Z</time>
      </trkpt>
      <trkpt lat="45.37482" lon="5.94929">
        <ele>344</ele>
        <time>2015-09-12T10:15:23.000Z</time>
      </trkpt>
      <trkpt lat="45.37483" lon="5.94933">
        <ele>343.60000610352</ele>
        <time>2015-09-12T10:16:05.000Z</time>
      </trkpt>
    </trkseg>
  </trk>
</gpx>